<?xml version="1.0" encoding="UTF-8"?>
<gpx creator="Garmin Connect" version="1.1"
  xsi:schemaLocation="http://www.topografix.com/GPX/1/1 http://www.topografix.com/GPX/11.xsd"
  xmlns:ns3="http://www.garmin.com/xmlschemas/TrackPointExtension/v1"
  xmlns="http://www.topografix.com/GPX/1/1"
  xmlns:xsi="http://www.w3.org/2001/XMLSchema-instance" xmlns:ns2="http://www.garmin.com/xmlschemas/GpxExtensions/v3">
  <metadata>
    <name>LU - Dag 4</name>
    <link href="connect.garmin.com">
      <text>Garmin Connect</text>
    </link>
    <time>2024-12-29T15:12:50.000Z</time>
  </metadata>
  <wpt lat="49.92129745855797" lon="6.0534307798053">
    <ele>0.0</ele>
    <name>Trein Goebelsmu</name>
    <type>GENERIC</type>
  </wpt>
  <wpt lat="49.925087551396" lon="6.06164530838031">
    <ele>0.0</ele>
    <name>Info</name>
    <type>INFO</type>
  </wpt>
  <wpt lat="49.93095383905462" lon="6.0651295568144">
    <ele>0.0</ele>
    <name>Hoogste punt 1</name>
    <type>GENERIC</type>
  </wpt>
  <wpt lat="49.9347135540243" lon="6.0680922457059">
    <ele>0.0</ele>
    <name>Info</name>
    <type>INFO</type>
  </wpt>
  <wpt lat="49.94674424505833" lon="6.06344324525217">
    <ele>0.0</ele>
    <name>Waterpunt 3</name>
    <type>GENERIC</type>
  </wpt>
  <wpt lat="49.94900496989034" lon="6.06544495273289">
    <ele>0.0</ele>
    <name>Waterpunt 4</name>
    <type>GENERIC</type>
  </wpt>
  <wpt lat="49.95443062924007" lon="6.06474630690192">
    <ele>0.0</ele>
    <name>Waterpunt 5</name>
    <type>INFO</type>
  </wpt>
  <wpt lat="49.95442317192595" lon="6.06454079259669">
    <ele>0.0</ele>
    <name>Waterpunt 6</name>
    <type>INFO</type>
  </wpt>
  <wpt lat="49.9541581785358" lon="6.06373194453504">
    <ele>0.0</ele>
    <name>Checkpoint</name>
    <type>CHECKPOINT</type>
  </wpt>
  <wpt lat="49.95215155863672" lon="6.06120944692421">
    <ele>0.0</ele>
    <name>Waterpunt 7</name>
    <type>INFO</type>
  </wpt>
  <wpt lat="49.94707415955339" lon="6.05971849017732">
    <ele>0.0</ele>
    <name>Waterpunt 8</name>
    <type>INFO</type>
  </wpt>
  <wpt lat="49.9392291065266" lon="6.05468579697524">
    <ele>0.0</ele>
    <name>Hoogste punt 2</name>
    <type>GENERIC</type>
  </wpt>
  <wpt lat="49.93941004072045" lon="6.0422172566439">
    <ele>0.0</ele>
    <name>Waterpunt 9</name>
    <type>GENERIC</type>
  </wpt>
  <wpt lat="49.94020503112684" lon="6.03914923892011">
    <ele>0.0</ele>
    <name>Waterpunt 10</name>
    <type>GENERIC</type>
  </wpt>
  <wpt lat="49.94187171978624" lon="6.03726731122184">
    <ele>0.0</ele>
    <name>Waterpunt 11</name>
    <type>GENERIC</type>
  </wpt>
  <wpt lat="49.95314670652819" lon="6.03628324797772">
    <ele>0.0</ele>
    <name>Hoogste punt 3</name>
    <type>GENERIC</type>
  </wpt>
  <wpt lat="49.95160417605118" lon="6.01925534508263">
    <ele>0.0</ele>
    <name>WW2 monument</name>
    <type>GENERIC</type>
  </wpt>
  <wpt lat="49.96106449136204" lon="6.01556058143907">
    <ele>0.0</ele>
    <name>Hoogste punt 4</name>
    <type>GENERIC</type>
  </wpt>
  <wpt lat="49.95732905516582" lon="6.02240540310823">
    <ele>0.0</ele>
    <name>Hadschend</name>
    <type>SUMMIT</type>
  </wpt>
  <trk>
    <name>LU - Dag 4</name>
    <trkseg>
      <trkpt lat="49.925426999107" lon="6.047235941514373">
        <ele>245.62</ele>
        <time>2024-12-29T15:12:50.000Z</time>
      </trkpt>
      <trkpt lat="49.9254359677434" lon="6.0472239553928375">
        <ele>245.69</ele>
        <time>2024-12-29T15:12:50.002Z</time>
      </trkpt>
      <trkpt lat="49.92548692971468" lon="6.0472519509494305">
        <ele>245.98</ele>
        <time>2024-12-29T15:12:50.011Z</time>
      </trkpt>
      <trkpt lat="49.92553596384823" lon="6.047303918749094">
        <ele>246.37</ele>
        <time>2024-12-29T15:12:50.028Z</time>
      </trkpt>
      <trkpt lat="49.925563959404826" lon="6.047351947054267">
        <ele>246.74</ele>
        <time>2024-12-29T15:12:50.050Z</time>
      </trkpt>
      <trkpt lat="49.9255929607898" lon="6.0474159847944975">
        <ele>247.07</ele>
        <time>2024-12-29T15:12:50.079Z</time>
      </trkpt>
      <trkpt lat="49.92562196217477" lon="6.047507934272289">
        <ele>247.3</ele>
        <time>2024-12-29T15:12:50.117Z</time>
      </trkpt>
      <trkpt lat="49.92563595995307" lon="6.047603990882635">
        <ele>247.4</ele>
        <time>2024-12-29T15:12:50.163Z</time>
      </trkpt>
      <trkpt lat="49.92563294246793" lon="6.047682948410511">
        <ele>247.34</ele>
        <time>2024-12-29T15:12:50.216Z</time>
      </trkpt>
      <trkpt lat="49.92560997605324" lon="6.047749919816852">
        <ele>247.07</ele>
        <time>2024-12-29T15:12:50.276Z</time>
      </trkpt>
      <trkpt lat="49.92557493969798" lon="6.047798953950405">
        <ele>246.66</ele>
        <time>2024-12-29T15:12:50.342Z</time>
      </trkpt>
      <trkpt lat="49.92551098577678" lon="6.047841953113675">
        <ele>246.16</ele>
        <time>2024-12-29T15:12:50.417Z</time>
      </trkpt>
      <trkpt lat="49.92548692971468" lon="6.047898950055242">
        <ele>245.71</ele>
        <time>2024-12-29T15:12:50.498Z</time>
      </trkpt>
      <trkpt lat="49.92547896690667" lon="6.047971956431866">
        <ele>245.23</ele>
        <time>2024-12-29T15:12:50.586Z</time>
      </trkpt>
      <trkpt lat="49.92548198439181" lon="6.048023924231529">
        <ele>244.76</ele>
        <time>2024-12-29T15:12:50.678Z</time>
      </trkpt>
      <trkpt lat="49.92552699521184" lon="6.04819499887526">
        <ele>244.3</ele>
        <time>2024-12-29T15:12:50.786Z</time>
      </trkpt>
      <trkpt lat="49.925474943593144" lon="6.048410916700959">
        <ele>243.67</ele>
        <time>2024-12-29T15:12:50.914Z</time>
      </trkpt>
      <trkpt lat="49.92525340989232" lon="6.048482498154044">
        <ele>243.23</ele>
        <time>2024-12-29T15:12:51.072Z</time>
      </trkpt>
      <trkpt lat="49.92503196001053" lon="6.048553995788097">
        <ele>242.98</ele>
        <time>2024-12-29T15:12:51.260Z</time>
      </trkpt>
      <trkpt lat="49.924871949478984" lon="6.048588445410132">
        <ele>242.88</ele>
        <time>2024-12-29T15:12:51.470Z</time>
      </trkpt>
      <trkpt lat="49.92471193894744" lon="6.048622978851199">
        <ele>242.81</ele>
        <time>2024-12-29T15:12:51.701Z</time>
      </trkpt>
      <trkpt lat="49.92458193562925" lon="6.048608981072903">
        <ele>242.76</ele>
        <time>2024-12-29T15:12:51.950Z</time>
      </trkpt>
      <trkpt lat="49.92446391843259" lon="6.048536980524659">
        <ele>242.86</ele>
        <time>2024-12-29T15:12:52.216Z</time>
      </trkpt>
      <trkpt lat="49.924319917336106" lon="6.048714928328991">
        <ele>243.01</ele>
        <time>2024-12-29T15:12:52.506Z</time>
      </trkpt>
      <trkpt lat="49.924147920683026" lon="6.049018939957023">
        <ele>243.33</ele>
        <time>2024-12-29T15:12:52.831Z</time>
      </trkpt>
      <trkpt lat="49.9240093678236" lon="6.0492670442909">
        <ele>243.82</ele>
        <time>2024-12-29T15:12:53.184Z</time>
      </trkpt>
      <trkpt lat="49.923870814964175" lon="6.049515064805746">
        <ele>244.53</ele>
        <time>2024-12-29T15:12:53.566Z</time>
      </trkpt>
      <trkpt lat="49.923732932657" lon="6.04976199567318">
        <ele>245.54</ele>
        <time>2024-12-29T15:12:53.976Z</time>
      </trkpt>
      <trkpt lat="49.923716923221946" lon="6.049791919067502">
        <ele>246.3</ele>
        <time>2024-12-29T15:12:54.389Z</time>
      </trkpt>
      <trkpt lat="49.923714995384216" lon="6.049821926280856">
        <ele>247.04</ele>
        <time>2024-12-29T15:12:54.805Z</time>
      </trkpt>
      <trkpt lat="49.92372698150575" lon="6.0498609859496355">
        <ele>247.76</ele>
        <time>2024-12-29T15:12:55.224Z</time>
      </trkpt>
      <trkpt lat="49.92364198900759" lon="6.0498939268291">
        <ele>248.27</ele>
        <time>2024-12-29T15:12:55.655Z</time>
      </trkpt>
      <trkpt lat="49.9235999956727" lon="6.049909936264157">
        <ele>248.7</ele>
        <time>2024-12-29T15:12:56.092Z</time>
      </trkpt>
      <trkpt lat="49.923542998731136" lon="6.049924939870834">
        <ele>248.98</ele>
        <time>2024-12-29T15:12:56.537Z</time>
      </trkpt>
      <trkpt lat="49.9235069565475" lon="6.049978919327259">
        <ele>249.27</ele>
        <time>2024-12-29T15:12:56.988Z</time>
      </trkpt>
      <trkpt lat="49.92344493046403" lon="6.050051925703883">
        <ele>249.41</ele>
        <time>2024-12-29T15:12:57.450Z</time>
      </trkpt>
      <trkpt lat="49.92338793352246" lon="6.050100959837437">
        <ele>249.46</ele>
        <time>2024-12-29T15:12:57.920Z</time>
      </trkpt>
      <trkpt lat="49.92316581308842" lon="6.050265412777662">
        <ele>249.19</ele>
        <time>2024-12-29T15:12:58.423Z</time>
      </trkpt>
      <trkpt lat="49.92294369265437" lon="6.050429781898856">
        <ele>248.81</ele>
        <time>2024-12-29T15:12:58.959Z</time>
      </trkpt>
      <trkpt lat="49.922721991315484" lon="6.050593983381987">
        <ele>248.28</ele>
        <time>2024-12-29T15:12:59.528Z</time>
      </trkpt>
      <trkpt lat="49.922552928328514" lon="6.050745947286487">
        <ele>247.59</ele>
        <time>2024-12-29T15:13:00.123Z</time>
      </trkpt>
      <trkpt lat="49.922401970252395" lon="6.050898917019367">
        <ele>247.0</ele>
        <time>2024-12-29T15:13:00.742Z</time>
      </trkpt>
      <trkpt lat="49.922232991084456" lon="6.0510999988764524">
        <ele>246.53</ele>
        <time>2024-12-29T15:13:01.390Z</time>
      </trkpt>
      <trkpt lat="49.922062922269106" lon="6.051323963329196">
        <ele>245.93</ele>
        <time>2024-12-29T15:13:02.067Z</time>
      </trkpt>
      <trkpt lat="49.92205093614757" lon="6.051342990249395">
        <ele>245.31</ele>
        <time>2024-12-29T15:13:02.747Z</time>
      </trkpt>
      <trkpt lat="49.92207398638129" lon="6.051379954442382">
        <ele>244.73</ele>
        <time>2024-12-29T15:13:03.431Z</time>
      </trkpt>
      <trkpt lat="49.92208898998797" lon="6.0514039266854525">
        <ele>244.15</ele>
        <time>2024-12-29T15:13:04.118Z</time>
      </trkpt>
      <trkpt lat="49.9220959469676" lon="6.051429994404316">
        <ele>243.57</ele>
        <time>2024-12-29T15:13:04.807Z</time>
      </trkpt>
      <trkpt lat="49.92202294059098" lon="6.05154893361032">
        <ele>242.89</ele>
        <time>2024-12-29T15:13:05.511Z</time>
      </trkpt>
      <trkpt lat="49.92199997417629" lon="6.051555974408984">
        <ele>242.27</ele>
        <time>2024-12-29T15:13:06.218Z</time>
      </trkpt>
      <trkpt lat="49.92185899056494" lon="6.051800977438688">
        <ele>241.63</ele>
        <time>2024-12-29T15:13:06.953Z</time>
      </trkpt>
      <trkpt lat="49.92169093340635" lon="6.052148994058371">
        <ele>240.94</ele>
        <time>2024-12-29T15:13:07.725Z</time>
      </trkpt>
      <trkpt lat="49.921694956719875" lon="6.052179923281074">
        <ele>240.39</ele>
        <time>2024-12-29T15:13:08.500Z</time>
      </trkpt>
      <trkpt lat="49.921583980321884" lon="6.052460968494415">
        <ele>239.89</ele>
        <time>2024-12-29T15:13:09.303Z</time>
      </trkpt>
      <trkpt lat="49.921565959230065" lon="6.052466919645667">
        <ele>239.38</ele>
        <time>2024-12-29T15:13:10.109Z</time>
      </trkpt>
      <trkpt lat="49.921503933146596" lon="6.052644951269031">
        <ele>238.93</ele>
        <time>2024-12-29T15:13:10.932Z</time>
      </trkpt>
      <trkpt lat="49.921454982832074" lon="6.052813930436969">
        <ele>238.6</ele>
        <time>2024-12-29T15:13:11.771Z</time>
      </trkpt>
      <trkpt lat="49.921379797160625" lon="6.053091119974852">
        <ele>238.35</ele>
        <time>2024-12-29T15:13:12.636Z</time>
      </trkpt>
      <trkpt lat="49.921304946765304" lon="6.053366968408227">
        <ele>238.13</ele>
        <time>2024-12-29T15:13:13.527Z</time>
      </trkpt>
      <trkpt lat="49.92129798978567" lon="6.05339496396482">
        <ele>237.96</ele>
        <time>2024-12-29T15:13:14.421Z</time>
      </trkpt>
      <trkpt lat="49.92130092345178" lon="6.05341793037951">
        <ele>237.9</ele>
        <time>2024-12-29T15:13:15.317Z</time>
      </trkpt>
      <trkpt lat="49.92129740305245" lon="6.053430754691362">
        <ele>237.9</ele>
        <time>2024-12-29T15:13:16.214Z</time>
      </trkpt>
      <trkpt lat="49.921228755265474" lon="6.053685564547777">
        <ele>238.0</ele>
        <time>2024-12-29T15:13:17.135Z</time>
      </trkpt>
      <trkpt lat="49.921156922355294" lon="6.053951941430569">
        <ele>238.21</ele>
        <time>2024-12-29T15:13:18.080Z</time>
      </trkpt>
      <trkpt lat="49.921142924577" lon="6.053957976400852">
        <ele>238.48</ele>
        <time>2024-12-29T15:13:19.027Z</time>
      </trkpt>
      <trkpt lat="49.921048963442445" lon="6.0542939230799675">
        <ele>238.84</ele>
        <time>2024-12-29T15:13:20.006Z</time>
      </trkpt>
      <trkpt lat="49.92092130705714" lon="6.0547136049717665">
        <ele>239.39</ele>
        <time>2024-12-29T15:13:21.025Z</time>
      </trkpt>
      <trkpt lat="49.92079373449087" lon="6.055133203044534">
        <ele>240.1</ele>
        <time>2024-12-29T15:13:22.084Z</time>
      </trkpt>
      <trkpt lat="49.920666916295886" lon="6.055549951270223">
        <ele>240.77</ele>
        <time>2024-12-29T15:13:23.183Z</time>
      </trkpt>
      <trkpt lat="49.920567255467176" lon="6.055879192426801">
        <ele>241.69</ele>
        <time>2024-12-29T15:13:24.313Z</time>
      </trkpt>
      <trkpt lat="49.920467929914594" lon="6.056206924840808">
        <ele>242.6</ele>
        <time>2024-12-29T15:13:25.474Z</time>
      </trkpt>
      <trkpt lat="49.920445969328284" lon="6.056189993396401">
        <ele>243.69</ele>
        <time>2024-12-29T15:13:26.638Z</time>
      </trkpt>
      <trkpt lat="49.920385954901576" lon="6.056388979777694">
        <ele>244.9</ele>
        <time>2024-12-29T15:13:27.821Z</time>
      </trkpt>
      <trkpt lat="49.92026994936168" lon="6.056770943105221">
        <ele>246.46</ele>
        <time>2024-12-29T15:13:29.041Z</time>
      </trkpt>
      <trkpt lat="49.92024094797671" lon="6.056900946423411">
        <ele>248.17</ele>
        <time>2024-12-29T15:13:30.273Z</time>
      </trkpt>
      <trkpt lat="49.920253939926624" lon="6.057029943913221">
        <ele>250.11</ele>
        <time>2024-12-29T15:13:31.516Z</time>
      </trkpt>
      <trkpt lat="49.920256957411766" lon="6.05728592723608">
        <ele>252.35</ele>
        <time>2024-12-29T15:13:32.781Z</time>
      </trkpt>
      <trkpt lat="49.92026902735233" lon="6.057533612474799">
        <ele>254.73</ele>
        <time>2024-12-29T15:13:34.067Z</time>
      </trkpt>
      <trkpt lat="49.92028092965484" lon="6.057779956609011">
        <ele>257.21</ele>
        <time>2024-12-29T15:13:35.375Z</time>
      </trkpt>
      <trkpt lat="49.920298950746655" lon="6.057853968814015">
        <ele>259.71</ele>
        <time>2024-12-29T15:13:36.689Z</time>
      </trkpt>
      <trkpt lat="49.92036399431527" lon="6.058292929083109">
        <ele>262.67</ele>
        <time>2024-12-29T15:13:38.042Z</time>
      </trkpt>
      <trkpt lat="49.92039592936635" lon="6.0583999659866095">
        <ele>265.49</ele>
        <time>2024-12-29T15:13:39.405Z</time>
      </trkpt>
      <trkpt lat="49.920402970165014" lon="6.058525945991278">
        <ele>268.3</ele>
        <time>2024-12-29T15:13:40.779Z</time>
      </trkpt>
      <trkpt lat="49.920428954064846" lon="6.058583948761225">
        <ele>271.2</ele>
        <time>2024-12-29T15:13:42.159Z</time>
      </trkpt>
      <trkpt lat="49.92043792270124" lon="6.058892989531159">
        <ele>274.12</ele>
        <time>2024-12-29T15:13:43.566Z</time>
      </trkpt>
      <trkpt lat="49.920464996248484" lon="6.0590319614857435">
        <ele>277.1</ele>
        <time>2024-12-29T15:13:44.986Z</time>
      </trkpt>
      <trkpt lat="49.92052199319005" lon="6.059472933411598">
        <ele>280.15</ele>
        <time>2024-12-29T15:13:46.444Z</time>
      </trkpt>
      <trkpt lat="49.920573960989714" lon="6.059658927842975">
        <ele>283.15</ele>
        <time>2024-12-29T15:13:47.920Z</time>
      </trkpt>
      <trkpt lat="49.92058896459639" lon="6.059679966419935">
        <ele>286.07</ele>
        <time>2024-12-29T15:13:49.398Z</time>
      </trkpt>
      <trkpt lat="49.92060195654631" lon="6.059643924236298">
        <ele>289.0</ele>
        <time>2024-12-29T15:13:50.880Z</time>
      </trkpt>
      <trkpt lat="49.920663982629776" lon="6.059233965352178">
        <ele>292.22</ele>
        <time>2024-12-29T15:13:52.398Z</time>
      </trkpt>
      <trkpt lat="49.92070798762143" lon="6.0591529961675406">
        <ele>295.17</ele>
        <time>2024-12-29T15:13:53.925Z</time>
      </trkpt>
      <trkpt lat="49.92073497734964" lon="6.059027938172221">
        <ele>298.03</ele>
        <time>2024-12-29T15:13:55.464Z</time>
      </trkpt>
      <trkpt lat="49.920746963471174" lon="6.059019975364208">
        <ele>300.77</ele>
        <time>2024-12-29T15:13:57.005Z</time>
      </trkpt>
      <trkpt lat="49.92075492627919" lon="6.059037996456027">
        <ele>303.43</ele>
        <time>2024-12-29T15:13:58.547Z</time>
      </trkpt>
      <trkpt lat="49.9207679182291" lon="6.059170933440328">
        <ele>306.04</ele>
        <time>2024-12-29T15:14:00.101Z</time>
      </trkpt>
      <trkpt lat="49.92080798372626" lon="6.059282999485731">
        <ele>308.63</ele>
        <time>2024-12-29T15:14:01.666Z</time>
      </trkpt>
      <trkpt lat="49.92082198150456" lon="6.059292973950505">
        <ele>311.06</ele>
        <time>2024-12-29T15:14:03.233Z</time>
      </trkpt>
      <trkpt lat="49.920876966789365" lon="6.059116953983903">
        <ele>313.51</ele>
        <time>2024-12-29T15:14:04.817Z</time>
      </trkpt>
      <trkpt lat="49.920960953459144" lon="6.05889399535954">
        <ele>315.94</ele>
        <time>2024-12-29T15:14:06.423Z</time>
      </trkpt>
      <trkpt lat="49.92113194428384" lon="6.058535920456052">
        <ele>318.4</ele>
        <time>2024-12-29T15:14:08.068Z</time>
      </trkpt>
      <trkpt lat="49.92114594206214" lon="6.0585299693048">
        <ele>320.41</ele>
        <time>2024-12-29T15:14:09.715Z</time>
      </trkpt>
      <trkpt lat="49.921176955103874" lon="6.058570956811309">
        <ele>322.36</ele>
        <time>2024-12-29T15:14:11.367Z</time>
      </trkpt>
      <trkpt lat="49.92118592374027" lon="6.058865999802947">
        <ele>324.21</ele>
        <time>2024-12-29T15:14:13.044Z</time>
      </trkpt>
      <trkpt lat="49.921216936782" lon="6.05919792316854">
        <ele>325.81</ele>
        <time>2024-12-29T15:14:14.750Z</time>
      </trkpt>
      <trkpt lat="49.9212845787406" lon="6.0594389867037535">
        <ele>327.23</ele>
        <time>2024-12-29T15:14:16.479Z</time>
      </trkpt>
      <trkpt lat="49.921351969242096" lon="6.059678960591555">
        <ele>328.43</ele>
        <time>2024-12-29T15:14:18.231Z</time>
      </trkpt>
      <trkpt lat="49.92147392593324" lon="6.0598989855498075">
        <ele>329.55</ele>
        <time>2024-12-29T15:14:20.008Z</time>
      </trkpt>
      <trkpt lat="49.921606946736574" lon="6.060079950839281">
        <ele>330.43</ele>
        <time>2024-12-29T15:14:21.808Z</time>
      </trkpt>
      <trkpt lat="49.92177098058164" lon="6.06018397025764">
        <ele>331.25</ele>
        <time>2024-12-29T15:14:23.632Z</time>
      </trkpt>
      <trkpt lat="49.92190198972821" lon="6.060244990512729">
        <ele>331.79</ele>
        <time>2024-12-29T15:14:25.474Z</time>
      </trkpt>
      <trkpt lat="49.92195496335626" lon="6.060240967199206">
        <ele>332.21</ele>
        <time>2024-12-29T15:14:27.323Z</time>
      </trkpt>
      <trkpt lat="49.92198698222637" lon="6.060189921408892">
        <ele>332.52</ele>
        <time>2024-12-29T15:14:29.178Z</time>
      </trkpt>
      <trkpt lat="49.92203098721802" lon="6.06018397025764">
        <ele>332.61</ele>
        <time>2024-12-29T15:14:31.039Z</time>
      </trkpt>
      <trkpt lat="49.92207298055291" lon="6.06020693667233">
        <ele>332.51</ele>
        <time>2024-12-29T15:14:32.906Z</time>
      </trkpt>
      <trkpt lat="49.92211396805942" lon="6.060256976634264">
        <ele>332.22</ele>
        <time>2024-12-29T15:14:34.780Z</time>
      </trkpt>
      <trkpt lat="49.922188986092806" lon="6.060259994119406">
        <ele>331.87</ele>
        <time>2024-12-29T15:14:36.664Z</time>
      </trkpt>
      <trkpt lat="49.92225696332753" lon="6.060320930555463">
        <ele>331.31</ele>
        <time>2024-12-29T15:14:38.559Z</time>
      </trkpt>
      <trkpt lat="49.92234497331083" lon="6.0603569727391005">
        <ele>330.67</ele>
        <time>2024-12-29T15:14:40.466Z</time>
      </trkpt>
      <trkpt lat="49.922599950805306" lon="6.060395948588848">
        <ele>330.08</ele>
        <time>2024-12-29T15:14:42.407Z</time>
      </trkpt>
      <trkpt lat="49.92275292053819" lon="6.060497956350446">
        <ele>329.16</ele>
        <time>2024-12-29T15:14:44.370Z</time>
      </trkpt>
      <trkpt lat="49.922764990478754" lon="6.060505919158459">
        <ele>328.24</ele>
        <time>2024-12-29T15:14:46.335Z</time>
      </trkpt>
      <trkpt lat="49.922856939956546" lon="6.060592923313379">
        <ele>327.12</ele>
        <time>2024-12-29T15:14:48.314Z</time>
      </trkpt>
      <trkpt lat="49.9229059740901" lon="6.060693925246596">
        <ele>325.91</ele>
        <time>2024-12-29T15:14:50.304Z</time>
      </trkpt>
      <trkpt lat="49.923025919124484" lon="6.060751928016543">
        <ele>324.73</ele>
        <time>2024-12-29T15:14:52.311Z</time>
      </trkpt>
      <trkpt lat="49.923092974349856" lon="6.0608679335564375">
        <ele>323.31</ele>
        <time>2024-12-29T15:14:54.331Z</time>
      </trkpt>
      <trkpt lat="49.923135973513126" lon="6.0608599707484245">
        <ele>322.24</ele>
        <time>2024-12-29T15:14:56.357Z</time>
      </trkpt>
      <trkpt lat="49.92321199737489" lon="6.060912944376469">
        <ele>321.04</ele>
        <time>2024-12-29T15:14:58.394Z</time>
      </trkpt>
      <trkpt lat="49.923238987103105" lon="6.0609459690749645">
        <ele>319.91</ele>
        <time>2024-12-29T15:15:00.436Z</time>
      </trkpt>
      <trkpt lat="49.92327192798257" lon="6.060948986560106">
        <ele>318.9</ele>
        <time>2024-12-29T15:15:02.482Z</time>
      </trkpt>
      <trkpt lat="49.92328994907439" lon="6.0609969310462475">
        <ele>317.8</ele>
        <time>2024-12-29T15:15:04.533Z</time>
      </trkpt>
      <trkpt lat="49.92333697155118" lon="6.06104495935142">
        <ele>316.79</ele>
        <time>2024-12-29T15:15:06.592Z</time>
      </trkpt>
      <trkpt lat="49.92338793352246" lon="6.0611409321427345">
        <ele>315.73</ele>
        <time>2024-12-29T15:15:08.661Z</time>
      </trkpt>
      <trkpt lat="49.92343193851411" lon="6.061187954619527">
        <ele>314.84</ele>
        <time>2024-12-29T15:15:10.737Z</time>
      </trkpt>
      <trkpt lat="49.92344694212079" lon="6.0612169560045">
        <ele>314.05</ele>
        <time>2024-12-29T15:15:12.817Z</time>
      </trkpt>
      <trkpt lat="49.92346596904099" lon="6.061214944347739">
        <ele>313.42</ele>
        <time>2024-12-29T15:15:14.899Z</time>
      </trkpt>
      <trkpt lat="49.923499999567866" lon="6.061154929921031">
        <ele>313.06</ele>
        <time>2024-12-29T15:15:16.988Z</time>
      </trkpt>
      <trkpt lat="49.9235809687525" lon="6.061120983213186">
        <ele>312.79</ele>
        <time>2024-12-29T15:15:19.088Z</time>
      </trkpt>
      <trkpt lat="49.92365992628038" lon="6.0611409321427345">
        <ele>312.43</ele>
        <time>2024-12-29T15:15:21.199Z</time>
      </trkpt>
      <trkpt lat="49.92372094653547" lon="6.061109919101">
        <ele>312.23</ele>
        <time>2024-12-29T15:15:23.318Z</time>
      </trkpt>
      <trkpt lat="49.923798982053995" lon="6.061116959899664">
        <ele>312.02</ele>
        <time>2024-12-29T15:15:25.448Z</time>
      </trkpt>
      <trkpt lat="49.92393895983696" lon="6.0611689276993275">
        <ele>311.83</ele>
        <time>2024-12-29T15:15:27.597Z</time>
      </trkpt>
      <trkpt lat="49.92405395954847" lon="6.061334973201156">
        <ele>311.37</ele>
        <time>2024-12-29T15:15:29.767Z</time>
      </trkpt>
      <trkpt lat="49.924123948439956" lon="6.061464976519346">
        <ele>310.96</ele>
        <time>2024-12-29T15:15:31.952Z</time>
      </trkpt>
      <trkpt lat="49.924332993105054" lon="6.061588944867253">
        <ele>310.69</ele>
        <time>2024-12-29T15:15:34.167Z</time>
      </trkpt>
      <trkpt lat="49.924488980323076" lon="6.0615679901093245">
        <ele>310.67</ele>
        <time>2024-12-29T15:15:36.402Z</time>
      </trkpt>
      <trkpt lat="49.924682937562466" lon="6.0615709237754345">
        <ele>310.59</ele>
        <time>2024-12-29T15:15:38.663Z</time>
      </trkpt>
      <trkpt lat="49.92486499249935" lon="6.061606965959072">
        <ele>310.46</ele>
        <time>2024-12-29T15:15:40.949Z</time>
      </trkpt>
      <trkpt lat="49.924891982227564" lon="6.061594979837537">
        <ele>310.48</ele>
        <time>2024-12-29T15:15:43.239Z</time>
      </trkpt>
      <trkpt lat="49.92496297694743" lon="6.061608977615833">
        <ele>310.47</ele>
        <time>2024-12-29T15:15:45.538Z</time>
      </trkpt>
      <trkpt lat="49.925044951960444" lon="6.061566984280944">
        <ele>310.48</ele>
        <time>2024-12-29T15:15:47.849Z</time>
      </trkpt>
      <trkpt lat="49.92508493363857" lon="6.061573941260576">
        <ele>310.55</ele>
        <time>2024-12-29T15:15:50.165Z</time>
      </trkpt>
      <trkpt lat="49.925090968608856" lon="6.061629932373762">
        <ele>310.65</ele>
        <time>2024-12-29T15:15:52.486Z</time>
      </trkpt>
      <trkpt lat="49.925087532028556" lon="6.061645271256566">
        <ele>310.8</ele>
        <time>2024-12-29T15:15:54.808Z</time>
      </trkpt>
      <trkpt lat="49.92504998110235" lon="6.061811987310648">
        <ele>310.89</ele>
        <time>2024-12-29T15:15:57.146Z</time>
      </trkpt>
      <trkpt lat="49.92500899359584" lon="6.061944924294949">
        <ele>311.02</ele>
        <time>2024-12-29T15:15:59.496Z</time>
      </trkpt>
      <trkpt lat="49.92497395724058" lon="6.061987923458219">
        <ele>311.19</ele>
        <time>2024-12-29T15:16:01.852Z</time>
      </trkpt>
      <trkpt lat="49.92489097639918" lon="6.062202919274569">
        <ele>311.24</ele>
        <time>2024-12-29T15:16:04.230Z</time>
      </trkpt>
      <trkpt lat="49.92487999610603" lon="6.062253965064883">
        <ele>311.41</ele>
        <time>2024-12-29T15:16:06.612Z</time>
      </trkpt>
      <trkpt lat="49.92488695308566" lon="6.062283972278237">
        <ele>311.64</ele>
        <time>2024-12-29T15:16:08.997Z</time>
      </trkpt>
      <trkpt lat="49.924908997491" lon="6.062295958399773">
        <ele>311.9</ele>
        <time>2024-12-29T15:16:11.385Z</time>
      </trkpt>
      <trkpt lat="49.925070935860276" lon="6.062263939529657">
        <ele>312.39</ele>
        <time>2024-12-29T15:16:13.795Z</time>
      </trkpt>
      <trkpt lat="49.92522994056344" lon="6.062276931479573">
        <ele>312.82</ele>
        <time>2024-12-29T15:16:16.226Z</time>
      </trkpt>
      <trkpt lat="49.925370924174786" lon="6.062309956178069">
        <ele>313.22</ele>
        <time>2024-12-29T15:16:18.676Z</time>
      </trkpt>
      <trkpt lat="49.92544594220817" lon="6.0623089503496885">
        <ele>313.43</ele>
        <time>2024-12-29T15:16:21.136Z</time>
      </trkpt>
      <trkpt lat="49.92565699853003" lon="6.062361923977733">
        <ele>313.7</ele>
        <time>2024-12-29T15:16:23.625Z</time>
      </trkpt>
      <trkpt lat="49.92570192553103" lon="6.0623949486762285">
        <ele>313.74</ele>
        <time>2024-12-29T15:16:26.121Z</time>
      </trkpt>
      <trkpt lat="49.925735956057906" lon="6.062510954216123">
        <ele>313.67</ele>
        <time>2024-12-29T15:16:28.628Z</time>
      </trkpt>
      <trkpt lat="49.925775937736034" lon="6.062595946714282">
        <ele>313.53</ele>
        <time>2024-12-29T15:16:31.144Z</time>
      </trkpt>
      <trkpt lat="49.92587794549763" lon="6.062733996659517">
        <ele>313.31</ele>
        <time>2024-12-29T15:16:33.678Z</time>
      </trkpt>
      <trkpt lat="49.92605094797909" lon="6.0629459749907255">
        <ele>313.04</ele>
        <time>2024-12-29T15:16:36.241Z</time>
      </trkpt>
      <trkpt lat="49.926224956288934" lon="6.0632269363850355">
        <ele>312.53</ele>
        <time>2024-12-29T15:16:38.838Z</time>
      </trkpt>
      <trkpt lat="49.926408184692264" lon="6.063492810353637">
        <ele>311.92</ele>
        <time>2024-12-29T15:16:41.468Z</time>
      </trkpt>
      <trkpt lat="49.926590994000435" lon="6.0637579299509525">
        <ele>311.32</ele>
        <time>2024-12-29T15:16:44.132Z</time>
      </trkpt>
      <trkpt lat="49.92672770284116" lon="6.063993293792009">
        <ele>310.61</ele>
        <time>2024-12-29T15:16:46.823Z</time>
      </trkpt>
      <trkpt lat="49.92686399258673" lon="6.0642279870808125">
        <ele>309.81</ele>
        <time>2024-12-29T15:16:49.541Z</time>
      </trkpt>
      <trkpt lat="49.926967676728964" lon="6.064517078921199">
        <ele>308.91</ele>
        <time>2024-12-29T15:16:52.288Z</time>
      </trkpt>
      <trkpt lat="49.92707094177604" lon="6.064804997295141">
        <ele>308.04</ele>
        <time>2024-12-29T15:16:55.063Z</time>
      </trkpt>
      <trkpt lat="49.927172949537635" lon="6.065237922593951">
        <ele>306.87</ele>
        <time>2024-12-29T15:16:57.878Z</time>
      </trkpt>
      <trkpt lat="49.92722692899406" lon="6.065429951995611">
        <ele>306.0</ele>
        <time>2024-12-29T15:17:00.711Z</time>
      </trkpt>
      <trkpt lat="49.927256936207414" lon="6.065641930326819">
        <ele>305.28</ele>
        <time>2024-12-29T15:17:03.562Z</time>
      </trkpt>
      <trkpt lat="49.92727093398571" lon="6.0657859314233065">
        <ele>304.7</ele>
        <time>2024-12-29T15:17:06.426Z</time>
      </trkpt>
      <trkpt lat="49.92736799642444" lon="6.066188933327794">
        <ele>304.12</ele>
        <time>2024-12-29T15:17:09.327Z</time>
      </trkpt>
      <trkpt lat="49.927452988922596" lon="6.066347938030958">
        <ele>303.83</ele>
        <time>2024-12-29T15:17:12.246Z</time>
      </trkpt>
      <trkpt lat="49.927498921751976" lon="6.066391943022609">
        <ele>303.75</ele>
        <time>2024-12-29T15:17:15.172Z</time>
      </trkpt>
      <trkpt lat="49.92755298502743" lon="6.066382974386215">
        <ele>303.9</ele>
        <time>2024-12-29T15:17:18.105Z</time>
      </trkpt>
      <trkpt lat="49.92784098722041" lon="6.0662029311060905">
        <ele>304.56</ele>
        <time>2024-12-29T15:17:21.080Z</time>
      </trkpt>
      <trkpt lat="49.92806344293058" lon="6.066137468442321">
        <ele>305.02</ele>
        <time>2024-12-29T15:17:24.085Z</time>
      </trkpt>
      <trkpt lat="49.928285982459784" lon="6.066071921959519">
        <ele>305.59</ele>
        <time>2024-12-29T15:17:27.120Z</time>
      </trkpt>
      <trkpt lat="49.928461499512196" lon="6.065985420718789">
        <ele>306.31</ele>
        <time>2024-12-29T15:17:30.180Z</time>
      </trkpt>
      <trkpt lat="49.928636932745576" lon="6.065898919478059">
        <ele>307.12</ele>
        <time>2024-12-29T15:17:33.264Z</time>
      </trkpt>
      <trkpt lat="49.9288859590888" lon="6.0658719297498465">
        <ele>308.06</ele>
        <time>2024-12-29T15:17:36.382Z</time>
      </trkpt>
      <trkpt lat="49.92918594740331" lon="6.065804958343506">
        <ele>309.16</ele>
        <time>2024-12-29T15:17:39.540Z</time>
      </trkpt>
      <trkpt lat="49.92935593239963" lon="6.065801940858364">
        <ele>310.35</ele>
        <time>2024-12-29T15:17:42.721Z</time>
      </trkpt>
      <trkpt lat="49.929447965696454" lon="6.065769921988249">
        <ele>311.71</ele>
        <time>2024-12-29T15:17:45.914Z</time>
      </trkpt>
      <trkpt lat="49.92946892045438" lon="6.065732957795262">
        <ele>313.21</ele>
        <time>2024-12-29T15:17:49.112Z</time>
      </trkpt>
      <trkpt lat="49.92945794016123" lon="6.065614940598607">
        <ele>314.89</ele>
        <time>2024-12-29T15:17:52.320Z</time>
      </trkpt>
      <trkpt lat="49.929427932947874" lon="6.065546963363886">
        <ele>316.61</ele>
        <time>2024-12-29T15:17:55.535Z</time>
      </trkpt>
      <trkpt lat="49.9294179584831" lon="6.0654339753091335">
        <ele>318.45</ele>
        <time>2024-12-29T15:17:58.760Z</time>
      </trkpt>
      <trkpt lat="49.92938292212784" lon="6.06534194201231">
        <ele>320.29</ele>
        <time>2024-12-29T15:18:01.994Z</time>
      </trkpt>
      <trkpt lat="49.92955919355154" lon="6.065051509067416">
        <ele>322.29</ele>
        <time>2024-12-29T15:18:05.262Z</time>
      </trkpt>
      <trkpt lat="49.92973496206105" lon="6.064761998131871">
        <ele>324.43</ele>
        <time>2024-12-29T15:18:08.565Z</time>
      </trkpt>
      <trkpt lat="49.92979095317423" lon="6.064714975655079">
        <ele>326.23</ele>
        <time>2024-12-29T15:18:11.876Z</time>
      </trkpt>
      <trkpt lat="49.929838981479406" lon="6.064722938463092">
        <ele>327.94</ele>
        <time>2024-12-29T15:18:15.194Z</time>
      </trkpt>
      <trkpt lat="49.92988298647106" lon="6.06480591930449">
        <ele>329.55</ele>
        <time>2024-12-29T15:18:18.521Z</time>
      </trkpt>
      <trkpt lat="49.92992799729109" lon="6.064889989793301">
        <ele>331.08</ele>
        <time>2024-12-29T15:18:21.857Z</time>
      </trkpt>
      <trkpt lat="49.92998298257589" lon="6.064960984513164">
        <ele>332.52</ele>
        <time>2024-12-29T15:18:25.203Z</time>
      </trkpt>
      <trkpt lat="49.93006797507405" lon="6.064979927614331">
        <ele>333.92</ele>
        <time>2024-12-29T15:18:28.560Z</time>
      </trkpt>
      <trkpt lat="49.930327981710434" lon="6.064981939271092">
        <ele>335.48</ele>
        <time>2024-12-29T15:18:31.952Z</time>
      </trkpt>
      <trkpt lat="49.93043191730976" lon="6.064998954534531">
        <ele>336.67</ele>
        <time>2024-12-29T15:18:35.358Z</time>
      </trkpt>
      <trkpt lat="49.930717991665006" lon="6.064977999776602">
        <ele>337.9</ele>
        <time>2024-12-29T15:18:38.802Z</time>
      </trkpt>
      <trkpt lat="49.930780939757824" lon="6.064956961199641">
        <ele>338.7</ele>
        <time>2024-12-29T15:18:42.255Z</time>
      </trkpt>
      <trkpt lat="49.93083491921425" lon="6.065042959526181">
        <ele>339.19</ele>
        <time>2024-12-29T15:18:45.718Z</time>
      </trkpt>
      <trkpt lat="49.93090398609638" lon="6.065111942589283">
        <ele>339.5</ele>
        <time>2024-12-29T15:18:49.192Z</time>
      </trkpt>
      <trkpt lat="49.93095377460122" lon="6.065129544585943">
        <ele>339.6</ele>
        <time>2024-12-29T15:18:52.673Z</time>
      </trkpt>
      <trkpt lat="49.931019991636276" lon="6.065152930095792">
        <ele>339.43</ele>
        <time>2024-12-29T15:18:56.163Z</time>
      </trkpt>
      <trkpt lat="49.931125938892365" lon="6.06514697894454">
        <ele>339.05</ele>
        <time>2024-12-29T15:18:59.667Z</time>
      </trkpt>
      <trkpt lat="49.931230964139104" lon="6.065172962844372">
        <ele>338.39</ele>
        <time>2024-12-29T15:19:03.185Z</time>
      </trkpt>
      <trkpt lat="49.931293996050954" lon="6.065214956179261">
        <ele>337.44</ele>
        <time>2024-12-29T15:19:06.712Z</time>
      </trkpt>
      <trkpt lat="49.93136893026531" lon="6.065340936183929">
        <ele>336.12</ele>
        <time>2024-12-29T15:19:10.254Z</time>
      </trkpt>
      <trkpt lat="49.93141293525696" lon="6.06544797308743">
        <ele>334.59</ele>
        <time>2024-12-29T15:19:13.807Z</time>
      </trkpt>
      <trkpt lat="49.93143598549068" lon="6.065561966970563">
        <ele>332.86</ele>
        <time>2024-12-29T15:19:17.370Z</time>
      </trkpt>
      <trkpt lat="49.93143296800554" lon="6.06572893448174">
        <ele>330.79</ele>
        <time>2024-12-29T15:19:20.948Z</time>
      </trkpt>
      <trkpt lat="49.93144093081355" lon="6.065893974155188">
        <ele>328.57</ele>
        <time>2024-12-29T15:19:24.540Z</time>
      </trkpt>
      <trkpt lat="49.93145694024861" lon="6.065985923632979">
        <ele>326.26</ele>
        <time>2024-12-29T15:19:28.140Z</time>
      </trkpt>
      <trkpt lat="49.93147596716881" lon="6.0660739336162806">
        <ele>323.81</ele>
        <time>2024-12-29T15:19:31.748Z</time>
      </trkpt>
      <trkpt lat="49.93157395161688" lon="6.066269986331463">
        <ele>321.17</ele>
        <time>2024-12-29T15:19:35.378Z</time>
      </trkpt>
      <trkpt lat="49.931704960763454" lon="6.06643695384264">
        <ele>318.39</ele>
        <time>2024-12-29T15:19:39.030Z</time>
      </trkpt>
      <trkpt lat="49.931940995156765" lon="6.066638957709074">
        <ele>315.58</ele>
        <time>2024-12-29T15:19:42.718Z</time>
      </trkpt>
      <trkpt lat="49.932149201631546" lon="6.066902233287692">
        <ele>312.56</ele>
        <time>2024-12-29T15:19:46.442Z</time>
      </trkpt>
      <trkpt lat="49.93235698901117" lon="6.067164922133088">
        <ele>309.46</ele>
        <time>2024-12-29T15:19:50.202Z</time>
      </trkpt>
      <trkpt lat="49.932541977614164" lon="6.0673709493130445">
        <ele>306.42</ele>
        <time>2024-12-29T15:19:53.992Z</time>
      </trkpt>
      <trkpt lat="49.932629987597466" lon="6.067507993429899">
        <ele>303.38</ele>
        <time>2024-12-29T15:19:57.799Z</time>
      </trkpt>
      <trkpt lat="49.932766193524" lon="6.067775879055262">
        <ele>300.3</ele>
        <time>2024-12-29T15:20:01.635Z</time>
      </trkpt>
      <trkpt lat="49.93290198035538" lon="6.068042926490307">
        <ele>297.34</ele>
        <time>2024-12-29T15:20:05.501Z</time>
      </trkpt>
      <trkpt lat="49.93300465866923" lon="6.068254821002483">
        <ele>294.41</ele>
        <time>2024-12-29T15:20:09.390Z</time>
      </trkpt>
      <trkpt lat="49.933106917887926" lon="6.068465961143374">
        <ele>291.58</ele>
        <time>2024-12-29T15:20:13.301Z</time>
      </trkpt>
      <trkpt lat="49.93321395479143" lon="6.068666959181428">
        <ele>288.68</ele>
        <time>2024-12-29T15:20:17.235Z</time>
      </trkpt>
      <trkpt lat="49.93336499668658" lon="6.068929983302951">
        <ele>285.78</ele>
        <time>2024-12-29T15:20:21.199Z</time>
      </trkpt>
      <trkpt lat="49.93348594754934" lon="6.069128969684243">
        <ele>283.05</ele>
        <time>2024-12-29T15:20:25.187Z</time>
      </trkpt>
      <trkpt lat="49.93363196030259" lon="6.069353939965367">
        <ele>280.38</ele>
        <time>2024-12-29T15:20:29.202Z</time>
      </trkpt>
      <trkpt lat="49.933662973344326" lon="6.069368943572044">
        <ele>278.07</ele>
        <time>2024-12-29T15:20:33.221Z</time>
      </trkpt>
      <trkpt lat="49.93369499221444" lon="6.06935796327889">
        <ele>275.92</ele>
        <time>2024-12-29T15:20:37.245Z</time>
      </trkpt>
      <trkpt lat="49.93373296223581" lon="6.069275988265872">
        <ele>273.96</ele>
        <time>2024-12-29T15:20:41.277Z</time>
      </trkpt>
      <trkpt lat="49.93379993364215" lon="6.068889917805791">
        <ele>272.16</ele>
        <time>2024-12-29T15:20:45.344Z</time>
      </trkpt>
      <trkpt lat="49.93387193419039" lon="6.068656984716654">
        <ele>270.37</ele>
        <time>2024-12-29T15:20:49.433Z</time>
      </trkpt>
      <trkpt lat="49.9339649733156" lon="6.068459926173091">
        <ele>268.73</ele>
        <time>2024-12-29T15:20:53.543Z</time>
      </trkpt>
      <trkpt lat="49.9339649733156" lon="6.0684597585350275">
        <ele>267.22</ele>
        <time>2024-12-29T15:20:57.653Z</time>
      </trkpt>
      <trkpt lat="49.934072932228446" lon="6.068304944783449">
        <ele>265.74</ele>
        <time>2024-12-29T15:21:01.783Z</time>
      </trkpt>
      <trkpt lat="49.93416697718203" lon="6.068143928423524">
        <ele>264.48</ele>
        <time>2024-12-29T15:21:05.932Z</time>
      </trkpt>
      <trkpt lat="49.93428993970156" lon="6.067995987832546">
        <ele>263.2</ele>
        <time>2024-12-29T15:21:10.101Z</time>
      </trkpt>
      <trkpt lat="49.93446093052626" lon="6.067851986736059">
        <ele>262.07</ele>
        <time>2024-12-29T15:21:14.296Z</time>
      </trkpt>
      <trkpt lat="49.93454793468118" lon="6.067840922623873">
        <ele>261.07</ele>
        <time>2024-12-29T15:21:18.503Z</time>
      </trkpt>
      <trkpt lat="49.93461691774428" lon="6.067880988121033">
        <ele>260.26</ele>
        <time>2024-12-29T15:21:22.720Z</time>
      </trkpt>
      <trkpt lat="49.93466695770621" lon="6.067958939820528">
        <ele>259.59</ele>
        <time>2024-12-29T15:21:26.946Z</time>
      </trkpt>
      <trkpt lat="49.93469595909119" lon="6.068040998652577">
        <ele>259.02</ele>
        <time>2024-12-29T15:21:31.180Z</time>
      </trkpt>
      <trkpt lat="49.93470593355596" lon="6.0680709220469">
        <ele>258.58</ele>
        <time>2024-12-29T15:21:35.417Z</time>
      </trkpt>
      <trkpt lat="49.934713477268815" lon="6.0680922120809555">
        <ele>258.24</ele>
        <time>2024-12-29T15:21:39.656Z</time>
      </trkpt>
      <trkpt lat="49.93472194299102" lon="6.068115932866931">
        <ele>258.0</ele>
        <time>2024-12-29T15:21:43.898Z</time>
      </trkpt>
      <trkpt lat="49.934734934940934" lon="6.068151975050569">
        <ele>257.85</ele>
        <time>2024-12-29T15:21:48.143Z</time>
      </trkpt>
      <trkpt lat="49.93479494936764" lon="6.068103946745396">
        <ele>257.81</ele>
        <time>2024-12-29T15:21:52.397Z</time>
      </trkpt>
      <trkpt lat="49.93488195352256" lon="6.067973943427205">
        <ele>257.93</ele>
        <time>2024-12-29T15:21:56.667Z</time>
      </trkpt>
      <trkpt lat="49.93493593297899" lon="6.067872941493988">
        <ele>258.08</ele>
        <time>2024-12-29T15:22:00.949Z</time>
      </trkpt>
      <trkpt lat="49.93498094379902" lon="6.067732963711023">
        <ele>258.29</ele>
        <time>2024-12-29T15:22:05.244Z</time>
      </trkpt>
      <trkpt lat="49.935054117813706" lon="6.067450745031238">
        <ele>258.52</ele>
        <time>2024-12-29T15:22:09.565Z</time>
      </trkpt>
      <trkpt lat="49.93512695655227" lon="6.067169951274991">
        <ele>258.83</ele>
        <time>2024-12-29T15:22:13.912Z</time>
      </trkpt>
      <trkpt lat="49.93519996292889" lon="6.066735936328769">
        <ele>259.24</ele>
        <time>2024-12-29T15:22:18.298Z</time>
      </trkpt>
      <trkpt lat="49.93522091768682" lon="6.066550947725773">
        <ele>259.65</ele>
        <time>2024-12-29T15:22:22.700Z</time>
      </trkpt>
      <trkpt lat="49.93521898984909" lon="6.0663369577378035">
        <ele>260.15</ele>
        <time>2024-12-29T15:22:27.121Z</time>
      </trkpt>
      <trkpt lat="49.93513198569417" lon="6.065928926691413">
        <ele>260.88</ele>
        <time>2024-12-29T15:22:31.579Z</time>
      </trkpt>
      <trkpt lat="49.935144977644086" lon="6.06577193364501">
        <ele>261.71</ele>
        <time>2024-12-29T15:22:36.050Z</time>
      </trkpt>
      <trkpt lat="49.935204992070794" lon="6.065555932000279">
        <ele>262.56</ele>
        <time>2024-12-29T15:22:40.542Z</time>
      </trkpt>
      <trkpt lat="49.93533298373222" lon="6.065416960045695">
        <ele>263.19</ele>
        <time>2024-12-29T15:22:45.054Z</time>
      </trkpt>
      <trkpt lat="49.935505986213684" lon="6.065354933962226">
        <ele>263.92</ele>
        <time>2024-12-29T15:22:49.590Z</time>
      </trkpt>
      <trkpt lat="49.93558896705508" lon="6.065338924527168">
        <ele>264.74</ele>
        <time>2024-12-29T15:22:54.137Z</time>
      </trkpt>
      <trkpt lat="49.935636995360255" lon="6.065342947840691">
        <ele>265.56</ele>
        <time>2024-12-29T15:22:58.691Z</time>
      </trkpt>
      <trkpt lat="49.93572894483805" lon="6.065337918698788">
        <ele>266.42</ele>
        <time>2024-12-29T15:23:03.257Z</time>
      </trkpt>
      <trkpt lat="49.93598953820765" lon="6.065227445214987">
        <ele>267.3</ele>
        <time>2024-12-29T15:23:07.859Z</time>
      </trkpt>
      <trkpt lat="49.93624996393919" lon="6.065116971731186">
        <ele>268.19</ele>
        <time>2024-12-29T15:23:12.497Z</time>
      </trkpt>
      <trkpt lat="49.9363599345088" lon="6.065109930932522">
        <ele>269.16</ele>
        <time>2024-12-29T15:23:17.150Z</time>
      </trkpt>
      <trkpt lat="49.93659093976021" lon="6.0651329811662436">
        <ele>270.2</ele>
        <time>2024-12-29T15:23:21.834Z</time>
      </trkpt>
      <trkpt lat="49.93689000606537" lon="6.065106326714158">
        <ele>271.41</ele>
        <time>2024-12-29T15:23:26.558Z</time>
      </trkpt>
      <trkpt lat="49.9371889885515" lon="6.065079588443041">
        <ele>272.47</ele>
        <time>2024-12-29T15:23:31.322Z</time>
      </trkpt>
      <trkpt lat="49.937487971037626" lon="6.065052933990955">
        <ele>273.39</ele>
        <time>2024-12-29T15:23:36.126Z</time>
      </trkpt>
      <trkpt lat="49.93779198266566" lon="6.065028961747885">
        <ele>274.48</ele>
        <time>2024-12-29T15:23:40.970Z</time>
      </trkpt>
      <trkpt lat="49.93806146085262" lon="6.064961487427354">
        <ele>275.56</ele>
        <time>2024-12-29T15:23:45.851Z</time>
      </trkpt>
      <trkpt lat="49.93833093903959" lon="6.064893929287791">
        <ele>276.41</ele>
        <time>2024-12-29T15:23:50.768Z</time>
      </trkpt>
      <trkpt lat="49.93854752741754" lon="6.064814468845725">
        <ele>277.24</ele>
        <time>2024-12-29T15:23:55.715Z</time>
      </trkpt>
      <trkpt lat="49.93876394815743" lon="6.064734924584627">
        <ele>278.13</ele>
        <time>2024-12-29T15:24:00.692Z</time>
      </trkpt>
      <trkpt lat="49.93904298171401" lon="6.0645589884370565">
        <ele>278.92</ele>
        <time>2024-12-29T15:24:05.709Z</time>
      </trkpt>
      <trkpt lat="49.93924297392368" lon="6.064467960968614">
        <ele>279.67</ele>
        <time>2024-12-29T15:24:10.754Z</time>
      </trkpt>
      <trkpt lat="49.93948697112501" lon="6.06439596042037">
        <ele>280.55</ele>
        <time>2024-12-29T15:24:15.832Z</time>
      </trkpt>
      <trkpt lat="49.93973105214536" lon="6.064323959872127">
        <ele>281.4</ele>
        <time>2024-12-29T15:24:20.943Z</time>
      </trkpt>
      <trkpt lat="49.939974965527654" lon="6.064251959323883">
        <ele>282.39</ele>
        <time>2024-12-29T15:24:26.087Z</time>
      </trkpt>
      <trkpt lat="49.940211502835155" lon="6.064199488610029">
        <ele>283.27</ele>
        <time>2024-12-29T15:24:31.263Z</time>
      </trkpt>
      <trkpt lat="49.940447956323624" lon="6.064146934077144">
        <ele>284.18</ele>
        <time>2024-12-29T15:24:36.471Z</time>
      </trkpt>
      <trkpt lat="49.94070192798972" lon="6.064057918265462">
        <ele>284.88</ele>
        <time>2024-12-29T15:24:41.714Z</time>
      </trkpt>
      <trkpt lat="49.94076194241643" lon="6.064018942415714">
        <ele>285.75</ele>
        <time>2024-12-29T15:24:46.965Z</time>
      </trkpt>
      <trkpt lat="49.9409999884665" lon="6.063791960477829">
        <ele>286.69</ele>
        <time>2024-12-29T15:24:52.254Z</time>
      </trkpt>
      <trkpt lat="49.94114893488586" lon="6.063690958544612">
        <ele>287.71</ele>
        <time>2024-12-29T15:24:57.564Z</time>
      </trkpt>
      <trkpt lat="49.941308945417404" lon="6.063639409840107">
        <ele>288.76</ele>
        <time>2024-12-29T15:25:02.896Z</time>
      </trkpt>
      <trkpt lat="49.94146895594895" lon="6.063587944954634">
        <ele>289.74</ele>
        <time>2024-12-29T15:25:08.250Z</time>
      </trkpt>
      <trkpt lat="49.94172292761505" lon="6.0635629668831825">
        <ele>290.62</ele>
        <time>2024-12-29T15:25:13.638Z</time>
      </trkpt>
      <trkpt lat="49.94190297089517" lon="6.063589956611395">
        <ele>291.55</ele>
        <time>2024-12-29T15:25:19.050Z</time>
      </trkpt>
      <trkpt lat="49.94204596616328" lon="6.06370797380805">
        <ele>292.56</ele>
        <time>2024-12-29T15:25:24.484Z</time>
      </trkpt>
      <trkpt lat="49.94224545545876" lon="6.06391710229218">
        <ele>293.65</ele>
        <time>2024-12-29T15:25:29.950Z</time>
      </trkpt>
      <trkpt lat="49.94244494475424" lon="6.064126314595342">
        <ele>294.67</ele>
        <time>2024-12-29T15:25:35.448Z</time>
      </trkpt>
      <trkpt lat="49.942643931135535" lon="6.064334940165281">
        <ele>295.62</ele>
        <time>2024-12-29T15:25:40.978Z</time>
      </trkpt>
      <trkpt lat="49.942792039364576" lon="6.064447509124875">
        <ele>296.42</ele>
        <time>2024-12-29T15:25:46.530Z</time>
      </trkpt>
      <trkpt lat="49.942939979955554" lon="6.064559994265437">
        <ele>297.21</ele>
        <time>2024-12-29T15:25:52.104Z</time>
      </trkpt>
      <trkpt lat="49.94315296411514" lon="6.0646249540150166">
        <ele>297.89</ele>
        <time>2024-12-29T15:25:57.707Z</time>
      </trkpt>
      <trkpt lat="49.943369971588254" lon="6.064621936529875">
        <ele>298.49</ele>
        <time>2024-12-29T15:26:03.339Z</time>
      </trkpt>
      <trkpt lat="49.94351699016988" lon="6.0646729823201895">
        <ele>299.13</ele>
        <time>2024-12-29T15:26:08.991Z</time>
      </trkpt>
      <trkpt lat="49.94369996711612" lon="6.064820922911167">
        <ele>299.81</ele>
        <time>2024-12-29T15:26:14.671Z</time>
      </trkpt>
      <trkpt lat="49.94382192380726" lon="6.065037930384278">
        <ele>300.52</ele>
        <time>2024-12-29T15:26:20.375Z</time>
      </trkpt>
      <trkpt lat="49.94407396763563" lon="6.065327944234014">
        <ele>301.27</ele>
        <time>2024-12-29T15:26:26.121Z</time>
      </trkpt>
      <trkpt lat="49.944293992593884" lon="6.065439926460385">
        <ele>301.69</ele>
        <time>2024-12-29T15:26:31.898Z</time>
      </trkpt>
      <trkpt lat="49.94450395926833" lon="6.065437998622656">
        <ele>301.89</ele>
        <time>2024-12-29T15:26:37.703Z</time>
      </trkpt>
      <trkpt lat="49.944726917892694" lon="6.065327944234014">
        <ele>301.88</ele>
        <time>2024-12-29T15:26:43.539Z</time>
      </trkpt>
      <trkpt lat="49.94490251876414" lon="6.065267426893115">
        <ele>302.14</ele>
        <time>2024-12-29T15:26:49.399Z</time>
      </trkpt>
      <trkpt lat="49.94507795199752" lon="6.065206993371248">
        <ele>302.47</ele>
        <time>2024-12-29T15:26:55.283Z</time>
      </trkpt>
      <trkpt lat="49.945302587002516" lon="6.065068440511823">
        <ele>302.82</ele>
        <time>2024-12-29T15:27:01.200Z</time>
      </trkpt>
      <trkpt lat="49.94552697055042" lon="6.064929971471429">
        <ele>303.18</ele>
        <time>2024-12-29T15:27:07.149Z</time>
      </trkpt>
      <trkpt lat="49.94578898884356" lon="6.064763925969601">
        <ele>303.53</ele>
        <time>2024-12-29T15:27:13.136Z</time>
      </trkpt>
      <trkpt lat="49.946032986044884" lon="6.064580949023366">
        <ele>303.76</ele>
        <time>2024-12-29T15:27:19.159Z</time>
      </trkpt>
      <trkpt lat="49.946185955777764" lon="6.06441892683506">
        <ele>303.97</ele>
        <time>2024-12-29T15:27:25.207Z</time>
      </trkpt>
      <trkpt lat="49.94634898379445" lon="6.06411499902606">
        <ele>304.16</ele>
        <time>2024-12-29T15:27:31.289Z</time>
      </trkpt>
      <trkpt lat="49.94645099155605" lon="6.063733957707882">
        <ele>304.42</ele>
        <time>2024-12-29T15:27:37.406Z</time>
      </trkpt>
      <trkpt lat="49.94652491994202" lon="6.063608983531594">
        <ele>304.6</ele>
        <time>2024-12-29T15:27:43.538Z</time>
      </trkpt>
      <trkpt lat="49.94660798460245" lon="6.063560955226421">
        <ele>304.76</ele>
        <time>2024-12-29T15:27:49.682Z</time>
      </trkpt>
      <trkpt lat="49.94670999236405" lon="6.0634819976985455">
        <ele>304.87</ele>
        <time>2024-12-29T15:27:55.841Z</time>
      </trkpt>
      <trkpt lat="49.94674419052899" lon="6.063443189486861">
        <ele>305.05</ele>
        <time>2024-12-29T15:28:02.006Z</time>
      </trkpt>
      <trkpt lat="49.94695298373699" lon="6.063206987455487">
        <ele>305.17</ele>
        <time>2024-12-29T15:28:08.205Z</time>
      </trkpt>
      <trkpt lat="49.94716898538172" lon="6.06289098970592">
        <ele>305.31</ele>
        <time>2024-12-29T15:28:14.444Z</time>
      </trkpt>
      <trkpt lat="49.947280967608094" lon="6.0628019738942385">
        <ele>305.49</ele>
        <time>2024-12-29T15:28:20.699Z</time>
      </trkpt>
      <trkpt lat="49.94737492874265" lon="6.062788981944323">
        <ele>305.63</ele>
        <time>2024-12-29T15:28:26.967Z</time>
      </trkpt>
      <trkpt lat="49.947561929002404" lon="6.062856959179044">
        <ele>305.78</ele>
        <time>2024-12-29T15:28:33.261Z</time>
      </trkpt>
      <trkpt lat="49.94766594842076" lon="6.062946980819106">
        <ele>305.98</ele>
        <time>2024-12-29T15:28:39.571Z</time>
      </trkpt>
      <trkpt lat="49.94787197560072" lon="6.063186954706907">
        <ele>306.48</ele>
        <time>2024-12-29T15:28:45.915Z</time>
      </trkpt>
      <trkpt lat="49.94798496365547" lon="6.063260966911912">
        <ele>306.76</ele>
        <time>2024-12-29T15:28:52.275Z</time>
      </trkpt>
      <trkpt lat="49.94817498140037" lon="6.063321987167001">
        <ele>307.01</ele>
        <time>2024-12-29T15:28:58.661Z</time>
      </trkpt>
      <trkpt lat="49.94834999553859" lon="6.063493983820081">
        <ele>307.2</ele>
        <time>2024-12-29T15:29:05.075Z</time>
      </trkpt>
      <trkpt lat="49.94830699637532" lon="6.063503958284855">
        <ele>307.52</ele>
        <time>2024-12-29T15:29:11.495Z</time>
      </trkpt>
      <trkpt lat="49.94834999553859" lon="6.063493983820081">
        <ele>307.2</ele>
        <time>2024-12-29T15:29:17.921Z</time>
      </trkpt>
      <trkpt lat="49.94817498140037" lon="6.063321987167001">
        <ele>307.01</ele>
        <time>2024-12-29T15:29:24.374Z</time>
      </trkpt>
      <trkpt lat="49.94832895696163" lon="6.063356939703226">
        <ele>308.32</ele>
        <time>2024-12-29T15:29:30.848Z</time>
      </trkpt>
      <trkpt lat="49.9484049808234" lon="6.06340597383678">
        <ele>308.65</ele>
        <time>2024-12-29T15:29:37.333Z</time>
      </trkpt>
      <trkpt lat="49.948466923087835" lon="6.063493983820081">
        <ele>309.02</ele>
        <time>2024-12-29T15:29:43.829Z</time>
      </trkpt>
      <trkpt lat="49.94858921505511" lon="6.063741920515895">
        <ele>309.56</ele>
        <time>2024-12-29T15:29:50.352Z</time>
      </trkpt>
      <trkpt lat="49.94871092028916" lon="6.06398893520236">
        <ele>310.12</ele>
        <time>2024-12-29T15:29:56.902Z</time>
      </trkpt>
      <trkpt lat="49.9488487187773" lon="6.064234357327223">
        <ele>310.55</ele>
        <time>2024-12-29T15:30:03.480Z</time>
      </trkpt>
      <trkpt lat="49.94898593053222" lon="6.064478941261768">
        <ele>310.87</ele>
        <time>2024-12-29T15:30:10.086Z</time>
      </trkpt>
      <trkpt lat="49.94901694357395" lon="6.064627971500158">
        <ele>311.37</ele>
        <time>2024-12-29T15:30:16.705Z</time>
      </trkpt>
      <trkpt lat="49.949000934138894" lon="6.0647829528898">
        <ele>312.13</ele>
        <time>2024-12-29T15:30:23.338Z</time>
      </trkpt>
      <trkpt lat="49.948935974389315" lon="6.065130969509482">
        <ele>313.16</ele>
        <time>2024-12-29T15:30:30.002Z</time>
      </trkpt>
      <trkpt lat="49.94895592331886" lon="6.065367925912142">
        <ele>313.96</ele>
        <time>2024-12-29T15:30:36.687Z</time>
      </trkpt>
      <trkpt lat="49.949004957452416" lon="6.0654448717832565">
        <ele>314.54</ele>
        <time>2024-12-29T15:30:43.381Z</time>
      </trkpt>
      <trkpt lat="49.949046950787306" lon="6.065510921180248">
        <ele>315.19</ele>
        <time>2024-12-29T15:30:50.083Z</time>
      </trkpt>
      <trkpt lat="49.949279967695475" lon="6.065683923661709">
        <ele>315.67</ele>
        <time>2024-12-29T15:30:56.819Z</time>
      </trkpt>
      <trkpt lat="49.94936194270849" lon="6.065724994987249">
        <ele>316.35</ele>
        <time>2024-12-29T15:31:03.567Z</time>
      </trkpt>
      <trkpt lat="49.949518935754895" lon="6.065759947523475">
        <ele>317.04</ele>
        <time>2024-12-29T15:31:10.336Z</time>
      </trkpt>
      <trkpt lat="49.9496759288013" lon="6.065794983878732">
        <ele>317.82</ele>
        <time>2024-12-29T15:31:17.126Z</time>
      </trkpt>
      <trkpt lat="49.949861923232675" lon="6.065882993862033">
        <ele>318.78</ele>
        <time>2024-12-29T15:31:23.942Z</time>
      </trkpt>
      <trkpt lat="49.9500419665128" lon="6.065908977761865">
        <ele>319.61</ele>
        <time>2024-12-29T15:31:30.782Z</time>
      </trkpt>
      <trkpt lat="49.950207928195596" lon="6.065901936963201">
        <ele>320.4</ele>
        <time>2024-12-29T15:31:37.644Z</time>
      </trkpt>
      <trkpt lat="49.950373973697424" lon="6.065894979983568">
        <ele>321.18</ele>
        <time>2024-12-29T15:31:44.529Z</time>
      </trkpt>
      <trkpt lat="49.95058251544833" lon="6.0658059641718864">
        <ele>321.91</ele>
        <time>2024-12-29T15:31:51.442Z</time>
      </trkpt>
      <trkpt lat="49.95079097338021" lon="6.065716948360205">
        <ele>322.7</ele>
        <time>2024-12-29T15:31:58.384Z</time>
      </trkpt>
      <trkpt lat="49.9510039575398" lon="6.0655909683555365">
        <ele>323.46</ele>
        <time>2024-12-29T15:32:05.357Z</time>
      </trkpt>
      <trkpt lat="49.95121291838586" lon="6.065511927008629">
        <ele>324.28</ele>
        <time>2024-12-29T15:32:12.358Z</time>
      </trkpt>
      <trkpt lat="49.95139296166599" lon="6.065402962267399">
        <ele>325.01</ele>
        <time>2024-12-29T15:32:19.385Z</time>
      </trkpt>
      <trkpt lat="49.95152799412608" lon="6.065303971990943">
        <ele>325.65</ele>
        <time>2024-12-29T15:32:26.432Z</time>
      </trkpt>
      <trkpt lat="49.95165296830237" lon="6.065197940915823">
        <ele>326.28</ele>
        <time>2024-12-29T15:32:33.498Z</time>
      </trkpt>
      <trkpt lat="49.951770985499024" lon="6.065078917890787">
        <ele>326.86</ele>
        <time>2024-12-29T15:32:40.583Z</time>
      </trkpt>
      <trkpt lat="49.95179722085595" lon="6.06504094786942">
        <ele>327.36</ele>
        <time>2024-12-29T15:32:47.673Z</time>
      </trkpt>
      <trkpt lat="49.95179730467498" lon="6.06504094786942">
        <ele>327.82</ele>
        <time>2024-12-29T15:32:54.763Z</time>
      </trkpt>
      <trkpt lat="49.95193099603057" lon="6.064847996458411">
        <ele>328.26</ele>
        <time>2024-12-29T15:33:01.877Z</time>
      </trkpt>
      <trkpt lat="49.95205270126462" lon="6.064602490514517">
        <ele>328.58</ele>
        <time>2024-12-29T15:33:09.018Z</time>
      </trkpt>
      <trkpt lat="49.95217398740351" lon="6.064357990399003">
        <ele>328.86</ele>
        <time>2024-12-29T15:33:16.185Z</time>
      </trkpt>
      <trkpt lat="49.95231698267162" lon="6.0641799587756395">
        <ele>329.16</ele>
        <time>2024-12-29T15:33:23.377Z</time>
      </trkpt>
      <trkpt lat="49.952374985441566" lon="6.064132936298847">
        <ele>329.4</ele>
        <time>2024-12-29T15:33:30.578Z</time>
      </trkpt>
      <trkpt lat="49.95246894657612" lon="6.064099995419383">
        <ele>329.65</ele>
        <time>2024-12-29T15:33:37.791Z</time>
      </trkpt>
      <trkpt lat="49.95249291881919" lon="6.064091948792338">
        <ele>329.77</ele>
        <time>2024-12-29T15:33:45.008Z</time>
      </trkpt>
      <trkpt lat="49.952569948509336" lon="6.0640279948711395">
        <ele>329.8</ele>
        <time>2024-12-29T15:33:52.236Z</time>
      </trkpt>
      <trkpt lat="49.95260196737945" lon="6.063973931595683">
        <ele>329.79</ele>
        <time>2024-12-29T15:33:59.471Z</time>
      </trkpt>
      <trkpt lat="49.952629962936044" lon="6.063916934654117">
        <ele>329.71</ele>
        <time>2024-12-29T15:34:06.712Z</time>
      </trkpt>
      <trkpt lat="49.95266592130065" lon="6.063767988234758">
        <ele>329.51</ele>
        <time>2024-12-29T15:34:13.967Z</time>
      </trkpt>
      <trkpt lat="49.95272199623287" lon="6.063470933586359">
        <ele>329.22</ele>
        <time>2024-12-29T15:34:21.248Z</time>
      </trkpt>
      <trkpt lat="49.95275493711233" lon="6.063365992158651">
        <ele>329.05</ele>
        <time>2024-12-29T15:34:28.539Z</time>
      </trkpt>
      <trkpt lat="49.95281897485256" lon="6.063286950811744">
        <ele>328.83</ele>
        <time>2024-12-29T15:34:35.841Z</time>
      </trkpt>
      <trkpt lat="49.95291695930064" lon="6.063253926113248">
        <ele>328.58</ele>
        <time>2024-12-29T15:34:43.157Z</time>
      </trkpt>
      <trkpt lat="49.95298099704087" lon="6.063266918063164">
        <ele>328.3</ele>
        <time>2024-12-29T15:34:50.481Z</time>
      </trkpt>
      <trkpt lat="49.95315098203719" lon="6.063382923603058">
        <ele>328.07</ele>
        <time>2024-12-29T15:34:57.830Z</time>
      </trkpt>
      <trkpt lat="49.9532469548285" lon="6.063495995476842">
        <ele>327.72</ele>
        <time>2024-12-29T15:35:05.195Z</time>
      </trkpt>
      <trkpt lat="49.953294983133674" lon="6.063626920804381">
        <ele>327.3</ele>
        <time>2024-12-29T15:35:12.573Z</time>
      </trkpt>
      <trkpt lat="49.95337997563183" lon="6.063983989879489">
        <ele>327.01</ele>
        <time>2024-12-29T15:35:19.984Z</time>
      </trkpt>
      <trkpt lat="49.95343496091664" lon="6.064122961834073">
        <ele>326.57</ele>
        <time>2024-12-29T15:35:27.409Z</time>
      </trkpt>
      <trkpt lat="49.95349698700011" lon="6.064226981252432">
        <ele>325.99</ele>
        <time>2024-12-29T15:35:34.846Z</time>
      </trkpt>
      <trkpt lat="49.953708965331316" lon="6.0644729901105165">
        <ele>325.21</ele>
        <time>2024-12-29T15:35:42.318Z</time>
      </trkpt>
      <trkpt lat="49.95388003997505" lon="6.064616572111845">
        <ele>324.37</ele>
        <time>2024-12-29T15:35:49.816Z</time>
      </trkpt>
      <trkpt lat="49.954050946980715" lon="6.06475998647511">
        <ele>323.52</ele>
        <time>2024-12-29T15:35:57.340Z</time>
      </trkpt>
      <trkpt lat="49.954175921157" lon="6.064836932346225">
        <ele>322.71</ele>
        <time>2024-12-29T15:36:04.882Z</time>
      </trkpt>
      <trkpt lat="49.954244988039136" lon="6.064863922074437">
        <ele>321.94</ele>
        <time>2024-12-29T15:36:12.434Z</time>
      </trkpt>
      <trkpt lat="49.95431296527386" lon="6.064855959266424">
        <ele>321.2</ele>
        <time>2024-12-29T15:36:19.995Z</time>
      </trkpt>
      <trkpt lat="49.954395946115255" lon="6.064809942618012">
        <ele>320.52</ele>
        <time>2024-12-29T15:36:27.568Z</time>
      </trkpt>
      <trkpt lat="49.954430563375354" lon="6.064746240153909">
        <ele>319.88</ele>
        <time>2024-12-29T15:36:35.148Z</time>
      </trkpt>
      <trkpt lat="49.95445193722844" lon="6.064706929028034">
        <ele>319.29</ele>
        <time>2024-12-29T15:36:42.732Z</time>
      </trkpt>
      <trkpt lat="49.954478926956654" lon="6.064600981771946">
        <ele>318.73</ele>
        <time>2024-12-29T15:36:50.326Z</time>
      </trkpt>
      <trkpt lat="49.95444799773395" lon="6.0645669512450695">
        <ele>318.29</ele>
        <time>2024-12-29T15:36:57.925Z</time>
      </trkpt>
      <trkpt lat="49.95442310348153" lon="6.064540715888143">
        <ele>317.91</ele>
        <time>2024-12-29T15:37:05.528Z</time>
      </trkpt>
      <trkpt lat="49.954393934458494" lon="6.064509954303503">
        <ele>317.6</ele>
        <time>2024-12-29T15:37:13.136Z</time>
      </trkpt>
      <trkpt lat="49.95431891642511" lon="6.064423955976963">
        <ele>317.39</ele>
        <time>2024-12-29T15:37:20.756Z</time>
      </trkpt>
      <trkpt lat="49.954287987202406" lon="6.064177947118878">
        <ele>317.33</ele>
        <time>2024-12-29T15:37:28.398Z</time>
      </trkpt>
      <trkpt lat="49.9542919266969" lon="6.064039980992675">
        <ele>317.36</ele>
        <time>2024-12-29T15:37:36.052Z</time>
      </trkpt>
      <trkpt lat="49.95432092808187" lon="6.0639269929379225">
        <ele>317.44</ele>
        <time>2024-12-29T15:37:43.716Z</time>
      </trkpt>
      <trkpt lat="49.95442394167185" lon="6.063684923574328">
        <ele>317.75</ele>
        <time>2024-12-29T15:37:51.405Z</time>
      </trkpt>
      <trkpt lat="49.95438194833696" lon="6.063696993514895">
        <ele>317.97</ele>
        <time>2024-12-29T15:37:59.100Z</time>
      </trkpt>
      <trkpt lat="49.95434297248721" lon="6.063751978799701">
        <ele>318.26</ele>
        <time>2024-12-29T15:38:06.802Z</time>
      </trkpt>
      <trkpt lat="49.95429393835366" lon="6.06377293355763">
        <ele>318.68</ele>
        <time>2024-12-29T15:38:14.511Z</time>
      </trkpt>
      <trkpt lat="49.95418799109757" lon="6.063723983243108">
        <ele>319.26</ele>
        <time>2024-12-29T15:38:22.235Z</time>
      </trkpt>
      <trkpt lat="49.95415999554098" lon="6.06372993439436">
        <ele>319.94</ele>
        <time>2024-12-29T15:38:29.962Z</time>
      </trkpt>
      <trkpt lat="49.95415815152228" lon="6.063731862232089">
        <ele>320.75</ele>
        <time>2024-12-29T15:38:37.690Z</time>
      </trkpt>
      <trkpt lat="49.95408598333597" lon="6.063808975741267">
        <ele>321.65</ele>
        <time>2024-12-29T15:38:45.429Z</time>
      </trkpt>
      <trkpt lat="49.954051952809095" lon="6.063808975741267">
        <ele>322.7</ele>
        <time>2024-12-29T15:38:53.173Z</time>
      </trkpt>
      <trkpt lat="49.95401297695935" lon="6.063783997669816">
        <ele>323.89</ele>
        <time>2024-12-29T15:39:00.922Z</time>
      </trkpt>
      <trkpt lat="49.95398095808923" lon="6.06374996714294">
        <ele>325.2</ele>
        <time>2024-12-29T15:39:08.677Z</time>
      </trkpt>
      <trkpt lat="49.953942988067865" lon="6.0636639688164">
        <ele>326.63</ele>
        <time>2024-12-29T15:39:16.441Z</time>
      </trkpt>
      <trkpt lat="49.95388892479241" lon="6.0633859410882">
        <ele>328.23</ele>
        <time>2024-12-29T15:39:24.230Z</time>
      </trkpt>
      <trkpt lat="49.95386294089258" lon="6.063313940539956">
        <ele>329.91</ele>
        <time>2024-12-29T15:39:32.026Z</time>
      </trkpt>
      <trkpt lat="49.953730925917625" lon="6.062939940020442">
        <ele>331.83</ele>
        <time>2024-12-29T15:39:39.858Z</time>
      </trkpt>
      <trkpt lat="49.95367895811796" lon="6.06286995112896">
        <ele>333.75</ele>
        <time>2024-12-29T15:39:47.700Z</time>
      </trkpt>
      <trkpt lat="49.953595977276564" lon="6.0626729764044285">
        <ele>335.89</ele>
        <time>2024-12-29T15:39:55.562Z</time>
      </trkpt>
      <trkpt lat="49.95352992787957" lon="6.062556970864534">
        <ele>338.1</ele>
        <time>2024-12-29T15:40:03.437Z</time>
      </trkpt>
      <trkpt lat="49.95339497923851" lon="6.062390925362706">
        <ele>340.44</ele>
        <time>2024-12-29T15:40:11.335Z</time>
      </trkpt>
      <trkpt lat="49.95322692207992" lon="6.062243990600109">
        <ele>342.68</ele>
        <time>2024-12-29T15:40:19.259Z</time>
      </trkpt>
      <trkpt lat="49.953104965388775" lon="6.062160925939679">
        <ele>344.95</ele>
        <time>2024-12-29T15:40:27.201Z</time>
      </trkpt>
      <trkpt lat="49.95300597511232" lon="6.0621219500899315">
        <ele>347.21</ele>
        <time>2024-12-29T15:40:35.156Z</time>
      </trkpt>
      <trkpt lat="49.95286297984421" lon="6.062046932056546">
        <ele>349.52</ele>
        <time>2024-12-29T15:40:43.132Z</time>
      </trkpt>
      <trkpt lat="49.95274898596108" lon="6.061975937336683">
        <ele>351.77</ele>
        <time>2024-12-29T15:40:51.124Z</time>
      </trkpt>
      <trkpt lat="49.95266298763454" lon="6.061877952888608">
        <ele>354.05</ele>
        <time>2024-12-29T15:40:59.130Z</time>
      </trkpt>
      <trkpt lat="49.952588975429535" lon="6.0617579240351915">
        <ele>356.35</ele>
        <time>2024-12-29T15:41:07.150Z</time>
      </trkpt>
      <trkpt lat="49.95240977033973" lon="6.061515184119344">
        <ele>358.76</ele>
        <time>2024-12-29T15:41:15.202Z</time>
      </trkpt>
      <trkpt lat="49.95223098434508" lon="6.061272947117686">
        <ele>361.06</ele>
        <time>2024-12-29T15:41:23.286Z</time>
      </trkpt>
      <trkpt lat="49.95215152390301" lon="6.061209412291646">
        <ele>363.09</ele>
        <time>2024-12-29T15:41:31.382Z</time>
      </trkpt>
      <trkpt lat="49.95215093716979" lon="6.061208993196487">
        <ele>364.92</ele>
        <time>2024-12-29T15:41:39.478Z</time>
      </trkpt>
      <trkpt lat="49.95208195410669" lon="6.0612119268625975">
        <ele>366.68</ele>
        <time>2024-12-29T15:41:47.583Z</time>
      </trkpt>
      <trkpt lat="49.952031997963786" lon="6.061287950724363">
        <ele>368.35</ele>
        <time>2024-12-29T15:41:55.698Z</time>
      </trkpt>
      <trkpt lat="49.95196527801454" lon="6.061588693410158">
        <ele>369.84</ele>
        <time>2024-12-29T15:42:03.840Z</time>
      </trkpt>
      <trkpt lat="49.951898977160454" lon="6.061887927353382">
        <ele>371.23</ele>
        <time>2024-12-29T15:42:12.009Z</time>
      </trkpt>
      <trkpt lat="49.951795963570476" lon="6.062155980616808">
        <ele>372.54</ele>
        <time>2024-12-29T15:42:20.205Z</time>
      </trkpt>
      <trkpt lat="49.95173896662891" lon="6.06222596950829">
        <ele>373.78</ele>
        <time>2024-12-29T15:42:28.411Z</time>
      </trkpt>
      <trkpt lat="49.95167199522257" lon="6.062269974499941">
        <ele>374.96</ele>
        <time>2024-12-29T15:42:36.626Z</time>
      </trkpt>
      <trkpt lat="49.95163897052407" lon="6.06233099475503">
        <ele>375.96</ele>
        <time>2024-12-29T15:42:44.848Z</time>
      </trkpt>
      <trkpt lat="49.95156889781356" lon="6.062402995303273">
        <ele>376.92</ele>
        <time>2024-12-29T15:42:53.082Z</time>
      </trkpt>
      <trkpt lat="49.95156898163259" lon="6.062402995303273">
        <ele>377.65</ele>
        <time>2024-12-29T15:43:01.316Z</time>
      </trkpt>
      <trkpt lat="49.95156889781356" lon="6.062403079122305">
        <ele>378.29</ele>
        <time>2024-12-29T15:43:09.550Z</time>
      </trkpt>
      <trkpt lat="49.95138097554445" lon="6.062743971124291">
        <ele>378.81</ele>
        <time>2024-12-29T15:43:17.822Z</time>
      </trkpt>
      <trkpt lat="49.951190957799554" lon="6.063027950003743">
        <ele>379.21</ele>
        <time>2024-12-29T15:43:26.129Z</time>
      </trkpt>
      <trkpt lat="49.950976967811584" lon="6.063221991062164">
        <ele>379.63</ele>
        <time>2024-12-29T15:43:34.469Z</time>
      </trkpt>
      <trkpt lat="49.950934974476695" lon="6.063272953033447">
        <ele>379.92</ele>
        <time>2024-12-29T15:43:42.817Z</time>
      </trkpt>
      <trkpt lat="49.9509019497782" lon="6.063295919448137">
        <ele>380.16</ele>
        <time>2024-12-29T15:43:51.169Z</time>
      </trkpt>
      <trkpt lat="49.95086397975683" lon="6.063291979953647">
        <ele>380.39</ele>
        <time>2024-12-29T15:43:59.527Z</time>
      </trkpt>
      <trkpt lat="49.950655940920115" lon="6.063374960795045">
        <ele>380.58</ele>
        <time>2024-12-29T15:44:07.913Z</time>
      </trkpt>
      <trkpt lat="49.95058394037187" lon="6.063453918322921">
        <ele>380.59</ele>
        <time>2024-12-29T15:44:16.311Z</time>
      </trkpt>
      <trkpt lat="49.950422924011946" lon="6.063544945791364">
        <ele>380.5</ele>
        <time>2024-12-29T15:44:24.732Z</time>
      </trkpt>
      <trkpt lat="49.95036894455552" lon="6.063598925247788">
        <ele>380.48</ele>
        <time>2024-12-29T15:44:33.161Z</time>
      </trkpt>
      <trkpt lat="49.95033994317055" lon="6.063596997410059">
        <ele>380.56</ele>
        <time>2024-12-29T15:44:41.594Z</time>
      </trkpt>
      <trkpt lat="49.950291998684406" lon="6.063526924699545">
        <ele>380.73</ele>
        <time>2024-12-29T15:44:50.036Z</time>
      </trkpt>
      <trkpt lat="49.950201977044344" lon="6.063330955803394">
        <ele>381.04</ele>
        <time>2024-12-29T15:44:58.499Z</time>
      </trkpt>
      <trkpt lat="49.95015495456755" lon="6.063249986618757">
        <ele>381.26</ele>
        <time>2024-12-29T15:45:06.971Z</time>
      </trkpt>
      <trkpt lat="49.95013793930411" lon="6.063161976635456">
        <ele>381.56</ele>
        <time>2024-12-29T15:45:15.451Z</time>
      </trkpt>
      <trkpt lat="49.95010097511113" lon="6.063091987743974">
        <ele>381.82</ele>
        <time>2024-12-29T15:45:23.939Z</time>
      </trkpt>
      <trkpt lat="49.950073985382915" lon="6.063003977760673">
        <ele>382.14</ele>
        <time>2024-12-29T15:45:32.435Z</time>
      </trkpt>
      <trkpt lat="49.95004598982632" lon="6.062961984425783">
        <ele>382.39</ele>
        <time>2024-12-29T15:45:40.936Z</time>
      </trkpt>
      <trkpt lat="49.94999896734953" lon="6.062837932258844">
        <ele>382.76</ele>
        <time>2024-12-29T15:45:49.450Z</time>
      </trkpt>
      <trkpt lat="49.949946999549866" lon="6.062745982781053">
        <ele>383.08</ele>
        <time>2024-12-29T15:45:57.974Z</time>
      </trkpt>
      <trkpt lat="49.94991095736623" lon="6.062642969191074">
        <ele>383.45</ele>
        <time>2024-12-29T15:46:06.508Z</time>
      </trkpt>
      <trkpt lat="49.94979294016957" lon="6.062431996688247">
        <ele>383.81</ele>
        <time>2024-12-29T15:46:15.067Z</time>
      </trkpt>
      <trkpt lat="49.949623961001635" lon="6.062231920659542">
        <ele>384.06</ele>
        <time>2024-12-29T15:46:23.654Z</time>
      </trkpt>
      <trkpt lat="49.94959898293018" lon="6.062180958688259">
        <ele>384.31</ele>
        <time>2024-12-29T15:46:32.246Z</time>
      </trkpt>
      <trkpt lat="49.94953595101833" lon="6.062109963968396">
        <ele>384.51</ele>
        <time>2024-12-29T15:46:40.849Z</time>
      </trkpt>
      <trkpt lat="49.94946193881333" lon="6.061999993398786">
        <ele>384.74</ele>
        <time>2024-12-29T15:46:49.466Z</time>
      </trkpt>
      <trkpt lat="49.9493149202317" lon="6.0618719179183245">
        <ele>384.85</ele>
        <time>2024-12-29T15:46:58.105Z</time>
      </trkpt>
      <trkpt lat="49.94924694299698" lon="6.061786925420165">
        <ele>384.92</ele>
        <time>2024-12-29T15:47:06.756Z</time>
      </trkpt>
      <trkpt lat="49.94915993884206" lon="6.061727916821837">
        <ele>384.87</ele>
        <time>2024-12-29T15:47:15.419Z</time>
      </trkpt>
      <trkpt lat="49.94893094524741" lon="6.061487942934036">
        <ele>384.77</ele>
        <time>2024-12-29T15:47:24.119Z</time>
      </trkpt>
      <trkpt lat="49.94890294969082" lon="6.061440920457244">
        <ele>384.84</ele>
        <time>2024-12-29T15:47:32.825Z</time>
      </trkpt>
      <trkpt lat="49.94884494692087" lon="6.061389958485961">
        <ele>384.87</ele>
        <time>2024-12-29T15:47:41.540Z</time>
      </trkpt>
      <trkpt lat="49.9487208109349" lon="6.0612257570028305">
        <ele>384.99</ele>
        <time>2024-12-29T15:47:50.276Z</time>
      </trkpt>
      <trkpt lat="49.948596926406026" lon="6.061061974614859">
        <ele>385.19</ele>
        <time>2024-12-29T15:47:59.034Z</time>
      </trkpt>
      <trkpt lat="49.948505982756615" lon="6.060897940769792">
        <ele>385.39</ele>
        <time>2024-12-29T15:48:07.811Z</time>
      </trkpt>
      <trkpt lat="49.94837296195328" lon="6.060807919129729">
        <ele>385.47</ele>
        <time>2024-12-29T15:48:16.607Z</time>
      </trkpt>
      <trkpt lat="49.94827992282808" lon="6.060830969363451">
        <ele>385.45</ele>
        <time>2024-12-29T15:48:25.416Z</time>
      </trkpt>
      <trkpt lat="49.94816794060171" lon="6.060918979346752">
        <ele>385.25</ele>
        <time>2024-12-29T15:48:34.242Z</time>
      </trkpt>
      <trkpt lat="49.94808294810355" lon="6.0610399302095175">
        <ele>385.14</ele>
        <time>2024-12-29T15:48:43.083Z</time>
      </trkpt>
      <trkpt lat="49.94799896143377" lon="6.061111930757761">
        <ele>385.18</ele>
        <time>2024-12-29T15:48:51.937Z</time>
      </trkpt>
      <trkpt lat="49.94779192842543" lon="6.061385935172439">
        <ele>384.74</ele>
        <time>2024-12-29T15:49:00.827Z</time>
      </trkpt>
      <trkpt lat="49.94776099920273" lon="6.06138895265758">
        <ele>385.08</ele>
        <time>2024-12-29T15:49:09.721Z</time>
      </trkpt>
      <trkpt lat="49.94772596284747" lon="6.061362968757749">
        <ele>385.55</ele>
        <time>2024-12-29T15:49:18.620Z</time>
      </trkpt>
      <trkpt lat="49.947650944814086" lon="6.061234977096319">
        <ele>386.25</ele>
        <time>2024-12-29T15:49:27.534Z</time>
      </trkpt>
      <trkpt lat="49.94756997562945" lon="6.06085192412138">
        <ele>387.41</ele>
        <time>2024-12-29T15:49:36.483Z</time>
      </trkpt>
      <trkpt lat="49.94746981188655" lon="6.060646567493677">
        <ele>388.28</ele>
        <time>2024-12-29T15:49:45.454Z</time>
      </trkpt>
      <trkpt lat="49.947369983419776" lon="6.06044196523726">
        <ele>389.16</ele>
        <time>2024-12-29T15:49:54.447Z</time>
      </trkpt>
      <trkpt lat="49.94731097482145" lon="6.060256976634264">
        <ele>390.13</ele>
        <time>2024-12-29T15:50:03.458Z</time>
      </trkpt>
      <trkpt lat="49.94719999842346" lon="6.060000993311405">
        <ele>391.22</ele>
        <time>2024-12-29T15:50:12.496Z</time>
      </trkpt>
      <trkpt lat="49.94714291766286" lon="6.0598209500312805">
        <ele>392.2</ele>
        <time>2024-12-29T15:50:21.551Z</time>
      </trkpt>
      <trkpt lat="49.947108970955014" lon="6.05975397862494">
        <ele>392.95</ele>
        <time>2024-12-29T15:50:30.613Z</time>
      </trkpt>
      <trkpt lat="49.9470769520849" lon="6.059718942269683">
        <ele>393.61</ele>
        <time>2024-12-29T15:50:39.680Z</time>
      </trkpt>
      <trkpt lat="49.94707410223782" lon="6.059718439355493">
        <ele>394.16</ele>
        <time>2024-12-29T15:50:48.748Z</time>
      </trkpt>
      <trkpt lat="49.94703797623515" lon="6.0597119852900505">
        <ele>394.67</ele>
        <time>2024-12-29T15:50:57.821Z</time>
      </trkpt>
      <trkpt lat="49.94697695598006" lon="6.05973394587636">
        <ele>395.08</ele>
        <time>2024-12-29T15:51:06.902Z</time>
      </trkpt>
      <trkpt lat="49.94680135510862" lon="6.059899069368839">
        <ele>395.33</ele>
        <time>2024-12-29T15:51:16.010Z</time>
      </trkpt>
      <trkpt lat="49.94662592187524" lon="6.060063941404223">
        <ele>395.52</ele>
        <time>2024-12-29T15:51:25.146Z</time>
      </trkpt>
      <trkpt lat="49.94648292660713" lon="6.060173995792866">
        <ele>395.71</ele>
        <time>2024-12-29T15:51:34.303Z</time>
      </trkpt>
      <trkpt lat="49.94645593687892" lon="6.060217916965485">
        <ele>395.76</ele>
        <time>2024-12-29T15:51:43.465Z</time>
      </trkpt>
      <trkpt lat="49.946424923837185" lon="6.060225963592529">
        <ele>395.82</ele>
        <time>2024-12-29T15:51:52.632Z</time>
      </trkpt>
      <trkpt lat="49.94633196853101" lon="6.060295952484012">
        <ele>395.79</ele>
        <time>2024-12-29T15:52:01.812Z</time>
      </trkpt>
      <trkpt lat="49.946247981861234" lon="6.060411958023906">
        <ele>395.71</ele>
        <time>2024-12-29T15:52:11.007Z</time>
      </trkpt>
      <trkpt lat="49.94619995355606" lon="6.060574986040592">
        <ele>395.41</ele>
        <time>2024-12-29T15:52:20.218Z</time>
      </trkpt>
      <trkpt lat="49.94617598131299" lon="6.060634916648269">
        <ele>395.17</ele>
        <time>2024-12-29T15:52:29.435Z</time>
      </trkpt>
      <trkpt lat="49.94599794968963" lon="6.060855947434902">
        <ele>394.65</ele>
        <time>2024-12-29T15:52:38.682Z</time>
      </trkpt>
      <trkpt lat="49.9459629971534" lon="6.060863994061947">
        <ele>394.45</ele>
        <time>2024-12-29T15:52:47.934Z</time>
      </trkpt>
      <trkpt lat="49.945907928049564" lon="6.060837926343083">
        <ele>394.23</ele>
        <time>2024-12-29T15:52:57.194Z</time>
      </trkpt>
      <trkpt lat="49.94584891945124" lon="6.060775984078646">
        <ele>394.06</ele>
        <time>2024-12-29T15:53:06.463Z</time>
      </trkpt>
      <trkpt lat="49.94572998024523" lon="6.060535926371813">
        <ele>394.04</ele>
        <time>2024-12-29T15:53:15.758Z</time>
      </trkpt>
      <trkpt lat="49.945649933069944" lon="6.06033593416214">
        <ele>394.04</ele>
        <time>2024-12-29T15:53:25.074Z</time>
      </trkpt>
      <trkpt lat="49.94553795084357" lon="6.060090931132436">
        <ele>394.0</ele>
        <time>2024-12-29T15:53:34.415Z</time>
      </trkpt>
      <trkpt lat="49.94546494446695" lon="6.059903930872679">
        <ele>393.99</ele>
        <time>2024-12-29T15:53:43.775Z</time>
      </trkpt>
      <trkpt lat="49.94540895335376" lon="6.059713996946812">
        <ele>394.02</ele>
        <time>2024-12-29T15:53:53.153Z</time>
      </trkpt>
      <trkpt lat="49.94534030556679" lon="6.059451811015606">
        <ele>394.12</ele>
        <time>2024-12-29T15:54:02.556Z</time>
      </trkpt>
      <trkpt lat="49.94527199305594" lon="6.059190966188908">
        <ele>394.32</ele>
        <time>2024-12-29T15:54:11.983Z</time>
      </trkpt>
      <trkpt lat="49.94513092562556" lon="6.0587669257074594">
        <ele>394.45</ele>
        <time>2024-12-29T15:54:21.451Z</time>
      </trkpt>
      <trkpt lat="49.94508096948266" lon="6.058444976806641">
        <ele>394.85</ele>
        <time>2024-12-29T15:54:30.948Z</time>
      </trkpt>
      <trkpt lat="49.94505741633475" lon="6.0581466648727655">
        <ele>395.37</ele>
        <time>2024-12-29T15:54:40.470Z</time>
      </trkpt>
      <trkpt lat="49.94503394700587" lon="6.057849945500493">
        <ele>395.85</ele>
        <time>2024-12-29T15:54:50.018Z</time>
      </trkpt>
      <trkpt lat="49.9450599309057" lon="6.057591950520873">
        <ele>396.57</ele>
        <time>2024-12-29T15:54:59.589Z</time>
      </trkpt>
      <trkpt lat="49.945105109363794" lon="6.057348791509867">
        <ele>397.45</ele>
        <time>2024-12-29T15:55:09.181Z</time>
      </trkpt>
      <trkpt lat="49.94514995254576" lon="6.057106973603368">
        <ele>398.3</ele>
        <time>2024-12-29T15:55:18.795Z</time>
      </trkpt>
      <trkpt lat="49.94517493061721" lon="6.056914944201708">
        <ele>399.13</ele>
        <time>2024-12-29T15:55:28.426Z</time>
      </trkpt>
      <trkpt lat="49.945155987516046" lon="6.056805979460478">
        <ele>399.83</ele>
        <time>2024-12-29T15:55:38.067Z</time>
      </trkpt>
      <trkpt lat="49.94510695338249" lon="6.056739930063486">
        <ele>400.52</ele>
        <time>2024-12-29T15:55:47.716Z</time>
      </trkpt>
      <trkpt lat="49.94503998197615" lon="6.056714951992035">
        <ele>401.16</ele>
        <time>2024-12-29T15:55:57.375Z</time>
      </trkpt>
      <trkpt lat="49.94488592259586" lon="6.056718975305557">
        <ele>401.67</ele>
        <time>2024-12-29T15:56:07.054Z</time>
      </trkpt>
      <trkpt lat="49.944810988381505" lon="6.056709922850132">
        <ele>402.33</ele>
        <time>2024-12-29T15:56:16.743Z</time>
      </trkpt>
      <trkpt lat="49.94471099227667" lon="6.056627947837114">
        <ele>403.0</ele>
        <time>2024-12-29T15:56:26.447Z</time>
      </trkpt>
      <trkpt lat="49.944639997556806" lon="6.05651093646884">
        <ele>403.78</ele>
        <time>2024-12-29T15:56:36.165Z</time>
      </trkpt>
      <trkpt lat="49.94456497952342" lon="6.056266939267516">
        <ele>404.75</ele>
        <time>2024-12-29T15:56:45.906Z</time>
      </trkpt>
      <trkpt lat="49.94452499784529" lon="6.0562049970030785">
        <ele>405.64</ele>
        <time>2024-12-29T15:56:55.655Z</time>
      </trkpt>
      <trkpt lat="49.94441796094179" lon="6.056132996454835">
        <ele>406.46</ele>
        <time>2024-12-29T15:57:05.419Z</time>
      </trkpt>
      <trkpt lat="49.94435098953545" lon="6.05605898424983">
        <ele>407.34</ele>
        <time>2024-12-29T15:57:15.194Z</time>
      </trkpt>
      <trkpt lat="49.944299943745136" lon="6.055956976488233">
        <ele>408.28</ele>
        <time>2024-12-29T15:57:24.981Z</time>
      </trkpt>
      <trkpt lat="49.94423179887235" lon="6.055712895467877">
        <ele>409.46</ele>
        <time>2024-12-29T15:57:34.790Z</time>
      </trkpt>
      <trkpt lat="49.944163989275694" lon="6.055469987913966">
        <ele>410.59</ele>
        <time>2024-12-29T15:57:44.622Z</time>
      </trkpt>
      <trkpt lat="49.94411797262728" lon="6.055357921868563">
        <ele>411.48</ele>
        <time>2024-12-29T15:57:54.466Z</time>
      </trkpt>
      <trkpt lat="49.94403691962361" lon="6.055256919935346">
        <ele>412.29</ele>
        <time>2024-12-29T15:58:04.324Z</time>
      </trkpt>
      <trkpt lat="49.94393692351878" lon="6.055267984047532">
        <ele>412.79</ele>
        <time>2024-12-29T15:58:14.195Z</time>
      </trkpt>
      <trkpt lat="49.943667948246" lon="6.0553759429603815">
        <ele>412.86</ele>
        <time>2024-12-29T15:58:24.103Z</time>
      </trkpt>
      <trkpt lat="49.943629978224635" lon="6.055374937132001">
        <ele>413.32</ele>
        <time>2024-12-29T15:58:34.016Z</time>
      </trkpt>
      <trkpt lat="49.94353199377656" lon="6.055321963503957">
        <ele>413.78</ele>
        <time>2024-12-29T15:58:43.943Z</time>
      </trkpt>
      <trkpt lat="49.94343291968107" lon="6.0552899446338415">
        <ele>414.14</ele>
        <time>2024-12-29T15:58:53.884Z</time>
      </trkpt>
      <trkpt lat="49.94323099963367" lon="6.05528793297708">
        <ele>414.3</ele>
        <time>2024-12-29T15:59:03.851Z</time>
      </trkpt>
      <trkpt lat="49.94312295690179" lon="6.055207969620824">
        <ele>414.54</ele>
        <time>2024-12-29T15:59:13.834Z</time>
      </trkpt>
      <trkpt lat="49.943072916939855" lon="6.055182991549373">
        <ele>414.67</ele>
        <time>2024-12-29T15:59:23.824Z</time>
      </trkpt>
      <trkpt lat="49.94291139766574" lon="6.05507193133235">
        <ele>414.74</ele>
        <time>2024-12-29T15:59:33.838Z</time>
      </trkpt>
      <trkpt lat="49.942749962210655" lon="6.054960954934359">
        <ele>414.69</ele>
        <time>2024-12-29T15:59:43.876Z</time>
      </trkpt>
      <trkpt lat="49.94253194890916" lon="6.054755933582783">
        <ele>414.66</ele>
        <time>2024-12-29T15:59:53.948Z</time>
      </trkpt>
      <trkpt lat="49.94238291867077" lon="6.054492993280292">
        <ele>414.71</ele>
        <time>2024-12-29T16:00:04.050Z</time>
      </trkpt>
      <trkpt lat="49.94224595837295" lon="6.054228963330388">
        <ele>414.83</ele>
        <time>2024-12-29T16:00:14.181Z</time>
      </trkpt>
      <trkpt lat="49.94222894310951" lon="6.054136930033565">
        <ele>414.67</ele>
        <time>2024-12-29T16:00:24.320Z</time>
      </trkpt>
      <trkpt lat="49.942212933674455" lon="6.054114969447255">
        <ele>414.37</ele>
        <time>2024-12-29T16:00:34.462Z</time>
      </trkpt>
      <trkpt lat="49.94217999279499" lon="6.054115975275636">
        <ele>414.0</ele>
        <time>2024-12-29T16:00:44.608Z</time>
      </trkpt>
      <trkpt lat="49.94213397614658" lon="6.054173978045583">
        <ele>413.54</ele>
        <time>2024-12-29T16:00:54.762Z</time>
      </trkpt>
      <trkpt lat="49.94208896532655" lon="6.054283948615193">
        <ele>412.99</ele>
        <time>2024-12-29T16:01:04.928Z</time>
      </trkpt>
      <trkpt lat="49.94204395450652" lon="6.054461980238557">
        <ele>412.33</ele>
        <time>2024-12-29T16:01:15.110Z</time>
      </trkpt>
      <trkpt lat="49.94201092980802" lon="6.054521994665265">
        <ele>411.7</ele>
        <time>2024-12-29T16:01:25.299Z</time>
      </trkpt>
      <trkpt lat="49.94200699031353" lon="6.05461997911334">
        <ele>411.02</ele>
        <time>2024-12-29T16:01:35.496Z</time>
      </trkpt>
      <trkpt lat="49.942055102437735" lon="6.054950812831521">
        <ele>410.18</ele>
        <time>2024-12-29T16:01:45.723Z</time>
      </trkpt>
      <trkpt lat="49.94210321456194" lon="6.055281730368733">
        <ele>409.27</ele>
        <time>2024-12-29T16:01:55.979Z</time>
      </trkpt>
      <trkpt lat="49.94215099141002" lon="6.055609965696931">
        <ele>408.41</ele>
        <time>2024-12-29T16:02:06.264Z</time>
      </trkpt>
      <trkpt lat="49.94215291924775" lon="6.05576092377305">
        <ele>407.74</ele>
        <time>2024-12-29T16:02:16.562Z</time>
      </trkpt>
      <trkpt lat="49.94213095866144" lon="6.055819932371378">
        <ele>407.19</ele>
        <time>2024-12-29T16:02:26.866Z</time>
      </trkpt>
      <trkpt lat="49.94207798503339" lon="6.055853962898254">
        <ele>406.73</ele>
        <time>2024-12-29T16:02:37.177Z</time>
      </trkpt>
      <trkpt lat="49.941928954795" lon="6.056026965379715">
        <ele>406.51</ele>
        <time>2024-12-29T16:02:47.513Z</time>
      </trkpt>
      <trkpt lat="49.941928954795" lon="6.056093936786056">
        <ele>406.17</ele>
        <time>2024-12-29T16:02:57.855Z</time>
      </trkpt>
      <trkpt lat="49.94202693924308" lon="6.05633893981576">
        <ele>405.81</ele>
        <time>2024-12-29T16:03:08.222Z</time>
      </trkpt>
      <trkpt lat="49.942145962268114" lon="6.056524934247136">
        <ele>405.61</ele>
        <time>2024-12-29T16:03:18.611Z</time>
      </trkpt>
      <trkpt lat="49.942268589511514" lon="6.056700702756643">
        <ele>405.55</ele>
        <time>2024-12-29T16:03:29.023Z</time>
      </trkpt>
      <trkpt lat="49.94239096529782" lon="6.05687596835196">
        <ele>405.62</ele>
        <time>2024-12-29T16:03:39.457Z</time>
      </trkpt>
      <trkpt lat="49.942466989159584" lon="6.057017957791686">
        <ele>405.85</ele>
        <time>2024-12-29T16:03:49.907Z</time>
      </trkpt>
      <trkpt lat="49.94254594668746" lon="6.057205963879824">
        <ele>406.21</ele>
        <time>2024-12-29T16:04:00.376Z</time>
      </trkpt>
      <trkpt lat="49.942511999979615" lon="6.057229936122894">
        <ele>406.74</ele>
        <time>2024-12-29T16:04:10.850Z</time>
      </trkpt>
      <trkpt lat="49.94250395335257" lon="6.057297997176647">
        <ele>407.38</ele>
        <time>2024-12-29T16:04:21.330Z</time>
      </trkpt>
      <trkpt lat="49.942511999979615" lon="6.0575679782778025">
        <ele>408.2</ele>
        <time>2024-12-29T16:04:31.833Z</time>
      </trkpt>
      <trkpt lat="49.942474868148565" lon="6.057980116456747">
        <ele>409.2</ele>
        <time>2024-12-29T16:04:42.372Z</time>
      </trkpt>
      <trkpt lat="49.94243798777461" lon="6.058389991521835">
        <ele>410.18</ele>
        <time>2024-12-29T16:04:52.947Z</time>
      </trkpt>
      <trkpt lat="49.942388869822025" lon="6.058641616255045">
        <ele>411.39</ele>
        <time>2024-12-29T16:05:03.544Z</time>
      </trkpt>
      <trkpt lat="49.9423399195075" lon="6.058891983702779">
        <ele>412.63</ele>
        <time>2024-12-29T16:05:14.164Z</time>
      </trkpt>
      <trkpt lat="49.942244701087475" lon="6.059320047497749">
        <ele>413.89</ele>
        <time>2024-12-29T16:05:24.823Z</time>
      </trkpt>
      <trkpt lat="49.942149985581636" lon="6.059745931997895">
        <ele>415.2</ele>
        <time>2024-12-29T16:05:35.521Z</time>
      </trkpt>
      <trkpt lat="49.94207195006311" lon="6.0599499475210905">
        <ele>416.64</ele>
        <time>2024-12-29T16:05:46.239Z</time>
      </trkpt>
      <trkpt lat="49.94200196117163" lon="6.060036951676011">
        <ele>418.13</ele>
        <time>2024-12-29T16:05:56.969Z</time>
      </trkpt>
      <trkpt lat="49.941913951188326" lon="6.0600559785962105">
        <ele>419.76</ele>
        <time>2024-12-29T16:06:07.711Z</time>
      </trkpt>
      <trkpt lat="49.94181999005377" lon="6.059989929199219">
        <ele>421.54</ele>
        <time>2024-12-29T16:06:18.467Z</time>
      </trkpt>
      <trkpt lat="49.941674983128905" lon="6.059815920889378">
        <ele>423.39</ele>
        <time>2024-12-29T16:06:29.247Z</time>
      </trkpt>
      <trkpt lat="49.94160499423742" lon="6.059695975854993">
        <ele>425.23</ele>
        <time>2024-12-29T16:06:40.041Z</time>
      </trkpt>
      <trkpt lat="49.94145596399903" lon="6.059353994205594">
        <ele>427.2</ele>
        <time>2024-12-29T16:06:50.871Z</time>
      </trkpt>
      <trkpt lat="49.941310957074165" lon="6.058942945674062">
        <ele>429.29</ele>
        <time>2024-12-29T16:07:01.741Z</time>
      </trkpt>
      <trkpt lat="49.941193694248796" lon="6.058656368404627">
        <ele>431.37</ele>
        <time>2024-12-29T16:07:12.640Z</time>
      </trkpt>
      <trkpt lat="49.941076934337616" lon="6.058370964601636">
        <ele>433.49</ele>
        <time>2024-12-29T16:07:23.568Z</time>
      </trkpt>
      <trkpt lat="49.940989930182695" lon="6.058192932978272">
        <ele>435.52</ele>
        <time>2024-12-29T16:07:34.516Z</time>
      </trkpt>
      <trkpt lat="49.94091499596834" lon="6.058087991550565">
        <ele>437.48</ele>
        <time>2024-12-29T16:07:45.477Z</time>
      </trkpt>
      <trkpt lat="49.9408289976418" lon="6.057991934940219">
        <ele>439.42</ele>
        <time>2024-12-29T16:07:56.452Z</time>
      </trkpt>
      <trkpt lat="49.94059128686786" lon="6.057811891660094">
        <ele>441.45</ele>
        <time>2024-12-29T16:08:07.463Z</time>
      </trkpt>
      <trkpt lat="49.94035399518907" lon="6.057631932199001">
        <ele>443.43</ele>
        <time>2024-12-29T16:08:18.509Z</time>
      </trkpt>
      <trkpt lat="49.94024997577071" lon="6.057532941922545">
        <ele>445.18</ele>
        <time>2024-12-29T16:08:29.571Z</time>
      </trkpt>
      <trkpt lat="49.94016095995903" lon="6.057349964976311">
        <ele>446.83</ele>
        <time>2024-12-29T16:08:40.653Z</time>
      </trkpt>
      <trkpt lat="49.94009398855269" lon="6.057114936411381">
        <ele>448.4</ele>
        <time>2024-12-29T16:08:51.757Z</time>
      </trkpt>
      <trkpt lat="49.94009499438107" lon="6.057115942239761">
        <ele>449.79</ele>
        <time>2024-12-29T16:09:02.861Z</time>
      </trkpt>
      <trkpt lat="49.94009398855269" lon="6.057114936411381">
        <ele>448.4</ele>
        <time>2024-12-29T16:09:13.965Z</time>
      </trkpt>
      <trkpt lat="49.93997194804251" lon="6.056681927293539">
        <ele>452.28</ele>
        <time>2024-12-29T16:09:25.110Z</time>
      </trkpt>
      <trkpt lat="49.93981797248125" lon="6.056334916502237">
        <ele>453.37</ele>
        <time>2024-12-29T16:09:36.291Z</time>
      </trkpt>
      <trkpt lat="49.939700374379754" lon="6.055971477180719">
        <ele>454.25</ele>
        <time>2024-12-29T16:09:47.507Z</time>
      </trkpt>
      <trkpt lat="49.93958277627826" lon="6.05560795404017">
        <ele>455.01</ele>
        <time>2024-12-29T16:09:58.758Z</time>
      </trkpt>
      <trkpt lat="49.939465932548046" lon="6.0552469454705715">
        <ele>455.61</ele>
        <time>2024-12-29T16:10:10.044Z</time>
      </trkpt>
      <trkpt lat="49.93930717930198" lon="6.054870681837201">
        <ele>456.05</ele>
        <time>2024-12-29T16:10:21.369Z</time>
      </trkpt>
      <trkpt lat="49.93922905996442" lon="6.054685777053237">
        <ele>456.37</ele>
        <time>2024-12-29T16:10:32.713Z</time>
      </trkpt>
      <trkpt lat="49.9391489289701" lon="6.054495926946402">
        <ele>456.53</ele>
        <time>2024-12-29T16:10:44.076Z</time>
      </trkpt>
      <trkpt lat="49.9390107113868" lon="6.054187389090657">
        <ele>456.51</ele>
        <time>2024-12-29T16:10:55.472Z</time>
      </trkpt>
      <trkpt lat="49.93887299671769" lon="6.053879940882325">
        <ele>456.39</ele>
        <time>2024-12-29T16:11:06.900Z</time>
      </trkpt>
      <trkpt lat="49.939028983935714" lon="6.05376192368567">
        <ele>456.16</ele>
        <time>2024-12-29T16:11:18.351Z</time>
      </trkpt>
      <trkpt lat="49.939284045249224" lon="6.053608870133758">
        <ele>455.8</ele>
        <time>2024-12-29T16:11:29.839Z</time>
      </trkpt>
      <trkpt lat="49.939539190381765" lon="6.053455816581845">
        <ele>455.31</ele>
        <time>2024-12-29T16:11:41.363Z</time>
      </trkpt>
      <trkpt lat="49.93979391641915" lon="6.053302930667996">
        <ele>454.63</ele>
        <time>2024-12-29T16:11:52.924Z</time>
      </trkpt>
      <trkpt lat="49.940045373514295" lon="6.05312624014914">
        <ele>453.76</ele>
        <time>2024-12-29T16:12:04.522Z</time>
      </trkpt>
      <trkpt lat="49.94029683060944" lon="6.052949465811253">
        <ele>452.78</ele>
        <time>2024-12-29T16:12:16.156Z</time>
      </trkpt>
      <trkpt lat="49.94054795242846" lon="6.05277294293046">
        <ele>451.77</ele>
        <time>2024-12-29T16:12:27.827Z</time>
      </trkpt>
      <trkpt lat="49.940533954650164" lon="6.052659954875708">
        <ele>450.74</ele>
        <time>2024-12-29T16:12:39.508Z</time>
      </trkpt>
      <trkpt lat="49.94048793800175" lon="6.052456945180893">
        <ele>449.58</ele>
        <time>2024-12-29T16:12:51.208Z</time>
      </trkpt>
      <trkpt lat="49.940361957997084" lon="6.052054949104786">
        <ele>448.3</ele>
        <time>2024-12-29T16:13:02.946Z</time>
      </trkpt>
      <trkpt lat="49.94021460413933" lon="6.051644068211317">
        <ele>446.93</ele>
        <time>2024-12-29T16:13:14.725Z</time>
      </trkpt>
      <trkpt lat="49.940067920833826" lon="6.051234947517514">
        <ele>445.47</ele>
        <time>2024-12-29T16:13:26.544Z</time>
      </trkpt>
      <trkpt lat="49.93997781537473" lon="6.051020035520196">
        <ele>443.95</ele>
        <time>2024-12-29T16:13:38.385Z</time>
      </trkpt>
      <trkpt lat="49.93988796137273" lon="6.050805961713195">
        <ele>442.34</ele>
        <time>2024-12-29T16:13:50.248Z</time>
      </trkpt>
      <trkpt lat="49.939722921699286" lon="6.050491975620389">
        <ele>440.66</ele>
        <time>2024-12-29T16:14:02.146Z</time>
      </trkpt>
      <trkpt lat="49.93970791809261" lon="6.050461968407035">
        <ele>438.94</ele>
        <time>2024-12-29T16:14:14.047Z</time>
      </trkpt>
      <trkpt lat="49.93953198194504" lon="6.050190981477499">
        <ele>437.12</ele>
        <time>2024-12-29T16:14:25.981Z</time>
      </trkpt>
      <trkpt lat="49.939483953639865" lon="6.050067935138941">
        <ele>435.22</ele>
        <time>2024-12-29T16:14:37.928Z</time>
      </trkpt>
      <trkpt lat="49.93945495225489" lon="6.049905996769667">
        <ele>433.25</ele>
        <time>2024-12-29T16:14:49.889Z</time>
      </trkpt>
      <trkpt lat="49.939439948648214" lon="6.049687983468175">
        <ele>431.15</ele>
        <time>2024-12-29T16:15:01.869Z</time>
      </trkpt>
      <trkpt lat="49.93943299166858" lon="6.04944197461009">
        <ele>429.0</ele>
        <time>2024-12-29T16:15:13.870Z</time>
      </trkpt>
      <trkpt lat="49.93940097279847" lon="6.0491809621453285">
        <ele>426.73</ele>
        <time>2024-12-29T16:15:25.894Z</time>
      </trkpt>
      <trkpt lat="49.9393939319998" lon="6.0489229671657085">
        <ele>424.41</ele>
        <time>2024-12-29T16:15:37.940Z</time>
      </trkpt>
      <trkpt lat="49.939342802390456" lon="6.048609651625156">
        <ele>422.01</ele>
        <time>2024-12-29T16:15:50.014Z</time>
      </trkpt>
      <trkpt lat="49.939291924238205" lon="6.048297928646207">
        <ele>419.61</ele>
        <time>2024-12-29T16:16:02.116Z</time>
      </trkpt>
      <trkpt lat="49.939243979752064" lon="6.048070946708322">
        <ele>417.15</ele>
        <time>2024-12-29T16:16:14.239Z</time>
      </trkpt>
      <trkpt lat="49.939226964488626" lon="6.04802593588829">
        <ele>414.81</ele>
        <time>2024-12-29T16:16:26.366Z</time>
      </trkpt>
      <trkpt lat="49.93910995312035" lon="6.047728965058923">
        <ele>412.22</ele>
        <time>2024-12-29T16:16:38.523Z</time>
      </trkpt>
      <trkpt lat="49.93906795978546" lon="6.047546993941069">
        <ele>409.86</ele>
        <time>2024-12-29T16:16:50.697Z</time>
      </trkpt>
      <trkpt lat="49.939011968672276" lon="6.047350941225886">
        <ele>407.5</ele>
        <time>2024-12-29T16:17:02.889Z</time>
      </trkpt>
      <trkpt lat="49.93895899504423" lon="6.047086995095015">
        <ele>405.05</ele>
        <time>2024-12-29T16:17:15.105Z</time>
      </trkpt>
      <trkpt lat="49.93893192149699" lon="6.046892954036593">
        <ele>402.74</ele>
        <time>2024-12-29T16:17:27.338Z</time>
      </trkpt>
      <trkpt lat="49.938882971182466" lon="6.046724980697036">
        <ele>400.45</ele>
        <time>2024-12-29T16:17:39.587Z</time>
      </trkpt>
      <trkpt lat="49.9388119764626" lon="6.0463919676840305">
        <ele>398.21</ele>
        <time>2024-12-29T16:17:51.866Z</time>
      </trkpt>
      <trkpt lat="49.93876495398581" lon="6.046231957152486">
        <ele>396.01</ele>
        <time>2024-12-29T16:18:04.160Z</time>
      </trkpt>
      <trkpt lat="49.93869898840785" lon="6.046068929135799">
        <ele>393.8</ele>
        <time>2024-12-29T16:18:16.471Z</time>
      </trkpt>
      <trkpt lat="49.93865992873907" lon="6.04594093747437">
        <ele>391.58</ele>
        <time>2024-12-29T16:18:28.794Z</time>
      </trkpt>
      <trkpt lat="49.93861491791904" lon="6.045736921951175">
        <ele>389.26</ele>
        <time>2024-12-29T16:18:41.136Z</time>
      </trkpt>
      <trkpt lat="49.93856999091804" lon="6.045488985255361">
        <ele>386.89</ele>
        <time>2024-12-29T16:18:53.500Z</time>
      </trkpt>
      <trkpt lat="49.93848592042923" lon="6.045312965288758">
        <ele>384.54</ele>
        <time>2024-12-29T16:19:05.883Z</time>
      </trkpt>
      <trkpt lat="49.9384858366102" lon="6.045312797650695">
        <ele>382.43</ele>
        <time>2024-12-29T16:19:18.266Z</time>
      </trkpt>
      <trkpt lat="49.9384858366102" lon="6.045312630012631">
        <ele>380.35</ele>
        <time>2024-12-29T16:19:30.649Z</time>
      </trkpt>
      <trkpt lat="49.93844895623624" lon="6.045154966413975">
        <ele>378.14</ele>
        <time>2024-12-29T16:19:43.046Z</time>
      </trkpt>
      <trkpt lat="49.938413919880986" lon="6.045091934502125">
        <ele>376.02</ele>
        <time>2024-12-29T16:19:55.450Z</time>
      </trkpt>
      <trkpt lat="49.9383629579097" lon="6.04484592564404">
        <ele>373.72</ele>
        <time>2024-12-29T16:20:07.877Z</time>
      </trkpt>
      <trkpt lat="49.93833596818149" lon="6.044794963672757">
        <ele>371.72</ele>
        <time>2024-12-29T16:20:20.309Z</time>
      </trkpt>
      <trkpt lat="49.9383079726249" lon="6.04467392899096">
        <ele>369.69</ele>
        <time>2024-12-29T16:20:32.752Z</time>
      </trkpt>
      <trkpt lat="49.93824896402657" lon="6.044538980349898">
        <ele>367.66</ele>
        <time>2024-12-29T16:20:45.209Z</time>
      </trkpt>
      <trkpt lat="49.938218956813216" lon="6.044385926797986">
        <ele>365.69</ele>
        <time>2024-12-29T16:20:57.680Z</time>
      </trkpt>
      <trkpt lat="49.93818794377148" lon="6.044318955391645">
        <ele>363.91</ele>
        <time>2024-12-29T16:21:10.158Z</time>
      </trkpt>
      <trkpt lat="49.93818299844861" lon="6.044266987591982">
        <ele>362.29</ele>
        <time>2024-12-29T16:21:22.641Z</time>
      </trkpt>
      <trkpt lat="49.938172940164804" lon="6.044256929308176">
        <ele>360.79</ele>
        <time>2024-12-29T16:21:35.125Z</time>
      </trkpt>
      <trkpt lat="49.93815693072975" lon="6.044273944571614">
        <ele>359.37</ele>
        <time>2024-12-29T16:21:47.612Z</time>
      </trkpt>
      <trkpt lat="49.93814192712307" lon="6.044307975098491">
        <ele>358.05</ele>
        <time>2024-12-29T16:22:00.102Z</time>
      </trkpt>
      <trkpt lat="49.93809297680855" lon="6.044340999796987">
        <ele>356.76</ele>
        <time>2024-12-29T16:22:12.600Z</time>
      </trkpt>
      <trkpt lat="49.938068920746446" lon="6.044386932626367">
        <ele>355.58</ele>
        <time>2024-12-29T16:22:25.103Z</time>
      </trkpt>
      <trkpt lat="49.93804092518985" lon="6.044481983408332">
        <ele>354.5</ele>
        <time>2024-12-29T16:22:37.615Z</time>
      </trkpt>
      <trkpt lat="49.938021982088685" lon="6.0445059556514025">
        <ele>353.33</ele>
        <time>2024-12-29T16:22:50.130Z</time>
      </trkpt>
      <trkpt lat="49.938003960996866" lon="6.0444859229028225">
        <ele>352.18</ele>
        <time>2024-12-29T16:23:02.648Z</time>
      </trkpt>
      <trkpt lat="49.937981916591525" lon="6.044387938454747">
        <ele>351.01</ele>
        <time>2024-12-29T16:23:15.175Z</time>
      </trkpt>
      <trkpt lat="49.937977977097034" lon="6.044279979541898">
        <ele>349.8</ele>
        <time>2024-12-29T16:23:27.711Z</time>
      </trkpt>
      <trkpt lat="49.93795392103493" lon="6.0441819950938225">
        <ele>348.61</ele>
        <time>2024-12-29T16:23:40.256Z</time>
      </trkpt>
      <trkpt lat="49.937939923256636" lon="6.044163974002004">
        <ele>347.54</ele>
        <time>2024-12-29T16:23:52.804Z</time>
      </trkpt>
      <trkpt lat="49.93792592547834" lon="6.0441779717803">
        <ele>346.51</ele>
        <time>2024-12-29T16:24:05.354Z</time>
      </trkpt>
      <trkpt lat="49.937870940193534" lon="6.044272938743234">
        <ele>345.49</ele>
        <time>2024-12-29T16:24:17.915Z</time>
      </trkpt>
      <trkpt lat="49.93786197155714" lon="6.044274950399995">
        <ele>344.43</ele>
        <time>2024-12-29T16:24:30.477Z</time>
      </trkpt>
      <trkpt lat="49.937853924930096" lon="6.044260952621698">
        <ele>343.33</ele>
        <time>2024-12-29T16:24:43.041Z</time>
      </trkpt>
      <trkpt lat="49.93786197155714" lon="6.044144947081804">
        <ele>342.11</ele>
        <time>2024-12-29T16:24:55.615Z</time>
      </trkpt>
      <trkpt lat="49.93787999264896" lon="6.044076969847083">
        <ele>340.95</ele>
        <time>2024-12-29T16:25:08.195Z</time>
      </trkpt>
      <trkpt lat="49.93788192048669" lon="6.044044950976968">
        <ele>339.76</ele>
        <time>2024-12-29T16:25:20.778Z</time>
      </trkpt>
      <trkpt lat="49.93782098405063" lon="6.044085938483477">
        <ele>338.46</ele>
        <time>2024-12-29T16:25:33.370Z</time>
      </trkpt>
      <trkpt lat="49.93779399432242" lon="6.044122986495495">
        <ele>337.21</ele>
        <time>2024-12-29T16:25:45.967Z</time>
      </trkpt>
      <trkpt lat="49.93777999654412" lon="6.0441189631819725">
        <ele>335.89</ele>
        <time>2024-12-29T16:25:58.565Z</time>
      </trkpt>
      <trkpt lat="49.9377759732306" lon="6.043981919065118">
        <ele>334.41</ele>
        <time>2024-12-29T16:26:11.175Z</time>
      </trkpt>
      <trkpt lat="49.93780195713043" lon="6.043905979022384">
        <ele>333.04</ele>
        <time>2024-12-29T16:26:23.793Z</time>
      </trkpt>
      <trkpt lat="49.93775996379554" lon="6.043842947110534">
        <ele>331.46</ele>
        <time>2024-12-29T16:26:36.418Z</time>
      </trkpt>
      <trkpt lat="49.937743954360485" lon="6.043758960440755">
        <ele>329.89</ele>
        <time>2024-12-29T16:26:49.051Z</time>
      </trkpt>
      <trkpt lat="49.93772794492543" lon="6.043728953227401">
        <ele>328.34</ele>
        <time>2024-12-29T16:27:01.687Z</time>
      </trkpt>
      <trkpt lat="49.937699949368834" lon="6.043721996247768">
        <ele>326.74</ele>
        <time>2024-12-29T16:27:14.327Z</time>
      </trkpt>
      <trkpt lat="49.937655944377184" lon="6.043753931298852">
        <ele>325.1</ele>
        <time>2024-12-29T16:27:26.974Z</time>
      </trkpt>
      <trkpt lat="49.937637923285365" lon="6.0437599662691355">
        <ele>323.46</ele>
        <time>2024-12-29T16:27:39.623Z</time>
      </trkpt>
      <trkpt lat="49.93762895464897" lon="6.04374697431922">
        <ele>321.81</ele>
        <time>2024-12-29T16:27:52.274Z</time>
      </trkpt>
      <trkpt lat="49.93762593716383" lon="6.043721996247768">
        <ele>320.13</ele>
        <time>2024-12-29T16:28:04.927Z</time>
      </trkpt>
      <trkpt lat="49.937639934942126" lon="6.043437933549285">
        <ele>318.24</ele>
        <time>2024-12-29T16:28:17.604Z</time>
      </trkpt>
      <trkpt lat="49.93762794882059" lon="6.043419996276498">
        <ele>316.51</ele>
        <time>2024-12-29T16:28:30.284Z</time>
      </trkpt>
      <trkpt lat="49.937590984627604" lon="6.04344698600471">
        <ele>314.79</ele>
        <time>2024-12-29T16:28:42.969Z</time>
      </trkpt>
      <trkpt lat="49.93757497519255" lon="6.04344698600471">
        <ele>313.05</ele>
        <time>2024-12-29T16:28:55.656Z</time>
      </trkpt>
      <trkpt lat="49.93756097741425" lon="6.043420918285847">
        <ele>311.29</ele>
        <time>2024-12-29T16:29:08.346Z</time>
      </trkpt>
      <trkpt lat="49.93756097741425" lon="6.043290998786688">
        <ele>309.42</ele>
        <time>2024-12-29T16:29:21.047Z</time>
      </trkpt>
      <trkpt lat="49.93757497519255" lon="6.043123947456479">
        <ele>307.51</ele>
        <time>2024-12-29T16:29:33.763Z</time>
      </trkpt>
      <trkpt lat="49.9375669285655" lon="6.043074997141957">
        <ele>305.77</ele>
        <time>2024-12-29T16:29:46.483Z</time>
      </trkpt>
      <trkpt lat="49.937546979635954" lon="6.043065944686532">
        <ele>304.08</ele>
        <time>2024-12-29T16:29:59.206Z</time>
      </trkpt>
      <trkpt lat="49.93745595216751" lon="6.043135933578014">
        <ele>302.47</ele>
        <time>2024-12-29T16:30:11.943Z</time>
      </trkpt>
      <trkpt lat="49.937400966882706" lon="6.04318899102509">
        <ele>300.95</ele>
        <time>2024-12-29T16:30:24.688Z</time>
      </trkpt>
      <trkpt lat="49.93739493191242" lon="6.043177926912904">
        <ele>299.44</ele>
        <time>2024-12-29T16:30:37.434Z</time>
      </trkpt>
      <trkpt lat="49.93739292025566" lon="6.0429709777235985">
        <ele>297.65</ele>
        <time>2024-12-29T16:30:50.198Z</time>
      </trkpt>
      <trkpt lat="49.93734799325466" lon="6.043017916381359">
        <ele>296.32</ele>
        <time>2024-12-29T16:31:02.970Z</time>
      </trkpt>
      <trkpt lat="49.93730398826301" lon="6.043103998526931">
        <ele>295.18</ele>
        <time>2024-12-29T16:31:15.751Z</time>
      </trkpt>
      <trkpt lat="49.9372439738363" lon="6.043131994083524">
        <ele>293.98</ele>
        <time>2024-12-29T16:31:28.540Z</time>
      </trkpt>
      <trkpt lat="49.93721396662295" lon="6.0431659407913685">
        <ele>292.89</ele>
        <time>2024-12-29T16:31:41.334Z</time>
      </trkpt>
      <trkpt lat="49.93718999437988" lon="6.042968966066837">
        <ele>291.59</ele>
        <time>2024-12-29T16:31:54.146Z</time>
      </trkpt>
      <trkpt lat="49.93722394108772" lon="6.042788922786713">
        <ele>290.47</ele>
        <time>2024-12-29T16:32:06.974Z</time>
      </trkpt>
      <trkpt lat="49.93723299354315" lon="6.0426729172468185">
        <ele>289.51</ele>
        <time>2024-12-29T16:32:19.812Z</time>
      </trkpt>
      <trkpt lat="49.93727993220091" lon="6.042521959170699">
        <ele>288.65</ele>
        <time>2024-12-29T16:32:32.664Z</time>
      </trkpt>
      <trkpt lat="49.93729694746435" lon="6.042493963614106">
        <ele>288.11</ele>
        <time>2024-12-29T16:32:45.520Z</time>
      </trkpt>
      <trkpt lat="49.93731698021293" lon="6.042490946128964">
        <ele>287.75</ele>
        <time>2024-12-29T16:32:58.378Z</time>
      </trkpt>
      <trkpt lat="49.937338940799236" lon="6.042501926422119">
        <ele>287.53</ele>
        <time>2024-12-29T16:33:11.239Z</time>
      </trkpt>
      <trkpt lat="49.93736794218421" lon="6.0425439197570086">
        <ele>287.51</ele>
        <time>2024-12-29T16:33:24.106Z</time>
      </trkpt>
      <trkpt lat="49.93739694356918" lon="6.04256596416235">
        <ele>287.57</ele>
        <time>2024-12-29T16:33:36.977Z</time>
      </trkpt>
      <trkpt lat="49.937418987974524" lon="6.0425639525055885">
        <ele>287.68</ele>
        <time>2024-12-29T16:33:49.851Z</time>
      </trkpt>
      <trkpt lat="49.9374479893595" lon="6.042579961940646">
        <ele>287.92</ele>
        <time>2024-12-29T16:34:02.729Z</time>
      </trkpt>
      <trkpt lat="49.93748093023896" lon="6.042580967769027">
        <ele>288.21</ele>
        <time>2024-12-29T16:34:15.611Z</time>
      </trkpt>
      <trkpt lat="49.937505992129445" lon="6.042572921141982">
        <ele>288.54</ele>
        <time>2024-12-29T16:34:28.497Z</time>
      </trkpt>
      <trkpt lat="49.93754597380757" lon="6.042516930028796">
        <ele>288.79</ele>
        <time>2024-12-29T16:34:41.390Z</time>
      </trkpt>
      <trkpt lat="49.93760196492076" lon="6.0425489488989115">
        <ele>289.28</ele>
        <time>2024-12-29T16:34:54.291Z</time>
      </trkpt>
      <trkpt lat="49.93766197934747" lon="6.042622961103916">
        <ele>289.84</ele>
        <time>2024-12-29T16:35:07.202Z</time>
      </trkpt>
      <trkpt lat="49.937743954360485" lon="6.04275899939239">
        <ele>290.53</ele>
        <time>2024-12-29T16:35:20.129Z</time>
      </trkpt>
      <trkpt lat="49.937787959352136" lon="6.042793951928616">
        <ele>290.95</ele>
        <time>2024-12-29T16:35:33.063Z</time>
      </trkpt>
      <trkpt lat="49.93782492354512" lon="6.04284692555666">
        <ele>291.38</ele>
        <time>2024-12-29T16:35:46.004Z</time>
      </trkpt>
      <trkpt lat="49.9378639832139" lon="6.042870981618762">
        <ele>291.67</ele>
        <time>2024-12-29T16:35:58.950Z</time>
      </trkpt>
      <trkpt lat="49.93790195323527" lon="6.042863940820098">
        <ele>291.8</ele>
        <time>2024-12-29T16:36:11.901Z</time>
      </trkpt>
      <trkpt lat="49.937933972105384" lon="6.042875926941633">
        <ele>291.89</ele>
        <time>2024-12-29T16:36:24.857Z</time>
      </trkpt>
      <trkpt lat="49.938001949340105" lon="6.042862934991717">
        <ele>291.78</ele>
        <time>2024-12-29T16:36:37.822Z</time>
      </trkpt>
      <trkpt lat="49.938068920746446" lon="6.042939964681864">
        <ele>291.83</ele>
        <time>2024-12-29T16:36:50.798Z</time>
      </trkpt>
      <trkpt lat="49.9380989279598" lon="6.042949939146638">
        <ele>291.66</ele>
        <time>2024-12-29T16:37:03.778Z</time>
      </trkpt>
      <trkpt lat="49.93812591768801" lon="6.04290995746851">
        <ele>291.24</ele>
        <time>2024-12-29T16:37:16.763Z</time>
      </trkpt>
      <trkpt lat="49.93815399706364" lon="6.042862934991717">
        <ele>290.72</ele>
        <time>2024-12-29T16:37:29.754Z</time>
      </trkpt>
      <trkpt lat="49.93819096125662" lon="6.042834939435124">
        <ele>290.14</ele>
        <time>2024-12-29T16:37:42.750Z</time>
      </trkpt>
      <trkpt lat="49.93822893127799" lon="6.042837956920266">
        <ele>289.59</ele>
        <time>2024-12-29T16:37:55.751Z</time>
      </trkpt>
      <trkpt lat="49.938321970403194" lon="6.042921943590045">
        <ele>289.14</ele>
        <time>2024-12-29T16:38:08.766Z</time>
      </trkpt>
      <trkpt lat="49.9383579287678" lon="6.042974917218089">
        <ele>288.6</ele>
        <time>2024-12-29T16:38:21.788Z</time>
      </trkpt>
      <trkpt lat="49.93839397095144" lon="6.042986987158656">
        <ele>287.86</ele>
        <time>2024-12-29T16:38:34.815Z</time>
      </trkpt>
      <trkpt lat="49.938432946801186" lon="6.042960919439793">
        <ele>286.92</ele>
        <time>2024-12-29T16:38:47.848Z</time>
      </trkpt>
      <trkpt lat="49.93848198093474" lon="6.042954968288541">
        <ele>286.0</ele>
        <time>2024-12-29T16:39:00.887Z</time>
      </trkpt>
      <trkpt lat="49.93852699175477" lon="6.042969971895218">
        <ele>285.14</ele>
        <time>2024-12-29T16:39:13.932Z</time>
      </trkpt>
      <trkpt lat="49.93865892291069" lon="6.04291096329689">
        <ele>284.02</ele>
        <time>2024-12-29T16:39:26.996Z</time>
      </trkpt>
      <trkpt lat="49.93876595981419" lon="6.04284692555666">
        <ele>282.91</ele>
        <time>2024-12-29T16:39:40.075Z</time>
      </trkpt>
      <trkpt lat="49.93890794925392" lon="6.04267593473196">
        <ele>281.61</ele>
        <time>2024-12-29T16:39:53.178Z</time>
      </trkpt>
      <trkpt lat="49.93896092288196" lon="6.042639976367354">
        <ele>280.66</ele>
        <time>2024-12-29T16:40:06.289Z</time>
      </trkpt>
      <trkpt lat="49.93903895840049" lon="6.042481977492571">
        <ele>279.54</ele>
        <time>2024-12-29T16:40:19.417Z</time>
      </trkpt>
      <trkpt lat="49.93910995312035" lon="6.042215935885906">
        <ele>278.5</ele>
        <time>2024-12-29T16:40:32.570Z</time>
      </trkpt>
      <trkpt lat="49.93916695006192" lon="6.042088950052857">
        <ele>277.75</ele>
        <time>2024-12-29T16:40:45.736Z</time>
      </trkpt>
      <trkpt lat="49.939227970317006" lon="6.042022984474897">
        <ele>277.13</ele>
        <time>2024-12-29T16:40:58.912Z</time>
      </trkpt>
      <trkpt lat="49.9392609950155" lon="6.0420129261910915">
        <ele>276.61</ele>
        <time>2024-12-29T16:41:12.092Z</time>
      </trkpt>
      <trkpt lat="49.93927792645991" lon="6.042046956717968">
        <ele>276.16</ele>
        <time>2024-12-29T16:41:25.276Z</time>
      </trkpt>
      <trkpt lat="49.939311956986785" lon="6.042213924229145">
        <ele>275.92</ele>
        <time>2024-12-29T16:41:38.475Z</time>
      </trkpt>
      <trkpt lat="49.93936694227159" lon="6.0422479547560215">
        <ele>275.69</ele>
        <time>2024-12-29T16:41:51.682Z</time>
      </trkpt>
      <trkpt lat="49.93941002525389" lon="6.042217193171382">
        <ele>275.48</ele>
        <time>2024-12-29T16:42:04.895Z</time>
      </trkpt>
      <trkpt lat="49.93942997418344" lon="6.04220294393599">
        <ele>275.32</ele>
        <time>2024-12-29T16:42:18.111Z</time>
      </trkpt>
      <trkpt lat="49.93948898278177" lon="6.042121974751353">
        <ele>275.22</ele>
        <time>2024-12-29T16:42:31.338Z</time>
      </trkpt>
      <trkpt lat="49.939525946974754" lon="6.0419039614498615">
        <ele>275.15</ele>
        <time>2024-12-29T16:42:44.584Z</time>
      </trkpt>
      <trkpt lat="49.93964295834303" lon="6.041460977867246">
        <ele>275.31</ele>
        <time>2024-12-29T16:42:57.872Z</time>
      </trkpt>
      <trkpt lat="49.939679922536016" lon="6.041171969845891">
        <ele>275.42</ele>
        <time>2024-12-29T16:43:11.185Z</time>
      </trkpt>
      <trkpt lat="49.93968294002116" lon="6.040857983753085">
        <ele>275.39</ele>
        <time>2024-12-29T16:43:24.525Z</time>
      </trkpt>
      <trkpt lat="49.93972493335605" lon="6.040607951581478">
        <ele>275.45</ele>
        <time>2024-12-29T16:43:37.887Z</time>
      </trkpt>
      <trkpt lat="49.93979064747691" lon="6.040379460901022">
        <ele>275.51</ele>
        <time>2024-12-29T16:43:51.271Z</time>
      </trkpt>
      <trkpt lat="49.93985594250262" lon="6.040151976048946">
        <ele>275.65</ele>
        <time>2024-12-29T16:44:04.676Z</time>
      </trkpt>
      <trkpt lat="49.93990195915103" lon="6.039792979136109">
        <ele>275.78</ele>
        <time>2024-12-29T16:44:18.113Z</time>
      </trkpt>
      <trkpt lat="49.939981922507286" lon="6.039441945031285">
        <ele>275.88</ele>
        <time>2024-12-29T16:44:31.582Z</time>
      </trkpt>
      <trkpt lat="49.94000698439777" lon="6.039397940039635">
        <ele>275.96</ele>
        <time>2024-12-29T16:44:45.056Z</time>
      </trkpt>
      <trkpt lat="49.940130952745676" lon="6.03927799500525">
        <ele>276.13</ele>
        <time>2024-12-29T16:44:58.549Z</time>
      </trkpt>
      <trkpt lat="49.9402039591223" lon="6.039190990850329">
        <ele>276.19</ele>
        <time>2024-12-29T16:45:12.055Z</time>
      </trkpt>
      <trkpt lat="49.94020496495068" lon="6.039149165153503">
        <ele>276.15</ele>
        <time>2024-12-29T16:45:25.564Z</time>
      </trkpt>
      <trkpt lat="49.94020597077906" lon="6.039109937846661">
        <ele>276.07</ele>
        <time>2024-12-29T16:45:39.077Z</time>
      </trkpt>
      <trkpt lat="49.94019499048591" lon="6.039055958390236">
        <ele>275.94</ele>
        <time>2024-12-29T16:45:52.595Z</time>
      </trkpt>
      <trkpt lat="49.94015593081713" lon="6.03899996727705">
        <ele>275.73</ele>
        <time>2024-12-29T16:46:06.120Z</time>
      </trkpt>
      <trkpt lat="49.94008996523917" lon="6.039001978933811">
        <ele>275.47</ele>
        <time>2024-12-29T16:46:19.653Z</time>
      </trkpt>
      <trkpt lat="49.940040931105614" lon="6.0389859694987535">
        <ele>275.21</ele>
        <time>2024-12-29T16:46:33.193Z</time>
      </trkpt>
      <trkpt lat="49.94001695886254" lon="6.038957973942161">
        <ele>274.96</ele>
        <time>2024-12-29T16:46:46.737Z</time>
      </trkpt>
      <trkpt lat="49.94001092389226" lon="6.038900977000594">
        <ele>274.71</ele>
        <time>2024-12-29T16:47:00.286Z</time>
      </trkpt>
      <trkpt lat="49.94003992527723" lon="6.038814978674054">
        <ele>274.5</ele>
        <time>2024-12-29T16:47:13.844Z</time>
      </trkpt>
      <trkpt lat="49.94006699882448" lon="6.038601994514465">
        <ele>274.16</ele>
        <time>2024-12-29T16:47:27.420Z</time>
      </trkpt>
      <trkpt lat="49.94007093831897" lon="6.038502920418978">
        <ele>273.85</ele>
        <time>2024-12-29T16:47:41.005Z</time>
      </trkpt>
      <trkpt lat="49.94008895941079" lon="6.038443995639682">
        <ele>273.61</ele>
        <time>2024-12-29T16:47:54.595Z</time>
      </trkpt>
      <trkpt lat="49.94013698771596" lon="6.038383981212974">
        <ele>273.39</ele>
        <time>2024-12-29T16:48:08.194Z</time>
      </trkpt>
      <trkpt lat="49.94018895551562" lon="6.038270993158221">
        <ele>273.17</ele>
        <time>2024-12-29T16:48:21.805Z</time>
      </trkpt>
      <trkpt lat="49.94020295329392" lon="6.038229921832681">
        <ele>272.96</ele>
        <time>2024-12-29T16:48:35.420Z</time>
      </trkpt>
      <trkpt lat="49.94021896272898" lon="6.038219947367907">
        <ele>272.82</ele>
        <time>2024-12-29T16:48:49.037Z</time>
      </trkpt>
      <trkpt lat="49.940296998247504" lon="6.038245931267738">
        <ele>272.84</ele>
        <time>2024-12-29T16:49:02.665Z</time>
      </trkpt>
      <trkpt lat="49.94032792747021" lon="6.038240985944867">
        <ele>272.79</ele>
        <time>2024-12-29T16:49:16.297Z</time>
      </trkpt>
      <trkpt lat="49.940382996574044" lon="6.038262946531177">
        <ele>272.84</ele>
        <time>2024-12-29T16:49:29.936Z</time>
      </trkpt>
      <trkpt lat="49.94043798185885" lon="6.038255989551544">
        <ele>272.88</ele>
        <time>2024-12-29T16:49:43.583Z</time>
      </trkpt>
      <trkpt lat="49.94049799628556" lon="6.038271998986602">
        <ele>272.98</ele>
        <time>2024-12-29T16:49:57.238Z</time>
      </trkpt>
      <trkpt lat="49.94057293049991" lon="6.038254983723164">
        <ele>273.06</ele>
        <time>2024-12-29T16:50:10.903Z</time>
      </trkpt>
      <trkpt lat="49.94075397960842" lon="6.038154987618327">
        <ele>273.15</ele>
        <time>2024-12-29T16:50:24.594Z</time>
      </trkpt>
      <trkpt lat="49.94087593629956" lon="6.038049962371588">
        <ele>273.21</ele>
        <time>2024-12-29T16:50:38.303Z</time>
      </trkpt>
      <trkpt lat="49.94108397513628" lon="6.0379519779235125">
        <ele>273.28</ele>
        <time>2024-12-29T16:50:52.041Z</time>
      </trkpt>
      <trkpt lat="49.94116997346282" lon="6.037866985425353">
        <ele>273.3</ele>
        <time>2024-12-29T16:51:05.793Z</time>
      </trkpt>
      <trkpt lat="49.94125798344612" lon="6.037851981818676">
        <ele>273.55</ele>
        <time>2024-12-29T16:51:19.557Z</time>
      </trkpt>
      <trkpt lat="49.941420927643776" lon="6.037727929651737">
        <ele>273.76</ele>
        <time>2024-12-29T16:51:33.345Z</time>
      </trkpt>
      <trkpt lat="49.94157993234694" lon="6.0376469604671">
        <ele>274.11</ele>
        <time>2024-12-29T16:51:47.155Z</time>
      </trkpt>
      <trkpt lat="49.941780930384994" lon="6.037420984357595">
        <ele>274.65</ele>
        <time>2024-12-29T16:52:00.998Z</time>
      </trkpt>
      <trkpt lat="49.94182099588215" lon="6.037356946617365">
        <ele>275.12</ele>
        <time>2024-12-29T16:52:14.849Z</time>
      </trkpt>
      <trkpt lat="49.94187296368182" lon="6.03732299990952">
        <ele>275.66</ele>
        <time>2024-12-29T16:52:28.708Z</time>
      </trkpt>
      <trkpt lat="49.94187170639634" lon="6.037267260253429">
        <ele>276.27</ele>
        <time>2024-12-29T16:52:42.571Z</time>
      </trkpt>
      <trkpt lat="49.941870952025056" lon="6.0372359957546">
        <ele>276.94</ele>
        <time>2024-12-29T16:52:56.437Z</time>
      </trkpt>
      <trkpt lat="49.94200497865677" lon="6.037197941914201">
        <ele>277.68</ele>
        <time>2024-12-29T16:53:10.321Z</time>
      </trkpt>
      <trkpt lat="49.942192984744906" lon="6.03711093775928">
        <ele>278.45</ele>
        <time>2024-12-29T16:53:24.231Z</time>
      </trkpt>
      <trkpt lat="49.942342936992645" lon="6.037080930545926">
        <ele>279.25</ele>
        <time>2024-12-29T16:53:38.162Z</time>
      </trkpt>
      <trkpt lat="49.942616522312164" lon="6.036948412656784">
        <ele>280.26</ele>
        <time>2024-12-29T16:53:52.131Z</time>
      </trkpt>
      <trkpt lat="49.94288993999362" lon="6.036815978586674">
        <ele>281.44</ele>
        <time>2024-12-29T16:54:06.138Z</time>
      </trkpt>
      <trkpt lat="49.94308196939528" lon="6.036734925583005">
        <ele>282.53</ele>
        <time>2024-12-29T16:54:20.172Z</time>
      </trkpt>
      <trkpt lat="49.94330098852515" lon="6.036702990531921">
        <ele>283.62</ele>
        <time>2024-12-29T16:54:34.235Z</time>
      </trkpt>
      <trkpt lat="49.94353794492781" lon="6.036769961938262">
        <ele>284.71</ele>
        <time>2024-12-29T16:54:48.330Z</time>
      </trkpt>
      <trkpt lat="49.943780936300755" lon="6.036758981645107">
        <ele>286.05</ele>
        <time>2024-12-29T16:55:02.458Z</time>
      </trkpt>
      <trkpt lat="49.944080924615264" lon="6.036831988021731">
        <ele>287.32</ele>
        <time>2024-12-29T16:55:16.626Z</time>
      </trkpt>
      <trkpt lat="49.944315953180194" lon="6.036839950829744">
        <ele>288.68</ele>
        <time>2024-12-29T16:55:30.826Z</time>
      </trkpt>
      <trkpt lat="49.94448694400489" lon="6.036911951377988">
        <ele>290.17</ele>
        <time>2024-12-29T16:55:45.049Z</time>
      </trkpt>
      <trkpt lat="49.944747956469655" lon="6.0370569583028555">
        <ele>291.73</ele>
        <time>2024-12-29T16:55:59.309Z</time>
      </trkpt>
      <trkpt lat="49.944912074133754" lon="6.037215543910861">
        <ele>293.21</ele>
        <time>2024-12-29T16:56:13.595Z</time>
      </trkpt>
      <trkpt lat="49.94507594034076" lon="6.037373961880803">
        <ele>294.67</ele>
        <time>2024-12-29T16:56:27.907Z</time>
      </trkpt>
      <trkpt lat="49.94522706605494" lon="6.037504049018025">
        <ele>296.09</ele>
        <time>2024-12-29T16:56:42.242Z</time>
      </trkpt>
      <trkpt lat="49.94537794031203" lon="6.037633968517184">
        <ele>297.49</ele>
        <time>2024-12-29T16:56:56.600Z</time>
      </trkpt>
      <trkpt lat="49.9455969594419" lon="6.037882994860411">
        <ele>299.09</ele>
        <time>2024-12-29T16:57:10.994Z</time>
      </trkpt>
      <trkpt lat="49.94583592750132" lon="6.038192957639694">
        <ele>300.86</ele>
        <time>2024-12-29T16:57:25.430Z</time>
      </trkpt>
      <trkpt lat="49.945972971618176" lon="6.038504932075739">
        <ele>302.4</ele>
        <time>2024-12-29T16:57:39.898Z</time>
      </trkpt>
      <trkpt lat="49.94609392248094" lon="6.038730992004275">
        <ele>303.87</ele>
        <time>2024-12-29T16:57:54.392Z</time>
      </trkpt>
      <trkpt lat="49.94623691774905" lon="6.039159977808595">
        <ele>305.36</ele>
        <time>2024-12-29T16:58:08.927Z</time>
      </trkpt>
      <trkpt lat="49.94639893993735" lon="6.039516963064671">
        <ele>306.96</ele>
        <time>2024-12-29T16:58:23.500Z</time>
      </trkpt>
      <trkpt lat="49.9465589504689" lon="6.039711926132441">
        <ele>308.38</ele>
        <time>2024-12-29T16:58:38.100Z</time>
      </trkpt>
      <trkpt lat="49.94671694934368" lon="6.039838995784521">
        <ele>309.68</ele>
        <time>2024-12-29T16:58:52.724Z</time>
      </trkpt>
      <trkpt lat="49.94688592851162" lon="6.039986936375499">
        <ele>310.92</ele>
        <time>2024-12-29T16:59:07.374Z</time>
      </trkpt>
      <trkpt lat="49.94700092822313" lon="6.0400989186018705">
        <ele>312.11</ele>
        <time>2024-12-29T16:59:22.042Z</time>
      </trkpt>
      <trkpt lat="49.947067983448505" lon="6.040143929421902">
        <ele>313.25</ele>
        <time>2024-12-29T16:59:36.719Z</time>
      </trkpt>
      <trkpt lat="49.94710193015635" lon="6.040125992149115">
        <ele>314.37</ele>
        <time>2024-12-29T16:59:51.401Z</time>
      </trkpt>
      <trkpt lat="49.94694493710995" lon="6.0399229824543">
        <ele>315.4</ele>
        <time>2024-12-29T17:00:06.111Z</time>
      </trkpt>
      <trkpt lat="49.946789955720305" lon="6.039764983579516">
        <ele>316.38</ele>
        <time>2024-12-29T17:00:20.845Z</time>
      </trkpt>
      <trkpt lat="49.94662399403751" lon="6.0394929908216">
        <ele>317.3</ele>
        <time>2024-12-29T17:00:35.612Z</time>
      </trkpt>
      <trkpt lat="49.946512933820486" lon="6.039272965863347">
        <ele>318.17</ele>
        <time>2024-12-29T17:00:50.403Z</time>
      </trkpt>
      <trkpt lat="49.946378991007805" lon="6.038918998092413">
        <ele>318.92</ele>
        <time>2024-12-29T17:01:05.229Z</time>
      </trkpt>
      <trkpt lat="49.94627773761749" lon="6.038613812997937">
        <ele>319.92</ele>
        <time>2024-12-29T17:01:20.084Z</time>
      </trkpt>
      <trkpt lat="49.94617698714137" lon="6.038309969007969">
        <ele>320.93</ele>
        <time>2024-12-29T17:01:34.969Z</time>
      </trkpt>
      <trkpt lat="49.94602996855974" lon="6.0378889460116625">
        <ele>321.91</ele>
        <time>2024-12-29T17:01:49.895Z</time>
      </trkpt>
      <trkpt lat="49.94586895219982" lon="6.0374819207936525">
        <ele>323.04</ele>
        <time>2024-12-29T17:02:04.862Z</time>
      </trkpt>
      <trkpt lat="49.94565898552537" lon="6.0371429566293955">
        <ele>324.05</ele>
        <time>2024-12-29T17:02:19.870Z</time>
      </trkpt>
      <trkpt lat="49.945457400754094" lon="6.036855624988675">
        <ele>325.07</ele>
        <time>2024-12-29T17:02:34.914Z</time>
      </trkpt>
      <trkpt lat="49.94525573216379" lon="6.036568209528923">
        <ele>326.13</ele>
        <time>2024-12-29T17:02:49.995Z</time>
      </trkpt>
      <trkpt lat="49.94505498558283" lon="6.036281967535615">
        <ele>327.15</ele>
        <time>2024-12-29T17:03:05.112Z</time>
      </trkpt>
      <trkpt lat="49.9448009300977" lon="6.035999916493893">
        <ele>327.96</ele>
        <time>2024-12-29T17:03:20.271Z</time>
      </trkpt>
      <trkpt lat="49.944662880152464" lon="6.035877875983715">
        <ele>328.83</ele>
        <time>2024-12-29T17:03:35.451Z</time>
      </trkpt>
      <trkpt lat="49.94452499784529" lon="6.035755919292569">
        <ele>329.72</ele>
        <time>2024-12-29T17:03:50.652Z</time>
      </trkpt>
      <trkpt lat="49.94437286630273" lon="6.035668915137649">
        <ele>330.6</ele>
        <time>2024-12-29T17:04:05.875Z</time>
      </trkpt>
      <trkpt lat="49.94422098621726" lon="6.03558199480176">
        <ele>331.5</ele>
        <time>2024-12-29T17:04:21.120Z</time>
      </trkpt>
      <trkpt lat="49.943949999287724" lon="6.035474957898259">
        <ele>332.43</ele>
        <time>2024-12-29T17:04:36.402Z</time>
      </trkpt>
      <trkpt lat="49.94370642118156" lon="6.0353929828852415">
        <ele>333.31</ele>
        <time>2024-12-29T17:04:51.717Z</time>
      </trkpt>
      <trkpt lat="49.943462926894426" lon="6.035310924053192">
        <ele>334.31</ele>
        <time>2024-12-29T17:05:07.065Z</time>
      </trkpt>
      <trkpt lat="49.943240974098444" lon="6.035264991223812">
        <ele>335.2</ele>
        <time>2024-12-29T17:05:22.443Z</time>
      </trkpt>
      <trkpt lat="49.942965963855386" lon="6.035251999273896">
        <ele>335.89</ele>
        <time>2024-12-29T17:05:37.858Z</time>
      </trkpt>
      <trkpt lat="49.942794973030686" lon="6.03530396707356">
        <ele>336.45</ele>
        <time>2024-12-29T17:05:53.296Z</time>
      </trkpt>
      <trkpt lat="49.94250093586743" lon="6.035262979567051">
        <ele>337.26</ele>
        <time>2024-12-29T17:06:08.774Z</time>
      </trkpt>
      <trkpt lat="49.94230697862804" lon="6.035295920446515">
        <ele>338.06</ele>
        <time>2024-12-29T17:06:24.278Z</time>
      </trkpt>
      <trkpt lat="49.942106902599335" lon="6.035365993157029">
        <ele>338.84</ele>
        <time>2024-12-29T17:06:39.809Z</time>
      </trkpt>
      <trkpt lat="49.94190699420869" lon="6.0354359820485115">
        <ele>339.44</ele>
        <time>2024-12-29T17:06:55.368Z</time>
      </trkpt>
      <trkpt lat="49.94164698757231" lon="6.035407986491919">
        <ele>339.95</ele>
        <time>2024-12-29T17:07:10.961Z</time>
      </trkpt>
      <trkpt lat="49.94143299758434" lon="6.0354439448565245">
        <ele>340.2</ele>
        <time>2024-12-29T17:07:26.583Z</time>
      </trkpt>
      <trkpt lat="49.941353956237435" lon="6.035398934036493">
        <ele>340.84</ele>
        <time>2024-12-29T17:07:42.216Z</time>
      </trkpt>
      <trkpt lat="49.94131699204445" lon="6.035311929881573">
        <ele>341.7</ele>
        <time>2024-12-29T17:07:57.858Z</time>
      </trkpt>
      <trkpt lat="49.941287990659475" lon="6.0351579543203115">
        <ele>342.7</ele>
        <time>2024-12-29T17:08:13.514Z</time>
      </trkpt>
      <trkpt lat="49.94117768481374" lon="6.034843297675252">
        <ele>344.25</ele>
        <time>2024-12-29T17:08:29.201Z</time>
      </trkpt>
      <trkpt lat="49.94106796570122" lon="6.0345299821347">
        <ele>345.72</ele>
        <time>2024-12-29T17:08:44.919Z</time>
      </trkpt>
      <trkpt lat="49.94098297320306" lon="6.034339964389801">
        <ele>346.83</ele>
        <time>2024-12-29T17:09:00.657Z</time>
      </trkpt>
      <trkpt lat="49.940924970433116" lon="6.034124968573451">
        <ele>348.17</ele>
        <time>2024-12-29T17:09:16.415Z</time>
      </trkpt>
      <trkpt lat="49.94086797349155" lon="6.0336939711123705">
        <ele>349.59</ele>
        <time>2024-12-29T17:09:32.211Z</time>
      </trkpt>
      <trkpt lat="49.94083193130791" lon="6.0332719422876835">
        <ele>350.95</ele>
        <time>2024-12-29T17:09:48.043Z</time>
      </trkpt>
      <trkpt lat="49.940837966278195" lon="6.033015958964825">
        <ele>352.38</ele>
        <time>2024-12-29T17:10:03.897Z</time>
      </trkpt>
      <trkpt lat="49.94086495600641" lon="6.032797945663333">
        <ele>353.88</ele>
        <time>2024-12-29T17:10:19.770Z</time>
      </trkpt>
      <trkpt lat="49.94090896099806" lon="6.032643970102072">
        <ele>355.39</ele>
        <time>2024-12-29T17:10:35.658Z</time>
      </trkpt>
      <trkpt lat="49.94099797680974" lon="6.0324749909341335">
        <ele>357.0</ele>
        <time>2024-12-29T17:10:51.565Z</time>
      </trkpt>
      <trkpt lat="49.941113982349634" lon="6.032337946817279">
        <ele>358.66</ele>
        <time>2024-12-29T17:11:07.491Z</time>
      </trkpt>
      <trkpt lat="49.94136996567249" lon="6.032168967649341">
        <ele>360.49</ele>
        <time>2024-12-29T17:11:23.454Z</time>
      </trkpt>
      <trkpt lat="49.94160692207515" lon="6.031941985711455">
        <ele>362.24</ele>
        <time>2024-12-29T17:11:39.454Z</time>
      </trkpt>
      <trkpt lat="49.94171295315027" lon="6.03193293325603">
        <ele>363.95</ele>
        <time>2024-12-29T17:11:55.469Z</time>
      </trkpt>
      <trkpt lat="49.94183097034693" lon="6.032004933804274">
        <ele>365.7</ele>
        <time>2024-12-29T17:12:11.501Z</time>
      </trkpt>
      <trkpt lat="49.94201092980802" lon="6.0321589931845665">
        <ele>367.49</ele>
        <time>2024-12-29T17:12:27.560Z</time>
      </trkpt>
      <trkpt lat="49.94221419095993" lon="6.032388154417276">
        <ele>369.31</ele>
        <time>2024-12-29T17:12:43.653Z</time>
      </trkpt>
      <trkpt lat="49.94241694919765" lon="6.032616980373859">
        <ele>371.12</ele>
        <time>2024-12-29T17:12:59.779Z</time>
      </trkpt>
      <trkpt lat="49.94259615428746" lon="6.0328275337815285">
        <ele>372.78</ele>
        <time>2024-12-29T17:13:15.935Z</time>
      </trkpt>
      <trkpt lat="49.942775359377265" lon="6.0330380871891975">
        <ele>374.32</ele>
        <time>2024-12-29T17:13:32.121Z</time>
      </trkpt>
      <trkpt lat="49.94295397773385" lon="6.033247970044613">
        <ele>375.81</ele>
        <time>2024-12-29T17:13:48.337Z</time>
      </trkpt>
      <trkpt lat="49.94308699853718" lon="6.033317958936095">
        <ele>377.3</ele>
        <time>2024-12-29T17:14:04.572Z</time>
      </trkpt>
      <trkpt lat="49.943244997411966" lon="6.033355928957462">
        <ele>378.79</ele>
        <time>2024-12-29T17:14:20.828Z</time>
      </trkpt>
      <trkpt lat="49.94336896575987" lon="6.033368920907378">
        <ele>380.3</ele>
        <time>2024-12-29T17:14:37.101Z</time>
      </trkpt>
      <trkpt lat="49.94351296685636" lon="6.033331956714392">
        <ele>381.84</ele>
        <time>2024-12-29T17:14:53.393Z</time>
      </trkpt>
      <trkpt lat="49.94371094740927" lon="6.033221986144781">
        <ele>383.5</ele>
        <time>2024-12-29T17:15:09.713Z</time>
      </trkpt>
      <trkpt lat="49.94384095072746" lon="6.033121990039945">
        <ele>385.11</ele>
        <time>2024-12-29T17:15:26.053Z</time>
      </trkpt>
      <trkpt lat="49.94394295848906" lon="6.0329909808933735">
        <ele>386.68</ele>
        <time>2024-12-29T17:15:42.410Z</time>
      </trkpt>
      <trkpt lat="49.94400397874415" lon="6.032853936776519">
        <ele>388.16</ele>
        <time>2024-12-29T17:15:58.782Z</time>
      </trkpt>
      <trkpt lat="49.9440876301378" lon="6.032614968717098">
        <ele>389.59</ele>
        <time>2024-12-29T17:16:15.177Z</time>
      </trkpt>
      <trkpt lat="49.944170946255326" lon="6.0323769226670265">
        <ele>390.98</ele>
        <time>2024-12-29T17:16:31.595Z</time>
      </trkpt>
      <trkpt lat="49.9442776478827" lon="6.032176092267036">
        <ele>392.46</ele>
        <time>2024-12-29T17:16:48.036Z</time>
      </trkpt>
      <trkpt lat="49.944383930414915" lon="6.0319759324193">
        <ele>393.99</ele>
        <time>2024-12-29T17:17:04.499Z</time>
      </trkpt>
      <trkpt lat="49.94456296786666" lon="6.03169497102499">
        <ele>395.47</ele>
        <time>2024-12-29T17:17:20.996Z</time>
      </trkpt>
      <trkpt lat="49.94456296786666" lon="6.031694803386927">
        <ele>396.92</ele>
        <time>2024-12-29T17:17:37.493Z</time>
      </trkpt>
      <trkpt lat="49.94456305168569" lon="6.031694719567895">
        <ele>398.38</ele>
        <time>2024-12-29T17:17:53.990Z</time>
      </trkpt>
      <trkpt lat="49.944681990891695" lon="6.031524986028671">
        <ele>399.83</ele>
        <time>2024-12-29T17:18:10.509Z</time>
      </trkpt>
      <trkpt lat="49.94482599198818" lon="6.031374949961901">
        <ele>401.31</ele>
        <time>2024-12-29T17:18:27.051Z</time>
      </trkpt>
      <trkpt lat="49.94500611908734" lon="6.031214352697134">
        <ele>402.84</ele>
        <time>2024-12-29T17:18:43.621Z</time>
      </trkpt>
      <trkpt lat="49.9451859947294" lon="6.031053923070431">
        <ele>404.48</ele>
        <time>2024-12-29T17:19:00.218Z</time>
      </trkpt>
      <trkpt lat="49.94532094337046" lon="6.030907994136214">
        <ele>406.13</ele>
        <time>2024-12-29T17:19:16.837Z</time>
      </trkpt>
      <trkpt lat="49.94538397528231" lon="6.030839933082461">
        <ele>407.82</ele>
        <time>2024-12-29T17:19:33.467Z</time>
      </trkpt>
      <trkpt lat="49.94548397138715" lon="6.031079990789294">
        <ele>409.63</ele>
        <time>2024-12-29T17:19:50.121Z</time>
      </trkpt>
      <trkpt lat="49.945540968328714" lon="6.031256932765245">
        <ele>411.43</ele>
        <time>2024-12-29T17:20:06.792Z</time>
      </trkpt>
      <trkpt lat="49.94555597193539" lon="6.031381990760565">
        <ele>413.17</ele>
        <time>2024-12-29T17:20:23.474Z</time>
      </trkpt>
      <trkpt lat="49.94561799801886" lon="6.031672926619649">
        <ele>415.11</ele>
        <time>2024-12-29T17:20:40.183Z</time>
      </trkpt>
      <trkpt lat="49.94566208682954" lon="6.0319301672279835">
        <ele>416.97</ele>
        <time>2024-12-29T17:20:56.914Z</time>
      </trkpt>
      <trkpt lat="49.94570592418313" lon="6.032185982912779">
        <ele>418.76</ele>
        <time>2024-12-29T17:21:13.668Z</time>
      </trkpt>
      <trkpt lat="49.9457629211247" lon="6.032349932938814">
        <ele>420.42</ele>
        <time>2024-12-29T17:21:30.438Z</time>
      </trkpt>
      <trkpt lat="49.945781948044896" lon="6.032499969005585">
        <ele>421.98</ele>
        <time>2024-12-29T17:21:47.221Z</time>
      </trkpt>
      <trkpt lat="49.94577096775174" lon="6.032708929851651">
        <ele>423.46</ele>
        <time>2024-12-29T17:22:04.023Z</time>
      </trkpt>
      <trkpt lat="49.94568572379649" lon="6.033031214028597">
        <ele>424.86</ele>
        <time>2024-12-29T17:22:20.855Z</time>
      </trkpt>
      <trkpt lat="49.94560098275542" lon="6.033351989462972">
        <ele>426.08</ele>
        <time>2024-12-29T17:22:37.716Z</time>
      </trkpt>
      <trkpt lat="49.94559897109866" lon="6.033467995002866">
        <ele>427.27</ele>
        <time>2024-12-29T17:22:54.587Z</time>
      </trkpt>
      <trkpt lat="49.94563694112003" lon="6.033583916723728">
        <ele>428.38</ele>
        <time>2024-12-29T17:23:11.470Z</time>
      </trkpt>
      <trkpt lat="49.94579686783254" lon="6.033846354112029">
        <ele>429.47</ele>
        <time>2024-12-29T17:23:28.384Z</time>
      </trkpt>
      <trkpt lat="49.945956794545054" lon="6.034108707681298">
        <ele>430.43</ele>
        <time>2024-12-29T17:23:45.329Z</time>
      </trkpt>
      <trkpt lat="49.94611596688628" lon="6.034369971603155">
        <ele>431.32</ele>
        <time>2024-12-29T17:24:02.305Z</time>
      </trkpt>
      <trkpt lat="49.946402963250875" lon="6.034535933285952">
        <ele>432.22</ele>
        <time>2024-12-29T17:24:19.322Z</time>
      </trkpt>
      <trkpt lat="49.94655559770763" lon="6.0347026493400335">
        <ele>432.79</ele>
        <time>2024-12-29T17:24:36.363Z</time>
      </trkpt>
      <trkpt lat="49.94670798070729" lon="6.034868946298957">
        <ele>433.14</ele>
        <time>2024-12-29T17:24:53.429Z</time>
      </trkpt>
      <trkpt lat="49.94670697487891" lon="6.034867940470576">
        <ele>433.56</ele>
        <time>2024-12-29T17:25:10.496Z</time>
      </trkpt>
      <trkpt lat="49.94687796570361" lon="6.035055946558714">
        <ele>433.81</ele>
        <time>2024-12-29T17:25:27.591Z</time>
      </trkpt>
      <trkpt lat="49.94702808558941" lon="6.035228613764048">
        <ele>434.09</ele>
        <time>2024-12-29T17:25:44.710Z</time>
      </trkpt>
      <trkpt lat="49.947177954018116" lon="6.0354009456932545">
        <ele>434.36</ele>
        <time>2024-12-29T17:26:01.854Z</time>
      </trkpt>
      <trkpt lat="49.94739211164415" lon="6.035609655082226">
        <ele>434.56</ele>
        <time>2024-12-29T17:26:19.032Z</time>
      </trkpt>
      <trkpt lat="49.947605933994055" lon="6.0358179453760386">
        <ele>434.61</ele>
        <time>2024-12-29T17:26:36.244Z</time>
      </trkpt>
      <trkpt lat="49.947788659483194" lon="6.036037215963006">
        <ele>434.52</ele>
        <time>2024-12-29T17:26:53.487Z</time>
      </trkpt>
      <trkpt lat="49.947970965877175" lon="6.036255983635783">
        <ele>434.33</ele>
        <time>2024-12-29T17:27:10.760Z</time>
      </trkpt>
      <trkpt lat="49.94822007603943" lon="6.036435524001718">
        <ele>434.16</ele>
        <time>2024-12-29T17:27:28.070Z</time>
      </trkpt>
      <trkpt lat="49.9484689347446" lon="6.03661498054862">
        <ele>433.89</ele>
        <time>2024-12-29T17:27:45.417Z</time>
      </trkpt>
      <trkpt lat="49.9486224912107" lon="6.036692513152957">
        <ele>433.61</ele>
        <time>2024-12-29T17:28:02.785Z</time>
      </trkpt>
      <trkpt lat="49.94877596385777" lon="6.036769961938262">
        <ele>433.27</ele>
        <time>2024-12-29T17:28:20.175Z</time>
      </trkpt>
      <trkpt lat="49.94901996105909" lon="6.03685193695128">
        <ele>432.79</ele>
        <time>2024-12-29T17:28:37.598Z</time>
      </trkpt>
      <trkpt lat="49.949196986854076" lon="6.036866940557957">
        <ele>432.49</ele>
        <time>2024-12-29T17:28:55.045Z</time>
      </trkpt>
      <trkpt lat="49.949324978515506" lon="6.036827964708209">
        <ele>432.23</ele>
        <time>2024-12-29T17:29:12.509Z</time>
      </trkpt>
      <trkpt lat="49.94937795214355" lon="6.036800974979997">
        <ele>431.95</ele>
        <time>2024-12-29T17:29:29.981Z</time>
      </trkpt>
      <trkpt lat="49.949434949085116" lon="6.036749929189682">
        <ele>431.68</ele>
        <time>2024-12-29T17:29:47.462Z</time>
      </trkpt>
      <trkpt lat="49.94948691688478" lon="6.036734925583005">
        <ele>431.43</ele>
        <time>2024-12-29T17:30:04.950Z</time>
      </trkpt>
      <trkpt lat="49.94968498125672" lon="6.036711959168315">
        <ele>431.12</ele>
        <time>2024-12-29T17:30:22.464Z</time>
      </trkpt>
      <trkpt lat="49.94984993711114" lon="6.036703996360302">
        <ele>430.84</ele>
        <time>2024-12-29T17:30:40.000Z</time>
      </trkpt>
      <trkpt lat="49.949945993721485" lon="6.036660997197032">
        <ele>430.67</ele>
        <time>2024-12-29T17:30:57.549Z</time>
      </trkpt>
      <trkpt lat="49.95008806698024" lon="6.036516325548291">
        <ele>430.53</ele>
        <time>2024-12-29T17:31:15.121Z</time>
      </trkpt>
      <trkpt lat="49.95022997260094" lon="6.036371989175677">
        <ele>430.56</ele>
        <time>2024-12-29T17:31:32.716Z</time>
      </trkpt>
      <trkpt lat="49.95030691847205" lon="6.036481959745288">
        <ele>430.7</ele>
        <time>2024-12-29T17:31:50.325Z</time>
      </trkpt>
      <trkpt lat="49.95040892623365" lon="6.036595953628421">
        <ele>430.91</ele>
        <time>2024-12-29T17:32:07.951Z</time>
      </trkpt>
      <trkpt lat="49.95049299672246" lon="6.036705924198031">
        <ele>431.22</ele>
        <time>2024-12-29T17:32:25.591Z</time>
      </trkpt>
      <trkpt lat="49.95055594481528" lon="6.036848919466138">
        <ele>431.58</ele>
        <time>2024-12-29T17:32:43.246Z</time>
      </trkpt>
      <trkpt lat="49.95059693232179" lon="6.03689594194293">
        <ele>432.01</ele>
        <time>2024-12-29T17:33:00.908Z</time>
      </trkpt>
      <trkpt lat="49.95064697228372" lon="6.036891918629408">
        <ele>432.56</ele>
        <time>2024-12-29T17:33:18.577Z</time>
      </trkpt>
      <trkpt lat="49.950675973668694" lon="6.03682997636497">
        <ele>433.2</ele>
        <time>2024-12-29T17:33:36.252Z</time>
      </trkpt>
      <trkpt lat="49.95067195035517" lon="6.036749929189682">
        <ele>433.87</ele>
        <time>2024-12-29T17:33:53.934Z</time>
      </trkpt>
      <trkpt lat="49.95061897672713" lon="6.036498975008726">
        <ele>434.57</ele>
        <time>2024-12-29T17:34:11.639Z</time>
      </trkpt>
      <trkpt lat="49.95060497894883" lon="6.036248942837119">
        <ele>435.4</ele>
        <time>2024-12-29T17:34:29.365Z</time>
      </trkpt>
      <trkpt lat="49.950632555410266" lon="6.035881983116269">
        <ele>436.42</ele>
        <time>2024-12-29T17:34:47.123Z</time>
      </trkpt>
      <trkpt lat="49.95065996423364" lon="6.035516951233149">
        <ele>437.56</ele>
        <time>2024-12-29T17:35:04.913Z</time>
      </trkpt>
      <trkpt lat="49.95072995312512" lon="6.035136999562383">
        <ele>438.72</ele>
        <time>2024-12-29T17:35:22.737Z</time>
      </trkpt>
      <trkpt lat="49.95079298503697" lon="6.035219980403781">
        <ele>439.94</ele>
        <time>2024-12-29T17:35:40.572Z</time>
      </trkpt>
      <trkpt lat="49.950957940891385" lon="6.035596998408437">
        <ele>441.27</ele>
        <time>2024-12-29T17:35:58.446Z</time>
      </trkpt>
      <trkpt lat="49.95102893561125" lon="6.03579799644649">
        <ele>442.59</ele>
        <time>2024-12-29T17:36:16.340Z</time>
      </trkpt>
      <trkpt lat="49.951128931716084" lon="6.035934956744313">
        <ele>444.01</ele>
        <time>2024-12-29T17:36:34.252Z</time>
      </trkpt>
      <trkpt lat="49.95115994475782" lon="6.036074934527278">
        <ele>445.4</ele>
        <time>2024-12-29T17:36:52.177Z</time>
      </trkpt>
      <trkpt lat="49.95126195251942" lon="6.03642295114696">
        <ele>446.87</ele>
        <time>2024-12-29T17:37:10.134Z</time>
      </trkpt>
      <trkpt lat="49.95136865414679" lon="6.036663427948952">
        <ele>448.4</ele>
        <time>2024-12-29T17:37:28.117Z</time>
      </trkpt>
      <trkpt lat="49.951474936679006" lon="6.036902982741594">
        <ele>449.98</ele>
        <time>2024-12-29T17:37:46.125Z</time>
      </trkpt>
      <trkpt lat="49.951609214767814" lon="6.037154356017709">
        <ele>451.62</ele>
        <time>2024-12-29T17:38:04.161Z</time>
      </trkpt>
      <trkpt lat="49.95174298994243" lon="6.037404974922538">
        <ele>453.18</ele>
        <time>2024-12-29T17:38:22.225Z</time>
      </trkpt>
      <trkpt lat="49.95191993191838" lon="6.03764595463872">
        <ele>454.77</ele>
        <time>2024-12-29T17:38:40.320Z</time>
      </trkpt>
      <trkpt lat="49.952066112309694" lon="6.037816107273102">
        <ele>456.35</ele>
        <time>2024-12-29T17:38:58.440Z</time>
      </trkpt>
      <trkpt lat="49.95221195742488" lon="6.037985924631357">
        <ele>457.98</ele>
        <time>2024-12-29T17:39:16.584Z</time>
      </trkpt>
      <trkpt lat="49.95237221941352" lon="6.038245847448707">
        <ele>459.61</ele>
        <time>2024-12-29T17:39:34.759Z</time>
      </trkpt>
      <trkpt lat="49.95253197848797" lon="6.038504932075739">
        <ele>461.21</ele>
        <time>2024-12-29T17:39:52.965Z</time>
      </trkpt>
      <trkpt lat="49.95268385857344" lon="6.038770051673055">
        <ele>462.81</ele>
        <time>2024-12-29T17:40:11.201Z</time>
      </trkpt>
      <trkpt lat="49.952835738658905" lon="6.039035087451339">
        <ele>464.39</ele>
        <time>2024-12-29T17:40:29.468Z</time>
      </trkpt>
      <trkpt lat="49.95298694819212" lon="6.039298949763179">
        <ele>465.97</ele>
        <time>2024-12-29T17:40:47.765Z</time>
      </trkpt>
      <trkpt lat="49.95294897817075" lon="6.039077918976545">
        <ele>467.32</ele>
        <time>2024-12-29T17:41:06.082Z</time>
      </trkpt>
      <trkpt lat="49.952847976237535" lon="6.038739960640669">
        <ele>468.61</ele>
        <time>2024-12-29T17:41:24.431Z</time>
      </trkpt>
      <trkpt lat="49.95281293988228" lon="6.038496969267726">
        <ele>469.94</ele>
        <time>2024-12-29T17:41:42.801Z</time>
      </trkpt>
      <trkpt lat="49.952808916568756" lon="6.038256995379925">
        <ele>471.27</ele>
        <time>2024-12-29T17:42:01.192Z</time>
      </trkpt>
      <trkpt lat="49.95283498428762" lon="6.038100924342871">
        <ele>472.55</ele>
        <time>2024-12-29T17:42:19.597Z</time>
      </trkpt>
      <trkpt lat="49.952957946807146" lon="6.037750979885459">
        <ele>473.85</ele>
        <time>2024-12-29T17:42:38.036Z</time>
      </trkpt>
      <trkpt lat="49.95303866453469" lon="6.0374171286821365">
        <ele>475.01</ele>
        <time>2024-12-29T17:42:56.506Z</time>
      </trkpt>
      <trkpt lat="49.95311896316707" lon="6.037084953859448">
        <ele>476.1</ele>
        <time>2024-12-29T17:43:15.007Z</time>
      </trkpt>
      <trkpt lat="49.953123992308974" lon="6.036997949704528">
        <ele>477.06</ele>
        <time>2024-12-29T17:43:33.515Z</time>
      </trkpt>
      <trkpt lat="49.95311292819679" lon="6.036862917244434">
        <ele>477.94</ele>
        <time>2024-12-29T17:43:52.035Z</time>
      </trkpt>
      <trkpt lat="49.953125920146704" lon="6.03676694445312">
        <ele>478.73</ele>
        <time>2024-12-29T17:44:10.563Z</time>
      </trkpt>
      <trkpt lat="49.95317998342216" lon="6.036604922264814">
        <ele>479.49</ele>
        <time>2024-12-29T17:44:29.107Z</time>
      </trkpt>
      <trkpt lat="49.95320093818009" lon="6.0364979691803455">
        <ele>480.12</ele>
        <time>2024-12-29T17:44:47.661Z</time>
      </trkpt>
      <trkpt lat="49.95320194400847" lon="6.036397973075509">
        <ele>480.65</ele>
        <time>2024-12-29T17:45:06.223Z</time>
      </trkpt>
      <trkpt lat="49.953169925138354" lon="6.03631398640573">
        <ele>481.09</ele>
        <time>2024-12-29T17:45:24.794Z</time>
      </trkpt>
      <trkpt lat="49.95314662344754" lon="6.036283224821091">
        <ele>481.44</ele>
        <time>2024-12-29T17:45:43.369Z</time>
      </trkpt>
      <trkpt lat="49.953104965388775" lon="6.03622798807919">
        <ele>481.69</ele>
        <time>2024-12-29T17:46:01.951Z</time>
      </trkpt>
      <trkpt lat="49.95306791737676" lon="6.03614198975265">
        <ele>481.86</ele>
        <time>2024-12-29T17:46:20.542Z</time>
      </trkpt>
      <trkpt lat="49.953037993982434" lon="6.036029923707247">
        <ele>481.93</ele>
        <time>2024-12-29T17:46:39.143Z</time>
      </trkpt>
      <trkpt lat="49.95302399620414" lon="6.035935962572694">
        <ele>481.94</ele>
        <time>2024-12-29T17:46:57.753Z</time>
      </trkpt>
      <trkpt lat="49.95302198454738" lon="6.035825992003083">
        <ele>481.87</ele>
        <time>2024-12-29T17:47:16.372Z</time>
      </trkpt>
      <trkpt lat="49.953036988154054" lon="6.035642931237817">
        <ele>481.73</ele>
        <time>2024-12-29T17:47:35.007Z</time>
      </trkpt>
      <trkpt lat="49.95303497649729" lon="6.035555927082896">
        <ele>481.49</ele>
        <time>2024-12-29T17:47:53.650Z</time>
      </trkpt>
      <trkpt lat="49.95303095318377" lon="6.035505970939994">
        <ele>481.17</ele>
        <time>2024-12-29T17:48:12.297Z</time>
      </trkpt>
      <trkpt lat="49.953016955405474" lon="6.035474957898259">
        <ele>480.75</ele>
        <time>2024-12-29T17:48:30.947Z</time>
      </trkpt>
      <trkpt lat="49.95296197012067" lon="6.035437993705273">
        <ele>480.25</ele>
        <time>2024-12-29T17:48:49.605Z</time>
      </trkpt>
      <trkpt lat="49.95291796512902" lon="6.035383930429816">
        <ele>479.66</ele>
        <time>2024-12-29T17:49:08.271Z</time>
      </trkpt>
      <trkpt lat="49.95285593904555" lon="6.035276977345347">
        <ele>478.96</ele>
        <time>2024-12-29T17:49:26.949Z</time>
      </trkpt>
      <trkpt lat="49.95272694155574" lon="6.034999955445528">
        <ele>478.14</ele>
        <time>2024-12-29T17:49:45.656Z</time>
      </trkpt>
      <trkpt lat="49.952629962936044" lon="6.0348189901560545">
        <ele>477.22</ele>
        <time>2024-12-29T17:50:04.384Z</time>
      </trkpt>
      <trkpt lat="49.95256491936743" lon="6.034460999071598">
        <ele>476.14</ele>
        <time>2024-12-29T17:50:23.144Z</time>
      </trkpt>
      <trkpt lat="49.952569948509336" lon="6.034280955791473">
        <ele>475.07</ele>
        <time>2024-12-29T17:50:41.919Z</time>
      </trkpt>
      <trkpt lat="49.95253197848797" lon="6.034174924716353">
        <ele>473.94</ele>
        <time>2024-12-29T17:51:00.705Z</time>
      </trkpt>
      <trkpt lat="49.95244598016143" lon="6.034088926389813">
        <ele>472.72</ele>
        <time>2024-12-29T17:51:19.504Z</time>
      </trkpt>
      <trkpt lat="49.95243298821151" lon="6.034031929448247">
        <ele>471.42</ele>
        <time>2024-12-29T17:51:38.309Z</time>
      </trkpt>
      <trkpt lat="49.952438939362764" lon="6.033882983028889">
        <ele>470.02</ele>
        <time>2024-12-29T17:51:57.126Z</time>
      </trkpt>
      <trkpt lat="49.95242292992771" lon="6.033819951117039">
        <ele>468.55</ele>
        <time>2024-12-29T17:52:15.949Z</time>
      </trkpt>
      <trkpt lat="49.95236098766327" lon="6.0337019339203835">
        <ele>466.96</ele>
        <time>2024-12-29T17:52:34.785Z</time>
      </trkpt>
      <trkpt lat="49.95232494547963" lon="6.033585928380489">
        <ele>465.26</ele>
        <time>2024-12-29T17:52:53.632Z</time>
      </trkpt>
      <trkpt lat="49.95219393633306" lon="6.033358946442604">
        <ele>463.4</ele>
        <time>2024-12-29T17:53:12.506Z</time>
      </trkpt>
      <trkpt lat="49.952162923291326" lon="6.033276971429586">
        <ele>461.51</ele>
        <time>2024-12-29T17:53:31.388Z</time>
      </trkpt>
      <trkpt lat="49.95215294882655" lon="6.033187955617905">
        <ele>459.53</ele>
        <time>2024-12-29T17:53:50.278Z</time>
      </trkpt>
      <trkpt lat="49.95215596631169" lon="6.032966924831271">
        <ele>457.41</ele>
        <time>2024-12-29T17:54:09.187Z</time>
      </trkpt>
      <trkpt lat="49.95213392190635" lon="6.032843962311745">
        <ele>455.2</ele>
        <time>2024-12-29T17:54:28.107Z</time>
      </trkpt>
      <trkpt lat="49.952050941064954" lon="6.032463926821947">
        <ele>452.63</ele>
        <time>2024-12-29T17:54:47.061Z</time>
      </trkpt>
      <trkpt lat="49.951985981315374" lon="6.032328978180885">
        <ele>450.21</ele>
        <time>2024-12-29T17:55:06.030Z</time>
      </trkpt>
      <trkpt lat="49.951947927474976" lon="6.0322049260139465">
        <ele>447.76</ele>
        <time>2024-12-29T17:55:25.011Z</time>
      </trkpt>
      <trkpt lat="49.95190995745361" lon="6.032007951289415">
        <ele>445.17</ele>
        <time>2024-12-29T17:55:44.009Z</time>
      </trkpt>
      <trkpt lat="49.951898977160454" lon="6.031818939372897">
        <ele>442.47</ele>
        <time>2024-12-29T17:56:03.024Z</time>
      </trkpt>
      <trkpt lat="49.951902916654944" lon="6.031638979911804">
        <ele>439.75</ele>
        <time>2024-12-29T17:56:22.054Z</time>
      </trkpt>
      <trkpt lat="49.95189093053341" lon="6.031547952443361">
        <ele>437.06</ele>
        <time>2024-12-29T17:56:41.092Z</time>
      </trkpt>
      <trkpt lat="49.951882967725396" lon="6.03143697604537">
        <ele>434.32</ele>
        <time>2024-12-29T17:57:00.140Z</time>
      </trkpt>
      <trkpt lat="49.95188699103892" lon="6.031275959685445">
        <ele>431.44</ele>
        <time>2024-12-29T17:57:19.202Z</time>
      </trkpt>
      <trkpt lat="49.951882967725396" lon="6.031212927773595">
        <ele>428.65</ele>
        <time>2024-12-29T17:57:38.269Z</time>
      </trkpt>
      <trkpt lat="49.95178992860019" lon="6.030828952789307">
        <ele>425.64</ele>
        <time>2024-12-29T17:57:57.371Z</time>
      </trkpt>
      <trkpt lat="49.95178498327732" lon="6.030714958906174">
        <ele>422.74</ele>
        <time>2024-12-29T17:58:16.483Z</time>
      </trkpt>
      <trkpt lat="49.951799986884" lon="6.030389992520213">
        <ele>419.59</ele>
        <time>2024-12-29T17:58:35.623Z</time>
      </trkpt>
      <trkpt lat="49.951813984662294" lon="6.030208943411708">
        <ele>416.65</ele>
        <time>2024-12-29T17:58:54.779Z</time>
      </trkpt>
      <trkpt lat="49.95180392637849" lon="6.03010693565011">
        <ele>413.74</ele>
        <time>2024-12-29T17:59:13.944Z</time>
      </trkpt>
      <trkpt lat="49.951795963570476" lon="6.029895963147283">
        <ele>410.69</ele>
        <time>2024-12-29T17:59:33.127Z</time>
      </trkpt>
      <trkpt lat="49.951750952750444" lon="6.0296739265322685">
        <ele>407.69</ele>
        <time>2024-12-29T17:59:52.330Z</time>
      </trkpt>
      <trkpt lat="49.951710971072316" lon="6.029333956539631">
        <ele>404.56</ele>
        <time>2024-12-29T18:00:11.563Z</time>
      </trkpt>
      <trkpt lat="49.95169194415212" lon="6.02909498848021">
        <ele>401.5</ele>
        <time>2024-12-29T18:00:30.817Z</time>
      </trkpt>
      <trkpt lat="49.95163679122925" lon="6.028744038194418">
        <ele>398.36</ele>
        <time>2024-12-29T18:00:50.102Z</time>
      </trkpt>
      <trkpt lat="49.951581973582506" lon="6.028394931927323">
        <ele>395.29</ele>
        <time>2024-12-29T18:01:09.418Z</time>
      </trkpt>
      <trkpt lat="49.951560935005546" lon="6.028296947479248">
        <ele>392.35</ele>
        <time>2024-12-29T18:01:28.743Z</time>
      </trkpt>
      <trkpt lat="49.951518941670656" lon="6.028191922232509">
        <ele>389.38</ele>
        <time>2024-12-29T18:01:48.078Z</time>
      </trkpt>
      <trkpt lat="49.9514733441174" lon="6.027949349954724">
        <ele>386.45</ele>
        <time>2024-12-29T18:02:07.435Z</time>
      </trkpt>
      <trkpt lat="49.951427998021245" lon="6.027707951143384">
        <ele>383.48</ele>
        <time>2024-12-29T18:02:26.814Z</time>
      </trkpt>
      <trkpt lat="49.95136027224362" lon="6.027449872344732">
        <ele>380.45</ele>
        <time>2024-12-29T18:02:46.217Z</time>
      </trkpt>
      <trkpt lat="49.95129296556115" lon="6.027192967012525">
        <ele>377.36</ele>
        <time>2024-12-29T18:03:05.643Z</time>
      </trkpt>
      <trkpt lat="49.95124493725598" lon="6.026959950104356">
        <ele>374.15</ele>
        <time>2024-12-29T18:03:25.091Z</time>
      </trkpt>
      <trkpt lat="49.95120185427368" lon="6.026672199368477">
        <ele>370.86</ele>
        <time>2024-12-29T18:03:44.564Z</time>
      </trkpt>
      <trkpt lat="49.95115893892944" lon="6.026385957375169">
        <ele>367.53</ele>
        <time>2024-12-29T18:04:04.062Z</time>
      </trkpt>
      <trkpt lat="49.951106971129775" lon="6.0261869709938765">
        <ele>364.1</ele>
        <time>2024-12-29T18:04:23.579Z</time>
      </trkpt>
      <trkpt lat="49.9510779697448" lon="6.025981949642301">
        <ele>360.66</ele>
        <time>2024-12-29T18:04:43.114Z</time>
      </trkpt>
      <trkpt lat="49.95107193477452" lon="6.025815987959504">
        <ele>357.24</ele>
        <time>2024-12-29T18:05:02.663Z</time>
      </trkpt>
      <trkpt lat="49.95110093615949" lon="6.025654971599579">
        <ele>353.74</ele>
        <time>2024-12-29T18:05:22.227Z</time>
      </trkpt>
      <trkpt lat="49.95109892450273" lon="6.025434946641326">
        <ele>350.11</ele>
        <time>2024-12-29T18:05:41.810Z</time>
      </trkpt>
      <trkpt lat="49.951041927561164" lon="6.0252259857952595">
        <ele>346.44</ele>
        <time>2024-12-29T18:06:01.412Z</time>
      </trkpt>
      <trkpt lat="49.95102692395449" lon="6.024754922837019">
        <ele>342.44</ele>
        <time>2024-12-29T18:06:21.055Z</time>
      </trkpt>
      <trkpt lat="49.95101192034781" lon="6.0245029628276825">
        <ele>338.72</ele>
        <time>2024-12-29T18:06:40.719Z</time>
      </trkpt>
      <trkpt lat="49.95101192034781" lon="6.024504974484444">
        <ele>335.27</ele>
        <time>2024-12-29T18:07:00.384Z</time>
      </trkpt>
      <trkpt lat="49.95098895393312" lon="6.024081939831376">
        <ele>331.51</ele>
        <time>2024-12-29T18:07:20.085Z</time>
      </trkpt>
      <trkpt lat="49.9510039575398" lon="6.023651948198676">
        <ele>327.81</ele>
        <time>2024-12-29T18:07:39.823Z</time>
      </trkpt>
      <trkpt lat="49.9510089866817" lon="6.023321952670813">
        <ele>324.19</ele>
        <time>2024-12-29T18:07:59.590Z</time>
      </trkpt>
      <trkpt lat="49.951000940054655" lon="6.023191949352622">
        <ele>320.83</ele>
        <time>2024-12-29T18:08:19.368Z</time>
      </trkpt>
      <trkpt lat="49.95096196420491" lon="6.022941917181015">
        <ele>317.45</ele>
        <time>2024-12-29T18:08:39.168Z</time>
      </trkpt>
      <trkpt lat="49.95090496726334" lon="6.022687945514917">
        <ele>314.17</ele>
        <time>2024-12-29T18:08:58.991Z</time>
      </trkpt>
      <trkpt lat="49.95086297392845" lon="6.022532964125276">
        <ele>311.04</ele>
        <time>2024-12-29T18:09:18.829Z</time>
      </trkpt>
      <trkpt lat="49.95090295560658" lon="6.0224399250000715">
        <ele>308.19</ele>
        <time>2024-12-29T18:09:38.676Z</time>
      </trkpt>
      <trkpt lat="49.950952995568514" lon="6.02239198051393">
        <ele>305.52</ele>
        <time>2024-12-29T18:09:58.531Z</time>
      </trkpt>
      <trkpt lat="49.95099691674113" lon="6.022382928058505">
        <ele>302.97</ele>
        <time>2024-12-29T18:10:18.392Z</time>
      </trkpt>
      <trkpt lat="49.95096992701292" lon="6.022289972752333">
        <ele>300.45</ele>
        <time>2024-12-29T18:10:38.262Z</time>
      </trkpt>
      <trkpt lat="49.950869930908084" lon="6.022157957777381">
        <ele>297.93</ele>
        <time>2024-12-29T18:10:58.149Z</time>
      </trkpt>
      <trkpt lat="49.9508519936353" lon="6.02211294695735">
        <ele>295.71</ele>
        <time>2024-12-29T18:11:18.041Z</time>
      </trkpt>
      <trkpt lat="49.95084495283663" lon="6.022009933367372">
        <ele>293.58</ele>
        <time>2024-12-29T18:11:37.942Z</time>
      </trkpt>
      <trkpt lat="49.9508139397949" lon="6.021830979734659">
        <ele>291.47</ele>
        <time>2024-12-29T18:11:57.859Z</time>
      </trkpt>
      <trkpt lat="49.95081796310842" lon="6.021801978349686">
        <ele>289.72</ele>
        <time>2024-12-29T18:12:17.778Z</time>
      </trkpt>
      <trkpt lat="49.95083497837186" lon="6.021793931722641">
        <ele>288.14</ele>
        <time>2024-12-29T18:12:37.700Z</time>
      </trkpt>
      <trkpt lat="49.950850987806916" lon="6.021754955872893">
        <ele>286.65</ele>
        <time>2024-12-29T18:12:57.626Z</time>
      </trkpt>
      <trkpt lat="49.95085693895817" lon="6.021636938676238">
        <ele>285.16</ele>
        <time>2024-12-29T18:13:17.562Z</time>
      </trkpt>
      <trkpt lat="49.95088099502027" lon="6.021600980311632">
        <ele>283.94</ele>
        <time>2024-12-29T18:13:37.502Z</time>
      </trkpt>
      <trkpt lat="49.9509849306196" lon="6.021494949236512">
        <ele>282.81</ele>
        <time>2024-12-29T18:13:57.459Z</time>
      </trkpt>
      <trkpt lat="49.95103396475315" lon="6.021475922316313">
        <ele>281.79</ele>
        <time>2024-12-29T18:14:17.423Z</time>
      </trkpt>
      <trkpt lat="49.951041927561164" lon="6.021456979215145">
        <ele>280.85</ele>
        <time>2024-12-29T18:14:37.389Z</time>
      </trkpt>
      <trkpt lat="49.95103295892477" lon="6.021433928981423">
        <ele>279.98</ele>
        <time>2024-12-29T18:14:57.357Z</time>
      </trkpt>
      <trkpt lat="49.95100697502494" lon="6.0214129742234945">
        <ele>279.19</ele>
        <time>2024-12-29T18:15:17.329Z</time>
      </trkpt>
      <trkpt lat="49.95092893950641" lon="6.021432923153043">
        <ele>278.47</ele>
        <time>2024-12-29T18:15:37.312Z</time>
      </trkpt>
      <trkpt lat="49.95091896504164" lon="6.021423954516649">
        <ele>277.81</ele>
        <time>2024-12-29T18:15:57.296Z</time>
      </trkpt>
      <trkpt lat="49.95092198252678" lon="6.021407945081592">
        <ele>277.18</ele>
        <time>2024-12-29T18:16:17.282Z</time>
      </trkpt>
      <trkpt lat="49.95094997808337" lon="6.021372992545366">
        <ele>276.6</ele>
        <time>2024-12-29T18:16:37.272Z</time>
      </trkpt>
      <trkpt lat="49.95097395032644" lon="6.021330999210477">
        <ele>276.01</ele>
        <time>2024-12-29T18:16:57.267Z</time>
      </trkpt>
      <trkpt lat="49.95096397586167" lon="6.021325970068574">
        <ele>275.47</ele>
        <time>2024-12-29T18:17:17.264Z</time>
      </trkpt>
      <trkpt lat="49.95093899779022" lon="6.021336950361729">
        <ele>274.94</ele>
        <time>2024-12-29T18:17:37.264Z</time>
      </trkpt>
      <trkpt lat="49.95078896172345" lon="6.02142496034503">
        <ele>274.34</ele>
        <time>2024-12-29T18:17:57.285Z</time>
      </trkpt>
      <trkpt lat="49.950785944238305" lon="6.021418925374746">
        <ele>273.8</ele>
        <time>2024-12-29T18:18:17.307Z</time>
      </trkpt>
      <trkpt lat="49.95079399086535" lon="6.02138296701014">
        <ele>273.22</ele>
        <time>2024-12-29T18:18:37.332Z</time>
      </trkpt>
      <trkpt lat="49.950882922858" lon="6.021228991448879">
        <ele>272.57</ele>
        <time>2024-12-29T18:18:57.375Z</time>
      </trkpt>
      <trkpt lat="49.95090798474848" lon="6.021179957315326">
        <ele>271.97</ele>
        <time>2024-12-29T18:19:17.424Z</time>
      </trkpt>
      <trkpt lat="49.95095098391175" lon="6.021135952323675">
        <ele>271.38</ele>
        <time>2024-12-29T18:19:37.479Z</time>
      </trkpt>
      <trkpt lat="49.950914941728115" lon="6.021089935675263">
        <ele>270.67</ele>
        <time>2024-12-29T18:19:57.541Z</time>
      </trkpt>
      <trkpt lat="49.950909996405244" lon="6.021016929298639">
        <ele>269.93</ele>
        <time>2024-12-29T18:20:17.609Z</time>
      </trkpt>
      <trkpt lat="49.95094092562795" lon="6.020960938185453">
        <ele>269.25</ele>
        <time>2024-12-29T18:20:37.683Z</time>
      </trkpt>
      <trkpt lat="49.95098694227636" lon="6.020941995084286">
        <ele>268.6</ele>
        <time>2024-12-29T18:20:57.764Z</time>
      </trkpt>
      <trkpt lat="49.95097395032644" lon="6.02082297205925">
        <ele>267.79</ele>
        <time>2024-12-29T18:21:17.855Z</time>
      </trkpt>
      <trkpt lat="49.95098392479122" lon="6.020684922114015">
        <ele>266.96</ele>
        <time>2024-12-29T18:21:37.958Z</time>
      </trkpt>
      <trkpt lat="49.95103798806667" lon="6.020506974309683">
        <ele>266.12</ele>
        <time>2024-12-29T18:21:58.078Z</time>
      </trkpt>
      <trkpt lat="49.95116195641458" lon="6.020207991823554">
        <ele>265.27</ele>
        <time>2024-12-29T18:22:18.229Z</time>
      </trkpt>
      <trkpt lat="49.95134132914245" lon="6.019817227497697">
        <ele>264.39</ele>
        <time>2024-12-29T18:22:38.421Z</time>
      </trkpt>
      <trkpt lat="49.95151994749904" lon="6.019427971914411">
        <ele>263.48</ele>
        <time>2024-12-29T18:22:58.654Z</time>
      </trkpt>
      <trkpt lat="49.951598988845944" lon="6.019249940291047">
        <ele>262.67</ele>
        <time>2024-12-29T18:23:18.906Z</time>
      </trkpt>
      <trkpt lat="49.95160410180688" lon="6.019255304709077">
        <ele>261.9</ele>
        <time>2024-12-29T18:23:39.158Z</time>
      </trkpt>
      <trkpt lat="49.95164894498885" lon="6.019301991909742">
        <ele>261.16</ele>
        <time>2024-12-29T18:23:59.418Z</time>
      </trkpt>
      <trkpt lat="49.95167291723192" lon="6.019386984407902">
        <ele>260.41</ele>
        <time>2024-12-29T18:24:19.686Z</time>
      </trkpt>
      <trkpt lat="49.951647939160466" lon="6.019744975492358">
        <ele>259.72</ele>
        <time>2024-12-29T18:24:39.985Z</time>
      </trkpt>
      <trkpt lat="49.95154894888401" lon="6.020103972405195">
        <ele>259.25</ele>
        <time>2024-12-29T18:25:00.317Z</time>
      </trkpt>
      <trkpt lat="49.95154995471239" lon="6.020245961844921">
        <ele>258.57</ele>
        <time>2024-12-29T18:25:20.662Z</time>
      </trkpt>
      <trkpt lat="49.951474936679006" lon="6.0204519890248775">
        <ele>257.98</ele>
        <time>2024-12-29T18:25:41.027Z</time>
      </trkpt>
      <trkpt lat="49.951473930850625" lon="6.020536981523037">
        <ele>257.31</ele>
        <time>2024-12-29T18:26:01.399Z</time>
      </trkpt>
      <trkpt lat="49.9515079613775" lon="6.020605964586139">
        <ele>256.66</ele>
        <time>2024-12-29T18:26:21.779Z</time>
      </trkpt>
      <trkpt lat="49.95175262913108" lon="6.020835125818849">
        <ele>255.65</ele>
        <time>2024-12-29T18:26:42.197Z</time>
      </trkpt>
      <trkpt lat="49.95199696160853" lon="6.021063951775432">
        <ele>254.73</ele>
        <time>2024-12-29T18:27:02.653Z</time>
      </trkpt>
      <trkpt lat="49.95214456692338" lon="6.021172497421503">
        <ele>254.07</ele>
        <time>2024-12-29T18:27:23.131Z</time>
      </trkpt>
      <trkpt lat="49.952291920781136" lon="6.021280959248543">
        <ele>253.55</ele>
        <time>2024-12-29T18:27:43.631Z</time>
      </trkpt>
      <trkpt lat="49.95229099877179" lon="6.021279953420162">
        <ele>253.14</ele>
        <time>2024-12-29T18:28:04.131Z</time>
      </trkpt>
      <trkpt lat="49.95230097323656" lon="6.021286994218826">
        <ele>252.81</ele>
        <time>2024-12-29T18:28:24.632Z</time>
      </trkpt>
      <trkpt lat="49.95234095491469" lon="6.021302919834852">
        <ele>252.58</ele>
        <time>2024-12-29T18:28:45.139Z</time>
      </trkpt>
      <trkpt lat="49.9523819424212" lon="6.021299986168742">
        <ele>252.45</ele>
        <time>2024-12-29T18:29:05.651Z</time>
      </trkpt>
      <trkpt lat="49.95237096212804" lon="6.021208958700299">
        <ele>252.43</ele>
        <time>2024-12-29T18:29:26.171Z</time>
      </trkpt>
      <trkpt lat="49.95233399793506" lon="6.020937971770763">
        <ele>252.5</ele>
        <time>2024-12-29T18:29:46.715Z</time>
      </trkpt>
      <trkpt lat="49.95232595130801" lon="6.020857924595475">
        <ele>252.76</ele>
        <time>2024-12-29T18:30:07.266Z</time>
      </trkpt>
      <trkpt lat="49.95228395797312" lon="6.020817942917347">
        <ele>253.15</ele>
        <time>2024-12-29T18:30:27.824Z</time>
      </trkpt>
      <trkpt lat="49.952416978776455" lon="6.020476967096329">
        <ele>253.66</ele>
        <time>2024-12-29T18:30:48.416Z</time>
      </trkpt>
      <trkpt lat="49.9524509254843" lon="6.0205889493227005">
        <ele>254.31</ele>
        <time>2024-12-29T18:31:09.018Z</time>
      </trkpt>
      <trkpt lat="49.95251596905291" lon="6.020730938762426">
        <ele>255.1</ele>
        <time>2024-12-29T18:31:29.635Z</time>
      </trkpt>
      <trkpt lat="49.952516220510006" lon="6.020730687305331">
        <ele>256.01</ele>
        <time>2024-12-29T18:31:50.253Z</time>
      </trkpt>
      <trkpt lat="49.95251630432904" lon="6.020730687305331">
        <ele>257.07</ele>
        <time>2024-12-29T18:32:10.871Z</time>
      </trkpt>
      <trkpt lat="49.95275292545557" lon="6.020624991506338">
        <ele>258.43</ele>
        <time>2024-12-29T18:32:31.521Z</time>
      </trkpt>
      <trkpt lat="49.95294294320047" lon="6.020539999008179">
        <ele>259.96</ele>
        <time>2024-12-29T18:32:52.198Z</time>
      </trkpt>
      <trkpt lat="49.95320596732199" lon="6.020621974021196">
        <ele>261.62</ele>
        <time>2024-12-29T18:33:12.911Z</time>
      </trkpt>
      <trkpt lat="49.95332499034703" lon="6.020624991506338">
        <ele>263.25</ele>
        <time>2024-12-29T18:33:33.639Z</time>
      </trkpt>
      <trkpt lat="49.95330294594169" lon="6.0205309465527534">
        <ele>264.96</ele>
        <time>2024-12-29T18:33:54.376Z</time>
      </trkpt>
      <trkpt lat="49.953449964523315" lon="6.020570928230882">
        <ele>266.78</ele>
        <time>2024-12-29T18:34:15.133Z</time>
      </trkpt>
      <trkpt lat="49.95354593731463" lon="6.020577969029546">
        <ele>268.71</ele>
        <time>2024-12-29T18:34:35.903Z</time>
      </trkpt>
      <trkpt lat="49.953683987259865" lon="6.020566988736391">
        <ele>270.77</ele>
        <time>2024-12-29T18:34:56.691Z</time>
      </trkpt>
      <trkpt lat="49.95375498197973" lon="6.020496999844909">
        <ele>272.89</ele>
        <time>2024-12-29T18:35:17.491Z</time>
      </trkpt>
      <trkpt lat="49.95390594005585" lon="6.020087962970138">
        <ele>275.24</ele>
        <time>2024-12-29T18:35:38.331Z</time>
      </trkpt>
      <trkpt lat="49.953982969745994" lon="6.019873972982168">
        <ele>277.51</ele>
        <time>2024-12-29T18:35:59.192Z</time>
      </trkpt>
      <trkpt lat="49.95403896085918" lon="6.0197569616138935">
        <ele>279.79</ele>
        <time>2024-12-29T18:36:20.066Z</time>
      </trkpt>
      <trkpt lat="49.95413292199373" lon="6.0195899941027164">
        <ele>282.24</ele>
        <time>2024-12-29T18:36:40.959Z</time>
      </trkpt>
      <trkpt lat="49.95418497361243" lon="6.019436940550804">
        <ele>284.63</ele>
        <time>2024-12-29T18:37:01.867Z</time>
      </trkpt>
      <trkpt lat="49.95421598665416" lon="6.0191919375211">
        <ele>287.05</ele>
        <time>2024-12-29T18:37:22.796Z</time>
      </trkpt>
      <trkpt lat="49.95421992614865" lon="6.018853979185224">
        <ele>289.41</ele>
        <time>2024-12-29T18:37:43.754Z</time>
      </trkpt>
      <trkpt lat="49.954201988875866" lon="6.018618950620294">
        <ele>291.73</ele>
        <time>2024-12-29T18:38:04.733Z</time>
      </trkpt>
      <trkpt lat="49.9542089458555" lon="6.018541920930147">
        <ele>294.05</ele>
        <time>2024-12-29T18:38:25.718Z</time>
      </trkpt>
      <trkpt lat="49.95422696694732" lon="6.018499927595258">
        <ele>296.39</ele>
        <time>2024-12-29T18:38:46.708Z</time>
      </trkpt>
      <trkpt lat="49.95422596111894" lon="6.018421975895762">
        <ele>298.69</ele>
        <time>2024-12-29T18:39:07.704Z</time>
      </trkpt>
      <trkpt lat="49.95418296195567" lon="6.018125927075744">
        <ele>301.03</ele>
        <time>2024-12-29T18:39:28.727Z</time>
      </trkpt>
      <trkpt lat="49.95415035635233" lon="6.01765813305974">
        <ele>303.42</ele>
        <time>2024-12-29T18:39:49.790Z</time>
      </trkpt>
      <trkpt lat="49.954117918387055" lon="6.01719293743372">
        <ele>305.73</ele>
        <time>2024-12-29T18:40:10.893Z</time>
      </trkpt>
      <trkpt lat="49.95406678877771" lon="6.016939803957939">
        <ele>307.95</ele>
        <time>2024-12-29T18:40:32.019Z</time>
      </trkpt>
      <trkpt lat="49.95401599444449" lon="6.016687927767634">
        <ele>310.11</ele>
        <time>2024-12-29T18:40:53.168Z</time>
      </trkpt>
      <trkpt lat="49.95408992283046" lon="6.016649957746267">
        <ele>312.46</ele>
        <time>2024-12-29T18:41:14.327Z</time>
      </trkpt>
      <trkpt lat="49.95429393835366" lon="6.01646295748651">
        <ele>315.07</ele>
        <time>2024-12-29T18:41:35.518Z</time>
      </trkpt>
      <trkpt lat="49.95438597165048" lon="6.01639992557466">
        <ele>317.33</ele>
        <time>2024-12-29T18:41:56.722Z</time>
      </trkpt>
      <trkpt lat="49.95449493639171" lon="6.016296995803714">
        <ele>319.58</ele>
        <time>2024-12-29T18:42:17.943Z</time>
      </trkpt>
      <trkpt lat="49.9545609857887" lon="6.016273945569992">
        <ele>321.77</ele>
        <time>2024-12-29T18:42:39.174Z</time>
      </trkpt>
      <trkpt lat="49.95461999438703" lon="6.016308981925249">
        <ele>323.96</ele>
        <time>2024-12-29T18:43:00.413Z</time>
      </trkpt>
      <trkpt lat="49.95464497245848" lon="6.016382994130254">
        <ele>326.06</ele>
        <time>2024-12-29T18:43:21.659Z</time>
      </trkpt>
      <trkpt lat="49.954652935266495" lon="6.016563959419727">
        <ele>328.15</ele>
        <time>2024-12-29T18:43:42.921Z</time>
      </trkpt>
      <trkpt lat="49.95466995052993" lon="6.016658926382661">
        <ele>330.15</ele>
        <time>2024-12-29T18:44:04.191Z</time>
      </trkpt>
      <trkpt lat="49.95481898076832" lon="6.01652598939836">
        <ele>332.28</ele>
        <time>2024-12-29T18:44:25.484Z</time>
      </trkpt>
      <trkpt lat="49.954886958003044" lon="6.01648491807282">
        <ele>334.24</ele>
        <time>2024-12-29T18:44:46.787Z</time>
      </trkpt>
      <trkpt lat="49.95500992052257" lon="6.016380982473493">
        <ele>336.16</ele>
        <time>2024-12-29T18:45:08.109Z</time>
      </trkpt>
      <trkpt lat="49.955041939392686" lon="6.016377964988351">
        <ele>337.98</ele>
        <time>2024-12-29T18:45:29.435Z</time>
      </trkpt>
      <trkpt lat="49.955061972141266" lon="6.016414929181337">
        <ele>339.79</ele>
        <time>2024-12-29T18:45:50.765Z</time>
      </trkpt>
      <trkpt lat="49.955101953819394" lon="6.016521966084838">
        <ele>341.65</ele>
        <time>2024-12-29T18:46:12.106Z</time>
      </trkpt>
      <trkpt lat="49.95517797768116" lon="6.01652498356998">
        <ele>343.38</ele>
        <time>2024-12-29T18:46:33.457Z</time>
      </trkpt>
      <trkpt lat="49.955231957137585" lon="6.016572928056121">
        <ele>345.06</ele>
        <time>2024-12-29T18:46:54.816Z</time>
      </trkpt>
      <trkpt lat="49.95530094020069" lon="6.0165889374911785">
        <ele>346.66</ele>
        <time>2024-12-29T18:47:16.185Z</time>
      </trkpt>
      <trkpt lat="49.95532591827214" lon="6.0166169330477715">
        <ele>348.18</ele>
        <time>2024-12-29T18:47:37.558Z</time>
      </trkpt>
      <trkpt lat="49.9553659837693" lon="6.01674391888082">
        <ele>349.73</ele>
        <time>2024-12-29T18:47:58.943Z</time>
      </trkpt>
      <trkpt lat="49.95539498515427" lon="6.016756994649768">
        <ele>351.1</ele>
        <time>2024-12-29T18:48:20.332Z</time>
      </trkpt>
      <trkpt lat="49.95545097626746" lon="6.016714917495847">
        <ele>352.4</ele>
        <time>2024-12-29T18:48:41.729Z</time>
      </trkpt>
      <trkpt lat="49.955510990694165" lon="6.01669798605144">
        <ele>353.66</ele>
        <time>2024-12-29T18:49:03.134Z</time>
      </trkpt>
      <trkpt lat="49.955551978200674" lon="6.016622968018055">
        <ele>354.76</ele>
        <time>2024-12-29T18:49:24.548Z</time>
      </trkpt>
      <trkpt lat="49.95563294738531" lon="6.016557924449444">
        <ele>355.84</ele>
        <time>2024-12-29T18:49:45.974Z</time>
      </trkpt>
      <trkpt lat="49.95581449940801" lon="6.016576448455453">
        <ele>357.09</ele>
        <time>2024-12-29T18:50:07.424Z</time>
      </trkpt>
      <trkpt lat="49.95599596761167" lon="6.016594972461462">
        <ele>358.29</ele>
        <time>2024-12-29T18:50:28.898Z</time>
      </trkpt>
      <trkpt lat="49.95602094568312" lon="6.0166089702397585">
        <ele>359.15</ele>
        <time>2024-12-29T18:50:50.376Z</time>
      </trkpt>
      <trkpt lat="49.95603293180466" lon="6.016636965796351">
        <ele>359.93</ele>
        <time>2024-12-29T18:51:11.857Z</time>
      </trkpt>
      <trkpt lat="49.95604692958295" lon="6.016630930826068">
        <ele>360.61</ele>
        <time>2024-12-29T18:51:33.340Z</time>
      </trkpt>
      <trkpt lat="49.95605397038162" lon="6.0165889374911785">
        <ele>361.19</ele>
        <time>2024-12-29T18:51:54.827Z</time>
      </trkpt>
      <trkpt lat="49.95606595650315" lon="6.0165659710764885">
        <ele>361.71</ele>
        <time>2024-12-29T18:52:16.316Z</time>
      </trkpt>
      <trkpt lat="49.95607995428145" lon="6.016569994390011">
        <ele>362.19</ele>
        <time>2024-12-29T18:52:37.807Z</time>
      </trkpt>
      <trkpt lat="49.95610593818128" lon="6.016624979674816">
        <ele>362.65</ele>
        <time>2024-12-29T18:52:59.304Z</time>
      </trkpt>
      <trkpt lat="49.95613292790949" lon="6.016649957746267">
        <ele>363.04</ele>
        <time>2024-12-29T18:53:20.805Z</time>
      </trkpt>
      <trkpt lat="49.95616997592151" lon="6.016664961352944">
        <ele>363.38</ele>
        <time>2024-12-29T18:53:42.311Z</time>
      </trkpt>
      <trkpt lat="49.956199983134866" lon="6.016664961352944">
        <ele>363.65</ele>
        <time>2024-12-29T18:54:03.821Z</time>
      </trkpt>
      <trkpt lat="49.956266954541206" lon="6.0166119877249">
        <ele>363.87</ele>
        <time>2024-12-29T18:54:25.341Z</time>
      </trkpt>
      <trkpt lat="49.95634297840297" lon="6.0165229719132185">
        <ele>364.08</ele>
        <time>2024-12-29T18:54:46.874Z</time>
      </trkpt>
      <trkpt lat="49.95634499005973" lon="6.016491958871484">
        <ele>364.2</ele>
        <time>2024-12-29T18:55:08.410Z</time>
      </trkpt>
      <trkpt lat="49.956349935382605" lon="6.0164799727499485">
        <ele>364.33</ele>
        <time>2024-12-29T18:55:29.947Z</time>
      </trkpt>
      <trkpt lat="49.95640693232417" lon="6.016397997736931">
        <ele>364.44</ele>
        <time>2024-12-29T18:55:51.494Z</time>
      </trkpt>
      <trkpt lat="49.95644398033619" lon="6.016298923641443">
        <ele>364.59</ele>
        <time>2024-12-29T18:56:13.051Z</time>
      </trkpt>
      <trkpt lat="49.956520926207304" lon="6.01614092476666">
        <ele>364.73</ele>
        <time>2024-12-29T18:56:34.625Z</time>
      </trkpt>
      <trkpt lat="49.956544982269406" lon="6.016113935038447">
        <ele>364.92</ele>
        <time>2024-12-29T18:56:56.203Z</time>
      </trkpt>
      <trkpt lat="49.956583958119154" lon="6.01609599776566">
        <ele>365.17</ele>
        <time>2024-12-29T18:57:17.787Z</time>
      </trkpt>
      <trkpt lat="49.95661899447441" lon="6.01605492644012">
        <ele>365.43</ele>
        <time>2024-12-29T18:57:39.376Z</time>
      </trkpt>
      <trkpt lat="49.95670599862933" lon="6.015914948657155">
        <ele>365.75</ele>
        <time>2024-12-29T18:58:00.982Z</time>
      </trkpt>
      <trkpt lat="49.95674095116556" lon="6.015899945050478">
        <ele>366.13</ele>
        <time>2024-12-29T18:58:22.593Z</time>
      </trkpt>
      <trkpt lat="49.95675394311547" lon="6.015849988907576">
        <ele>366.46</ele>
        <time>2024-12-29T18:58:44.209Z</time>
      </trkpt>
      <trkpt lat="49.956776993349195" lon="6.015806989744306">
        <ele>366.88</ele>
        <time>2024-12-29T18:59:05.829Z</time>
      </trkpt>
      <trkpt lat="49.95680993422866" lon="6.015789974480867">
        <ele>367.41</ele>
        <time>2024-12-29T18:59:27.454Z</time>
      </trkpt>
      <trkpt lat="49.95687196031213" lon="6.015777988359332">
        <ele>368.03</ele>
        <time>2024-12-29T18:59:49.087Z</time>
      </trkpt>
      <trkpt lat="49.9569339863956" lon="6.0157189797610044">
        <ele>368.73</ele>
        <time>2024-12-29T19:00:10.730Z</time>
      </trkpt>
      <trkpt lat="49.956995928660035" lon="6.015631975606084">
        <ele>369.43</ele>
        <time>2024-12-29T19:00:32.384Z</time>
      </trkpt>
      <trkpt lat="49.95715292170644" lon="6.015458973124623">
        <ele>370.33</ele>
        <time>2024-12-29T19:00:54.064Z</time>
      </trkpt>
      <trkpt lat="49.95728191919625" lon="6.015266943722963">
        <ele>371.27</ele>
        <time>2024-12-29T19:01:15.768Z</time>
      </trkpt>
      <trkpt lat="49.957316955551505" lon="6.0150439850986">
        <ele>372.05</ele>
        <time>2024-12-29T19:01:37.492Z</time>
      </trkpt>
      <trkpt lat="49.9573449511081" lon="6.014991933479905">
        <ele>372.99</ele>
        <time>2024-12-29T19:01:59.221Z</time>
      </trkpt>
      <trkpt lat="49.95737696997821" lon="6.014988999813795">
        <ele>374.02</ele>
        <time>2024-12-29T19:02:20.955Z</time>
      </trkpt>
      <trkpt lat="49.95742893777788" lon="6.014959998428822">
        <ele>375.11</ele>
        <time>2024-12-29T19:02:42.696Z</time>
      </trkpt>
      <trkpt lat="49.957468919456005" lon="6.014951951801777">
        <ele>376.23</ele>
        <time>2024-12-29T19:03:04.442Z</time>
      </trkpt>
      <trkpt lat="49.957530945539474" lon="6.014968967065215">
        <ele>377.44</ele>
        <time>2024-12-29T19:03:26.197Z</time>
      </trkpt>
      <trkpt lat="49.957599928602576" lon="6.01496092043817">
        <ele>378.69</ele>
        <time>2024-12-29T19:03:47.961Z</time>
      </trkpt>
      <trkpt lat="49.95765298604965" lon="6.014898978173733">
        <ele>379.87</ele>
        <time>2024-12-29T19:04:09.734Z</time>
      </trkpt>
      <trkpt lat="49.95770897716284" lon="6.014804933220148">
        <ele>381.02</ele>
        <time>2024-12-29T19:04:31.518Z</time>
      </trkpt>
      <trkpt lat="49.95773797854781" lon="6.014654980972409">
        <ele>382.11</ele>
        <time>2024-12-29T19:04:53.316Z</time>
      </trkpt>
      <trkpt lat="49.95776195079088" lon="6.014627991244197">
        <ele>383.34</ele>
        <time>2024-12-29T19:05:15.117Z</time>
      </trkpt>
      <trkpt lat="49.95780293829739" lon="6.014611981809139">
        <ele>384.61</ele>
        <time>2024-12-29T19:05:36.924Z</time>
      </trkpt>
      <trkpt lat="49.95783696882427" lon="6.01461592130363">
        <ele>385.9</ele>
        <time>2024-12-29T19:05:58.736Z</time>
      </trkpt>
      <trkpt lat="49.957896983250976" lon="6.014599995687604">
        <ele>387.22</ele>
        <time>2024-12-29T19:06:20.556Z</time>
      </trkpt>
      <trkpt lat="49.95794299989939" lon="6.014571916311979">
        <ele>388.5</ele>
        <time>2024-12-29T19:06:42.382Z</time>
      </trkpt>
      <trkpt lat="49.958049952983856" lon="6.01459396071732">
        <ele>389.9</ele>
        <time>2024-12-29T19:07:04.223Z</time>
      </trkpt>
      <trkpt lat="49.95814399793744" lon="6.014632936567068">
        <ele>391.27</ele>
        <time>2024-12-29T19:07:26.077Z</time>
      </trkpt>
      <trkpt lat="49.95818498544395" lon="6.01461592130363">
        <ele>392.52</ele>
        <time>2024-12-29T19:07:47.936Z</time>
      </trkpt>
      <trkpt lat="49.958300990983844" lon="6.014511985704303">
        <ele>393.75</ele>
        <time>2024-12-29T19:08:09.813Z</time>
      </trkpt>
      <trkpt lat="49.95842697098851" lon="6.014485917985439">
        <ele>395.02</ele>
        <time>2024-12-29T19:08:31.707Z</time>
      </trkpt>
      <trkpt lat="49.958606930449605" lon="6.014347951859236">
        <ele>396.17</ele>
        <time>2024-12-29T19:08:53.628Z</time>
      </trkpt>
      <trkpt lat="49.95867599733174" lon="6.014258936047554">
        <ele>397.3</ele>
        <time>2024-12-29T19:09:15.561Z</time>
      </trkpt>
      <trkpt lat="49.95878194458783" lon="6.014218954369426">
        <ele>398.45</ele>
        <time>2024-12-29T19:09:37.509Z</time>
      </trkpt>
      <trkpt lat="49.95883299037814" lon="6.014167992398143">
        <ele>399.52</ele>
        <time>2024-12-29T19:09:59.465Z</time>
      </trkpt>
      <trkpt lat="49.95897497981787" lon="6.014137985184789">
        <ele>400.67</ele>
        <time>2024-12-29T19:10:21.440Z</time>
      </trkpt>
      <trkpt lat="49.95903097093105" lon="6.014111917465925">
        <ele>401.69</ele>
        <time>2024-12-29T19:10:43.423Z</time>
      </trkpt>
      <trkpt lat="49.95908997952938" lon="6.014110995456576">
        <ele>402.64</ele>
        <time>2024-12-29T19:11:05.414Z</time>
      </trkpt>
      <trkpt lat="49.95936130173504" lon="6.014157263562083">
        <ele>403.61</ele>
        <time>2024-12-29T19:11:27.441Z</time>
      </trkpt>
      <trkpt lat="49.959632623940706" lon="6.014203615486622">
        <ele>404.41</ele>
        <time>2024-12-29T19:11:49.504Z</time>
      </trkpt>
      <trkpt lat="49.95990394614637" lon="6.0142499674111605">
        <ele>405.12</ele>
        <time>2024-12-29T19:12:11.604Z</time>
      </trkpt>
      <trkpt lat="49.96009647846222" lon="6.014266982674599">
        <ele>405.73</ele>
        <time>2024-12-29T19:12:33.730Z</time>
      </trkpt>
      <trkpt lat="49.96028892695904" lon="6.014283997938037">
        <ele>406.37</ele>
        <time>2024-12-29T19:12:55.881Z</time>
      </trkpt>
      <trkpt lat="49.96049897745252" lon="6.01431199349463">
        <ele>406.95</ele>
        <time>2024-12-29T19:13:18.060Z</time>
      </trkpt>
      <trkpt lat="49.960689917206764" lon="6.0143939685076475">
        <ele>407.49</ele>
        <time>2024-12-29T19:13:40.266Z</time>
      </trkpt>
      <trkpt lat="49.96080399490893" lon="6.014458928257227">
        <ele>408.04</ele>
        <time>2024-12-29T19:14:02.488Z</time>
      </trkpt>
      <trkpt lat="49.96093592606485" lon="6.014535957947373">
        <ele>408.56</ele>
        <time>2024-12-29T19:14:24.729Z</time>
      </trkpt>
      <trkpt lat="49.96103793382645" lon="6.014567976817489">
        <ele>409.06</ele>
        <time>2024-12-29T19:14:46.984Z</time>
      </trkpt>
      <trkpt lat="49.96115494519472" lon="6.014571916311979">
        <ele>409.54</ele>
        <time>2024-12-29T19:15:09.254Z</time>
      </trkpt>
      <trkpt lat="49.96127396821976" lon="6.014533946290612">
        <ele>409.99</ele>
        <time>2024-12-29T19:15:31.541Z</time>
      </trkpt>
      <trkpt lat="49.96128394268453" lon="6.01461298763752">
        <ele>410.29</ele>
        <time>2024-12-29T19:15:53.835Z</time>
      </trkpt>
      <trkpt lat="49.96128293685615" lon="6.014695968478918">
        <ele>410.57</ele>
        <time>2024-12-29T19:16:16.136Z</time>
      </trkpt>
      <trkpt lat="49.96120993047953" lon="6.014912975952029">
        <ele>410.76</ele>
        <time>2024-12-29T19:16:38.458Z</time>
      </trkpt>
      <trkpt lat="49.96117095462978" lon="6.015006937086582">
        <ele>410.94</ele>
        <time>2024-12-29T19:17:00.789Z</time>
      </trkpt>
      <trkpt lat="49.961098954081535" lon="6.015273984521627">
        <ele>411.03</ele>
        <time>2024-12-29T19:17:23.145Z</time>
      </trkpt>
      <trkpt lat="49.96106299571693" lon="6.015476994216442">
        <ele>411.14</ele>
        <time>2024-12-29T19:17:45.519Z</time>
      </trkpt>
      <trkpt lat="49.96106442064047" lon="6.015560561791062">
        <ele>411.24</ele>
        <time>2024-12-29T19:18:07.901Z</time>
      </trkpt>
      <trkpt lat="49.96106592938304" lon="6.015640944242477">
        <ele>411.29</ele>
        <time>2024-12-29T19:18:30.290Z</time>
      </trkpt>
      <trkpt lat="49.96112393215299" lon="6.0158859472721815">
        <ele>411.35</ele>
        <time>2024-12-29T19:18:52.701Z</time>
      </trkpt>
      <trkpt lat="49.961248990148306" lon="6.016207979992032">
        <ele>411.42</ele>
        <time>2024-12-29T19:19:15.144Z</time>
      </trkpt>
      <trkpt lat="49.961371114477515" lon="6.016416270285845">
        <ele>411.36</ele>
        <time>2024-12-29T19:19:37.612Z</time>
      </trkpt>
      <trkpt lat="49.96149298734963" lon="6.0166239738464355">
        <ele>411.21</ele>
        <time>2024-12-29T19:20:00.104Z</time>
      </trkpt>
      <trkpt lat="49.9616739526391" lon="6.016851961612701">
        <ele>411.0</ele>
        <time>2024-12-29T19:20:22.627Z</time>
      </trkpt>
      <trkpt lat="49.961830945685506" lon="6.016922956332564">
        <ele>410.6</ele>
        <time>2024-12-29T19:20:45.172Z</time>
      </trkpt>
      <trkpt lat="49.961916944012046" lon="6.017079949378967">
        <ele>410.03</ele>
        <time>2024-12-29T19:21:07.735Z</time>
      </trkpt>
      <trkpt lat="49.96205692179501" lon="6.01742897182703">
        <ele>409.29</ele>
        <time>2024-12-29T19:21:30.333Z</time>
      </trkpt>
      <trkpt lat="49.96213998645544" lon="6.01770993322134">
        <ele>408.4</ele>
        <time>2024-12-29T19:21:52.958Z</time>
      </trkpt>
      <trkpt lat="49.96218499727547" lon="6.018128944560885">
        <ele>407.35</ele>
        <time>2024-12-29T19:22:15.619Z</time>
      </trkpt>
      <trkpt lat="49.96224995702505" lon="6.018484923988581">
        <ele>406.2</ele>
        <time>2024-12-29T19:22:38.312Z</time>
      </trkpt>
      <trkpt lat="49.96226395480335" lon="6.018900917842984">
        <ele>404.97</ele>
        <time>2024-12-29T19:23:01.041Z</time>
      </trkpt>
      <trkpt lat="49.96223998256028" lon="6.019193949177861">
        <ele>403.73</ele>
        <time>2024-12-29T19:23:23.795Z</time>
      </trkpt>
      <trkpt lat="49.96219798922539" lon="6.019509946927428">
        <ele>402.41</ele>
        <time>2024-12-29T19:23:46.577Z</time>
      </trkpt>
      <trkpt lat="49.962128922343254" lon="6.019882941618562">
        <ele>400.92</ele>
        <time>2024-12-29T19:24:09.392Z</time>
      </trkpt>
      <trkpt lat="49.96213596314192" lon="6.020304970443249">
        <ele>399.27</ele>
        <time>2024-12-29T19:24:32.244Z</time>
      </trkpt>
      <trkpt lat="49.9621039442718" lon="6.020440924912691">
        <ele>397.76</ele>
        <time>2024-12-29T19:24:55.108Z</time>
      </trkpt>
      <trkpt lat="49.9619279243052" lon="6.020723981782794">
        <ele>396.17</ele>
        <time>2024-12-29T19:25:18.006Z</time>
      </trkpt>
      <trkpt lat="49.96186497621238" lon="6.020776955410838">
        <ele>394.6</ele>
        <time>2024-12-29T19:25:40.914Z</time>
      </trkpt>
      <trkpt lat="49.961656937375665" lon="6.02086597122252">
        <ele>392.97</ele>
        <time>2024-12-29T19:26:03.850Z</time>
      </trkpt>
      <trkpt lat="49.96145996265113" lon="6.020907964557409">
        <ele>391.29</ele>
        <time>2024-12-29T19:26:26.813Z</time>
      </trkpt>
      <trkpt lat="49.96125695295632" lon="6.020918944850564">
        <ele>389.57</ele>
        <time>2024-12-29T19:26:49.803Z</time>
      </trkpt>
      <trkpt lat="49.96106098406017" lon="6.020886925980449">
        <ele>387.77</ele>
        <time>2024-12-29T19:27:12.819Z</time>
      </trkpt>
      <trkpt lat="49.96087197214365" lon="6.020809980109334">
        <ele>385.86</ele>
        <time>2024-12-29T19:27:35.862Z</time>
      </trkpt>
      <trkpt lat="49.96075998991728" lon="6.020811991766095">
        <ele>383.85</ele>
        <time>2024-12-29T19:27:58.919Z</time>
      </trkpt>
      <trkpt lat="49.96061297133565" lon="6.020873934030533">
        <ele>381.72</ele>
        <time>2024-12-29T19:28:21.997Z</time>
      </trkpt>
      <trkpt lat="49.96052697300911" lon="6.020999997854233">
        <ele>379.56</ele>
        <time>2024-12-29T19:28:45.091Z</time>
      </trkpt>
      <trkpt lat="49.96044499799609" lon="6.021070992574096">
        <ele>377.42</ele>
        <time>2024-12-29T19:29:08.197Z</time>
      </trkpt>
      <trkpt lat="49.960347935557365" lon="6.021085996180773">
        <ele>375.3</ele>
        <time>2024-12-29T19:29:31.316Z</time>
      </trkpt>
      <trkpt lat="49.960064962506294" lon="6.021002931520343">
        <ele>373.1</ele>
        <time>2024-12-29T19:29:54.474Z</time>
      </trkpt>
      <trkpt lat="49.959871927276254" lon="6.020977953448892">
        <ele>370.92</ele>
        <time>2024-12-29T19:30:17.657Z</time>
      </trkpt>
      <trkpt lat="49.95969892479479" lon="6.020983988419175">
        <ele>368.75</ele>
        <time>2024-12-29T19:30:40.864Z</time>
      </trkpt>
      <trkpt lat="49.95960898697376" lon="6.021003937348723">
        <ele>366.65</ele>
        <time>2024-12-29T19:31:04.083Z</time>
      </trkpt>
      <trkpt lat="49.959532963112" lon="6.020986922085285">
        <ele>364.63</ele>
        <time>2024-12-29T19:31:27.312Z</time>
      </trkpt>
      <trkpt lat="49.95945098809898" lon="6.021004943177104">
        <ele>362.62</ele>
        <time>2024-12-29T19:31:50.552Z</time>
      </trkpt>
      <trkpt lat="49.959337916225195" lon="6.021128995344043">
        <ele>360.62</ele>
        <time>2024-12-29T19:32:13.810Z</time>
      </trkpt>
      <trkpt lat="49.959208918735385" lon="6.021215999498963">
        <ele>358.67</ele>
        <time>2024-12-29T19:32:37.087Z</time>
      </trkpt>
      <trkpt lat="49.959164997562766" lon="6.021345918998122">
        <ele>356.74</ele>
        <time>2024-12-29T19:33:00.377Z</time>
      </trkpt>
      <trkpt lat="49.95889074169099" lon="6.021585641428828">
        <ele>354.65</ele>
        <time>2024-12-29T19:33:23.709Z</time>
      </trkpt>
      <trkpt lat="49.95861698873341" lon="6.021824944764376">
        <ele>352.71</ele>
        <time>2024-12-29T19:33:47.083Z</time>
      </trkpt>
      <trkpt lat="49.95841699652374" lon="6.021818993613124">
        <ele>351.13</ele>
        <time>2024-12-29T19:34:10.484Z</time>
      </trkpt>
      <trkpt lat="49.9582599196583" lon="6.021773982793093">
        <ele>349.69</ele>
        <time>2024-12-29T19:34:33.906Z</time>
      </trkpt>
      <trkpt lat="49.95808691717684" lon="6.021743975579739">
        <ele>348.36</ele>
        <time>2024-12-29T19:34:57.351Z</time>
      </trkpt>
      <trkpt lat="49.95794895105064" lon="6.021763924509287">
        <ele>347.17</ele>
        <time>2024-12-29T19:35:20.815Z</time>
      </trkpt>
      <trkpt lat="49.95786094106734" lon="6.021796949207783">
        <ele>346.06</ele>
        <time>2024-12-29T19:35:44.291Z</time>
      </trkpt>
      <trkpt lat="49.95772582478821" lon="6.021930053830147">
        <ele>344.96</ele>
        <time>2024-12-29T19:36:07.788Z</time>
      </trkpt>
      <trkpt lat="49.95759095996618" lon="6.022062990814447">
        <ele>344.09</ele>
        <time>2024-12-29T19:36:31.306Z</time>
      </trkpt>
      <trkpt lat="49.9574139341712" lon="6.022309921681881">
        <ele>343.25</ele>
        <time>2024-12-29T19:36:54.856Z</time>
      </trkpt>
      <trkpt lat="49.957337994128466" lon="6.022403966635466">
        <ele>342.61</ele>
        <time>2024-12-29T19:37:18.419Z</time>
      </trkpt>
      <trkpt lat="49.95732902549207" lon="6.022405391559005">
        <ele>342.08</ele>
        <time>2024-12-29T19:37:41.983Z</time>
      </trkpt>
      <trkpt lat="49.95728694833815" lon="6.022411929443479">
        <ele>341.63</ele>
        <time>2024-12-29T19:38:05.553Z</time>
      </trkpt>
      <trkpt lat="49.95724696666002" lon="6.022380916401744">
        <ele>341.27</ele>
        <time>2024-12-29T19:38:29.129Z</time>
      </trkpt>
      <trkpt lat="49.95709198527038" lon="6.022422993555665">
        <ele>340.94</ele>
        <time>2024-12-29T19:38:52.726Z</time>
      </trkpt>
      <trkpt lat="49.95704798027873" lon="6.022466998547316">
        <ele>340.67</ele>
        <time>2024-12-29T19:39:16.330Z</time>
      </trkpt>
      <trkpt lat="49.956862991675735" lon="6.022721976041794">
        <ele>340.48</ele>
        <time>2024-12-29T19:39:39.967Z</time>
      </trkpt>
      <trkpt lat="49.95679493062198" lon="6.022858936339617">
        <ele>340.34</ele>
        <time>2024-12-29T19:40:03.619Z</time>
      </trkpt>
      <trkpt lat="49.95671127922833" lon="6.023122547194362">
        <ele>340.11</ele>
        <time>2024-12-29T19:40:27.296Z</time>
      </trkpt>
      <trkpt lat="49.956627963110805" lon="6.023384984582663">
        <ele>339.77</ele>
        <time>2024-12-29T19:40:50.998Z</time>
      </trkpt>
      <trkpt lat="49.95661991648376" lon="6.023449944332242">
        <ele>339.46</ele>
        <time>2024-12-29T19:41:14.706Z</time>
      </trkpt>
      <trkpt lat="49.95663399808109" lon="6.023493949323893">
        <ele>339.13</ele>
        <time>2024-12-29T19:41:38.418Z</time>
      </trkpt>
      <trkpt lat="49.95663399808109" lon="6.023495960980654">
        <ele>338.78</ele>
        <time>2024-12-29T19:42:02.130Z</time>
      </trkpt>
      <trkpt lat="49.95664095506072" lon="6.023514987900853">
        <ele>338.36</ele>
        <time>2024-12-29T19:42:25.844Z</time>
      </trkpt>
      <trkpt lat="49.956652941182256" lon="6.023602997884154">
        <ele>337.83</ele>
        <time>2024-12-29T19:42:49.566Z</time>
      </trkpt>
      <trkpt lat="49.9566369317472" lon="6.023667957633734">
        <ele>337.26</ele>
        <time>2024-12-29T19:43:13.294Z</time>
      </trkpt>
      <trkpt lat="49.95655696839094" lon="6.023797960951924">
        <ele>336.63</ele>
        <time>2024-12-29T19:43:37.038Z</time>
      </trkpt>
      <trkpt lat="49.9564659409225" lon="6.023894939571619">
        <ele>335.86</ele>
        <time>2024-12-29T19:44:00.796Z</time>
      </trkpt>
      <trkpt lat="49.956350941210985" lon="6.024170955643058">
        <ele>334.83</ele>
        <time>2024-12-29T19:44:24.583Z</time>
      </trkpt>
      <trkpt lat="49.95633694343269" lon="6.024257959797978">
        <ele>333.85</ele>
        <time>2024-12-29T19:44:48.377Z</time>
      </trkpt>
      <trkpt lat="49.9562759231776" lon="6.024337923154235">
        <ele>332.76</ele>
        <time>2024-12-29T19:45:12.182Z</time>
      </trkpt>
      <trkpt lat="49.95621398091316" lon="6.024457952007651">
        <ele>331.49</ele>
        <time>2024-12-29T19:45:36.000Z</time>
      </trkpt>
      <trkpt lat="49.95614399202168" lon="6.0246319603174925">
        <ele>330.06</ele>
        <time>2024-12-29T19:45:59.836Z</time>
      </trkpt>
      <trkpt lat="49.95612798258662" lon="6.024704966694117">
        <ele>328.69</ele>
        <time>2024-12-29T19:46:23.679Z</time>
      </trkpt>
      <trkpt lat="49.95612798258662" lon="6.024768920615315">
        <ele>327.26</ele>
        <time>2024-12-29T19:46:47.527Z</time>
      </trkpt>
      <trkpt lat="49.956070985645056" lon="6.025069998577237">
        <ele>325.49</ele>
        <time>2024-12-29T19:47:11.402Z</time>
      </trkpt>
      <trkpt lat="49.956007953733206" lon="6.025213999673724">
        <ele>323.87</ele>
        <time>2024-12-29T19:47:35.292Z</time>
      </trkpt>
      <trkpt lat="49.95593192987144" lon="6.025359928607941">
        <ele>322.17</ele>
        <time>2024-12-29T19:47:59.198Z</time>
      </trkpt>
      <trkpt lat="49.95592991821468" lon="6.0254359524697065">
        <ele>320.55</ele>
        <time>2024-12-29T19:48:23.111Z</time>
      </trkpt>
      <trkpt lat="49.95593595318496" lon="6.025543995201588">
        <ele>318.86</ele>
        <time>2024-12-29T19:48:47.033Z</time>
      </trkpt>
      <trkpt lat="49.95594693347812" lon="6.025637956336141">
        <ele>317.12</ele>
        <time>2024-12-29T19:49:10.963Z</time>
      </trkpt>
      <trkpt lat="49.95597392320633" lon="6.0257799457758665">
        <ele>315.26</ele>
        <time>2024-12-29T19:49:34.906Z</time>
      </trkpt>
      <trkpt lat="49.95595196262002" lon="6.026111952960491">
        <ele>313.27</ele>
        <time>2024-12-29T19:49:58.878Z</time>
      </trkpt>
      <trkpt lat="49.955900916829705" lon="6.026318985968828">
        <ele>311.24</ele>
        <time>2024-12-29T19:50:22.869Z</time>
      </trkpt>
      <trkpt lat="49.955895971506834" lon="6.026592990383506">
        <ele>309.15</ele>
        <time>2024-12-29T19:50:46.883Z</time>
      </trkpt>
      <trkpt lat="49.95590996928513" lon="6.026677982881665">
        <ele>307.09</ele>
        <time>2024-12-29T19:51:10.905Z</time>
      </trkpt>
      <trkpt lat="49.955859929323196" lon="6.026842938736081">
        <ele>304.81</ele>
        <time>2024-12-29T19:51:34.943Z</time>
      </trkpt>
      <trkpt lat="49.955809973180294" lon="6.02690395899117">
        <ele>302.45</ele>
        <time>2024-12-29T19:51:58.989Z</time>
      </trkpt>
      <trkpt lat="49.95576596818864" lon="6.0271199606359005">
        <ele>300.06</ele>
        <time>2024-12-29T19:52:23.055Z</time>
      </trkpt>
      <trkpt lat="49.95575599372387" lon="6.027258932590485">
        <ele>297.6</ele>
        <time>2024-12-29T19:52:47.133Z</time>
      </trkpt>
      <trkpt lat="49.95574291795492" lon="6.027424978092313">
        <ele>295.03</ele>
        <time>2024-12-29T19:53:11.225Z</time>
      </trkpt>
      <trkpt lat="49.95570293627679" lon="6.027553975582123">
        <ele>292.45</ele>
        <time>2024-12-29T19:53:35.329Z</time>
      </trkpt>
      <trkpt lat="49.955536974594" lon="6.027884976938367">
        <ele>289.63</ele>
        <time>2024-12-29T19:53:59.470Z</time>
      </trkpt>
      <trkpt lat="49.955382999032736" lon="6.02817096747458">
        <ele>286.89</ele>
        <time>2024-12-29T19:54:23.643Z</time>
      </trkpt>
      <trkpt lat="49.955190969631076" lon="6.028240956366062">
        <ele>284.1</ele>
        <time>2024-12-29T19:54:47.842Z</time>
      </trkpt>
      <trkpt lat="49.955081921070814" lon="6.028387974947691">
        <ele>281.49</ele>
        <time>2024-12-29T19:55:12.060Z</time>
      </trkpt>
      <trkpt lat="49.954930962994695" lon="6.028551924973726">
        <ele>278.74</ele>
        <time>2024-12-29T19:55:36.303Z</time>
      </trkpt>
      <trkpt lat="49.95480892248452" lon="6.028651921078563">
        <ele>276.25</ele>
        <time>2024-12-29T19:56:00.564Z</time>
      </trkpt>
      <trkpt lat="49.95473097078502" lon="6.028757952153683">
        <ele>273.95</ele>
        <time>2024-12-29T19:56:24.839Z</time>
      </trkpt>
      <trkpt lat="49.95466399937868" lon="6.028934977948666">
        <ele>271.7</ele>
        <time>2024-12-29T19:56:49.132Z</time>
      </trkpt>
      <trkpt lat="49.95464991778135" lon="6.029055928811431">
        <ele>269.68</ele>
        <time>2024-12-29T19:57:13.435Z</time>
      </trkpt>
      <trkpt lat="49.954651929438114" lon="6.029229937121272">
        <ele>267.78</ele>
        <time>2024-12-29T19:57:37.753Z</time>
      </trkpt>
      <trkpt lat="49.954519998282194" lon="6.029339991509914">
        <ele>265.97</ele>
        <time>2024-12-29T19:58:02.091Z</time>
      </trkpt>
      <trkpt lat="49.95449795387685" lon="6.02937594987452">
        <ele>264.4</ele>
        <time>2024-12-29T19:58:26.434Z</time>
      </trkpt>
      <trkpt lat="49.95448898524046" lon="6.029429929330945">
        <ele>262.98</ele>
        <time>2024-12-29T19:58:50.781Z</time>
      </trkpt>
      <trkpt lat="49.9544869735837" lon="6.029574936255813">
        <ele>261.69</ele>
        <time>2024-12-29T19:59:15.141Z</time>
      </trkpt>
      <trkpt lat="49.954481944441795" lon="6.029595974832773">
        <ele>260.59</ele>
        <time>2024-12-29T19:59:39.503Z</time>
      </trkpt>
      <trkpt lat="49.9544679466635" lon="6.029601925984025">
        <ele>259.62</ele>
        <time>2024-12-29T20:00:03.867Z</time>
      </trkpt>
      <trkpt lat="49.9543849658221" lon="6.029638973996043">
        <ele>258.77</ele>
        <time>2024-12-29T20:00:28.242Z</time>
      </trkpt>
      <trkpt lat="49.9543659389019" lon="6.029669987037778">
        <ele>258.15</ele>
        <time>2024-12-29T20:00:52.621Z</time>
      </trkpt>
      <trkpt lat="49.954306930303574" lon="6.02971994318068">
        <ele>257.73</ele>
        <time>2024-12-29T20:01:17.009Z</time>
      </trkpt>
      <trkpt lat="49.954306930303574" lon="6.029750956222415">
        <ele>257.5</ele>
        <time>2024-12-29T20:01:41.400Z</time>
      </trkpt>
      <trkpt lat="49.95450993999839" lon="6.029748944565654">
        <ele>257.49</ele>
        <time>2024-12-29T20:02:05.818Z</time>
      </trkpt>
      <trkpt lat="49.95462091639638" lon="6.029815999791026">
        <ele>257.64</ele>
        <time>2024-12-29T20:02:30.252Z</time>
      </trkpt>
      <trkpt lat="49.95481093414128" lon="6.0300179198384285">
        <ele>257.98</ele>
        <time>2024-12-29T20:02:54.716Z</time>
      </trkpt>
      <trkpt lat="49.95496398769319" lon="6.0301439836621284">
        <ele>258.57</ele>
        <time>2024-12-29T20:03:19.204Z</time>
      </trkpt>
      <trkpt lat="49.95512894354761" lon="6.0302749928087">
        <ele>259.48</ele>
        <time>2024-12-29T20:03:43.716Z</time>
      </trkpt>
      <trkpt lat="49.955230951309204" lon="6.030349927023053">
        <ele>260.54</ele>
        <time>2024-12-29T20:04:08.243Z</time>
      </trkpt>
      <trkpt lat="49.95529197156429" lon="6.030392926186323">
        <ele>261.79</ele>
        <time>2024-12-29T20:04:32.779Z</time>
      </trkpt>
      <trkpt lat="49.95546204037964" lon="6.030501471832395">
        <ele>263.34</ele>
        <time>2024-12-29T20:04:57.340Z</time>
      </trkpt>
      <trkpt lat="49.95563194155693" lon="6.030609933659434">
        <ele>264.91</ele>
        <time>2024-12-29T20:05:21.925Z</time>
      </trkpt>
      <trkpt lat="49.955809973180294" lon="6.030671959742904">
        <ele>266.0</ele>
        <time>2024-12-29T20:05:46.535Z</time>
      </trkpt>
      <trkpt lat="49.95594894513488" lon="6.0306749772280455">
        <ele>266.68</ele>
        <time>2024-12-29T20:06:11.163Z</time>
      </trkpt>
      <trkpt lat="49.9561189301312" lon="6.0306319780647755">
        <ele>267.18</ele>
        <time>2024-12-29T20:06:35.814Z</time>
      </trkpt>
      <trkpt lat="49.956265948712826" lon="6.030549919232726">
        <ele>267.6</ele>
        <time>2024-12-29T20:07:00.486Z</time>
      </trkpt>
      <trkpt lat="49.956364100798965" lon="6.030433662235737">
        <ele>268.0</ele>
        <time>2024-12-29T20:07:25.175Z</time>
      </trkpt>
    </trkseg>
  </trk>
</gpx>
